ECMWFNIL_sfc_dewp_000.txt.gz
Dewpoint
50 50 49 50 51 51 49 49 48 46 46 47 47 48 47 47 52 49 49 49 49 47 47 48 49 50 49 49 50 50 50 50 49 48 47 47 46 45 45 44 43 41
50 50 50 50 51 51 50 50 48 46 47 47 48 48 48 50 51 49 49 49 49 48 49 49 49 48 48 48 48 48 48 47 48 51 46 45 44 44 45 45 45 42
50 50 49 48 50 50 50 50 49 48 47 47 49 48 49 51 51 48 48 48 48 48 48 48 48 48 47 47 48 48 46 47 47 48 47 45 46 44 46 45 45 43
50 50 49 48 49 50 50 50 49 49 49 49 49 49 50 52 50 48 49 53 48 48 48 48 49 49 48 48 47 47 47 47 49 49 49 48 48 47 47 46 46 46
51 51 50 48 49 50 50 50 49 49 49 49 49 49 51 51 49 48 50 49 48 48 48 48 49 48 48 48 47 47 47 47 47 47 47 46 47 46 46 46 44 44
52 51 50 50 49 50 49 50 50 50 50 50 49 50 51 50 48 48 49 48 48 49 48 49 49 49 47 48 46 47 48 46 47 46 46 45 45 47 46 46 44 42
51 51 51 50 49 50 49 50 50 51 51 50 49 49 51 50 49 49 49 48 48 49 48 48 48 49 47 48 46 46 46 45 46 47 46 45 46 44 45 44 45 44
52 55 55 54 51 50 49 50 50 51 51 51 48 49 51 49 49 50 50 49 48 49 48 49 48 49 48 47 48 45 46 46 45 47 45 44 44 42 43 45 44 43
55 55 54 53 54 51 51 52 52 53 52 50 48 49 51 50 50 50 50 49 49 49 48 49 48 49 49 46 48 46 45 47 46 45 45 44 43 42 43 44 43 43
53 54 54 54 53 54 53 55 54 54 54 50 49 50 51 51 50 50 51 50 50 50 49 49 49 49 48 47 46 47 44 46 47 44 44 44 43 42 42 42 41 39
52 53 53 53 53 54 54 54 52 54 54 53 52 51 52 52 52 51 51 51 51 51 51 50 49 49 48 47 47 47 46 45 46 44 42 44 44 42 44 41 41 39
53 53 53 54 55 55 55 55 55 55 55 55 53 52 53 52 52 52 51 51 51 51 51 51 51 50 49 48 47 47 47 46 46 44 43 43 44 43 43 42 41 41
53 54 54 55 56 56 56 56 56 55 55 54 54 52 53 53 52 52 52 52 52 53 53 53 53 53 53 51 50 49 48 47 46 45 43 43 44 43 42 43 41 41
52 53 54 55 55 56 56 56 56 55 55 54 54 52 53 53 53 53 53 52 52 50 49 49 50 53 54 53 53 52 50 48 47 46 44 43 44 44 43 43 42 43
52 52 52 53 55 56 54 54 55 55 55 55 53 52 53 53 53 53 53 52 52 51 50 49 50 51 52 51 51 51 50 49 48 46 45 43 43 44 44 42 42 42
51 53 53 52 53 54 56 55 54 55 56 55 55 54 53 53 52 53 52 50 50 50 50 50 51 52 51 48 48 50 49 48 48 47 45 44 44 43 43 41 40 40
50 52 52 51 50 51 53 54 53 53 53 52 51 52 54 53 53 52 52 51 50 49 50 51 52 53 48 46 44 44 49 49 48 47 46 45 44 43 42 41 40 40
49 48 49 50 49 49 49 50 50 50 51 52 52 53 53 53 52 52 50 50 50 50 49 49 50 47 40 41 41 42 43 48 49 47 47 46 44 43 41 39 39 40
43 44 43 43 44 45 46 47 46 46 46 47 47 49 50 50 50 50 50 49 50 50 49 48 49 39 37 39 39 40 41 43 48 48 47 46 45 46 41 38 38 40
42 41 41 41 42 42 42 42 43 43 45 46 46 47 47 47 48 48 48 49 49 49 45 41 39 39 37 39 40 40 40 41 47 48 47 47 48 47 42 38 40 40
40 40 41 40 40 40 41 42 41 41 41 43 44 44 44 45 46 46 47 46 45 43 39 36 37 38 38 38 39 40 42 43 47 46 46 47 46 45 43 41 42 43
39 39 38 39 39 40 40 39 41 41 39 41 41 41 43 42 42 44 45 43 42 39 35 33 35 37 37 37 38 39 40 43 44 44 44 43 43 42 44 42 41 41
39 38 38 38 38 37 37 38 38 37 36 39 34 37 40 41 41 43 44 44 41 37 34 32 33 36 37 37 37 37 38 39 40 41 42 42 43 43 42 42 42 41
39 38 38 39 38 36 37 38 39 39 38 39 36 37 38 40 42 43 43 43 41 37 34 32 32 35 37 37 37 37 38 37 38 39 40 40 39 41 43 42 41 46
38 39 38 39 38 38 39 38 39 38 37 39 39 39 39 41 42 42 41 40 39 37 39 33 33 35 37 37 37 38 39 38 37 35 34 34 36 37 37 35 34 37
39 40 39 39 38 38 39 39 40 39 38 38 38 38 39 40 41 40 40 39 38 36 35 32 32 33 37 37 37 37 38 38 36 34 32 31 33 35 35 32 32 33

ECMWFNIL_sfc_dewp_003.txt.gz
Dewpoint
52 52 54 51 50 51 50 48 48 46 46 47 45 46 46 47 49 47 47 48 48 48 47 47 48 49 49 49 49 48 47 47 46 45 44 45 42 41 41 40 41 42
53 54 55 52 52 51 50 49 48 46 46 47 46 47 46 49 48 47 48 48 48 47 47 48 48 48 48 49 48 47 47 46 46 48 44 43 43 42 41 41 41 42
53 53 52 51 51 51 50 49 48 47 47 47 47 47 48 49 48 47 48 47 46 47 47 48 48 48 48 48 47 47 46 46 45 44 44 43 43 43 43 43 41 41
55 54 52 51 51 51 50 49 48 47 47 47 47 48 49 50 48 47 48 51 46 47 47 47 47 47 47 47 46 45 45 45 45 46 45 45 45 44 44 44 45 44
57 55 52 50 51 51 50 49 48 48 47 47 48 48 49 49 47 47 48 47 46 46 47 47 47 46 47 46 45 45 46 47 48 46 45 44 45 44 44 44 43 43
56 56 53 50 50 50 50 49 49 48 48 48 48 50 49 50 47 47 48 46 46 47 47 47 46 46 47 46 46 46 47 47 47 46 45 44 45 45 45 43 43 43
53 53 52 50 49 50 49 49 49 49 48 48 49 49 50 50 48 47 48 47 46 47 46 47 46 46 47 46 46 46 46 46 46 45 44 44 46 45 45 43 42 41
51 52 52 51 49 50 49 49 49 49 49 49 48 48 50 50 48 48 48 47 47 47 46 47 47 46 46 46 45 46 45 46 46 45 44 44 44 43 44 44 43 41
51 52 53 52 51 50 49 50 51 50 50 49 48 48 50 50 48 48 48 48 47 47 47 47 47 47 46 46 45 45 45 45 46 45 44 44 43 43 43 44 42 43
52 53 55 55 54 53 53 54 55 54 53 50 49 49 50 50 49 49 49 48 47 47 47 47 47 48 47 46 46 45 45 45 45 45 45 44 43 42 42 44 42 41
53 54 53 53 53 54 54 54 54 54 54 53 52 53 53 53 51 50 50 49 48 48 47 47 47 47 47 47 46 46 45 45 45 44 44 44 44 42 44 42 43 40
53 54 54 53 54 54 54 55 55 54 53 54 54 53 54 54 53 52 52 52 50 49 48 48 48 48 47 47 47 47 47 46 46 45 43 43 44 44 43 42 42 41
53 53 54 53 54 54 54 55 55 55 54 53 54 54 54 54 54 54 54 53 53 51 50 50 49 49 49 48 48 47 47 46 46 46 45 44 44 44 43 42 41 41
53 53 53 54 54 54 54 54 54 54 54 54 54 54 54 54 55 54 54 55 54 53 52 52 51 50 49 49 49 49 47 47 47 46 46 45 44 44 44 43 42 41
53 54 54 55 55 54 54 54 54 54 54 54 53 54 55 55 55 55 54 54 54 54 53 50 50 51 52 51 50 50 49 49 48 47 47 46 44 44 44 43 43 42
54 54 55 54 54 54 54 54 54 55 54 54 54 54 54 55 55 54 54 53 52 52 51 50 50 50 50 48 48 49 49 49 49 48 48 47 46 44 44 43 43 42
52 53 54 53 53 54 53 53 54 54 54 53 53 53 53 53 54 53 52 52 51 50 49 50 50 49 41 43 45 45 47 48 49 48 48 47 46 45 44 43 43 42
51 51 52 52 52 52 53 53 53 54 54 53 53 52 53 53 52 52 51 51 51 50 48 49 48 41 37 39 40 41 44 48 48 49 49 47 47 46 45 44 43 41
49 50 50 50 50 51 53 52 52 52 52 52 52 52 52 52 52 51 51 51 51 50 48 45 44 40 37 38 39 39 39 42 47 49 49 49 48 47 46 44 41 41
46 47 48 47 47 48 50 51 50 50 49 51 51 51 52 52 51 51 50 50 50 48 43 39 38 40 38 39 40 40 40 40 44 46 47 47 47 46 44 44 44 40
42 43 45 44 43 43 44 46 46 44 45 45 47 49 50 50 50 49 49 48 46 42 38 36 37 38 38 39 39 40 41 42 42 43 43 42 43 44 44 43 42 42
40 40 39 39 39 39 40 40 40 41 42 42 42 42 42 43 43 45 45 42 40 38 37 35 36 37 38 38 38 39 40 42 41 41 41 41 42 42 42 42 43 42
39 39 38 38 38 37 38 39 38 36 37 38 37 38 40 40 40 41 43 42 38 36 37 34 35 36 37 37 37 38 39 40 40 40 40 40 40 41 41 41 41 41
40 39 38 38 36 36 38 37 37 37 36 37 37 38 39 40 41 42 40 40 38 36 36 36 34 36 37 37 37 38 39 39 38 38 37 38 38 37 37 38 42 45
38 38 39 38 37 37 38 38 37 37 37 38 39 39 39 40 42 42 39 38 37 36 39 35 34 36 37 37 37 37 39 37 36 35 34 34 35 34 33 33 34 38
39 39 39 39 38 38 40 39 40 39 37 38 37 39 40 40 39 40 39 36 35 33 34 33 34 34 36 37 37 37 38 37 35 33 34 33 35 34 32 31 32 32

ECMWFNIL_sfc_dewp_006.txt.gz
Dewpoint
53 52 52 51 51 51 50 49 48 47 47 47 47 47 47 47 49 47 48 48 48 47 47 47 48 48 49 48 48 46 46 46 45 44 44 44 43 43 43 43 44 44
53 54 53 52 52 53 51 50 48 47 47 47 47 47 47 48 48 48 48 48 49 47 47 48 48 48 48 47 46 46 46 45 45 47 43 42 42 42 43 44 44 44
54 55 54 54 53 52 51 50 48 47 47 47 47 47 48 50 47 47 48 48 47 47 48 48 48 49 48 47 47 46 45 45 45 45 43 41 43 42 44 44 44 44
56 56 55 53 52 51 51 50 48 47 47 47 47 49 50 51 48 48 48 51 47 48 48 48 49 48 48 47 47 46 45 45 45 45 44 45 44 43 43 44 45 45
56 56 56 54 53 53 52 50 48 47 47 48 48 49 50 50 48 48 48 47 47 47 48 48 48 48 48 47 46 45 46 46 46 45 44 44 45 44 45 45 44 44
56 55 55 56 53 52 51 50 49 48 47 47 48 50 49 49 48 47 48 47 47 48 47 48 48 48 48 46 46 46 47 46 46 45 44 44 45 45 44 44 43 43
56 55 55 55 52 51 51 51 50 49 48 47 49 49 49 49 48 47 48 48 47 48 47 47 46 47 47 47 47 46 47 47 47 45 44 44 47 45 44 43 43 42
55 55 54 53 52 51 51 51 50 50 49 50 48 49 49 49 49 48 49 47 47 47 47 47 47 46 47 46 47 47 47 47 47 46 45 45 45 44 44 43 44 42
55 55 54 53 52 51 51 50 50 50 50 49 50 49 50 50 49 48 49 48 48 48 48 48 48 48 48 47 47 46 46 47 48 46 45 45 45 44 44 44 42 43
53 54 53 53 51 51 51 51 52 51 51 50 49 50 50 50 49 49 49 49 48 48 48 48 48 48 48 47 46 46 46 46 46 46 45 45 44 44 43 44 43 43
51 52 53 53 53 52 52 53 53 52 52 50 51 51 52 52 51 50 50 50 50 50 50 50 50 49 49 49 48 47 47 47 46 46 46 45 45 44 45 45 44 43
52 53 53 53 53 53 53 54 54 53 52 53 52 52 53 53 52 53 52 52 52 52 52 52 51 51 50 49 48 47 47 47 47 46 46 46 46 45 44 45 45 43
53 53 53 53 53 53 53 54 54 53 53 53 53 53 53 53 54 53 53 53 53 54 54 53 53 51 51 50 49 48 47 47 47 47 47 46 45 45 45 45 44 44
52 53 53 54 54 53 53 54 54 53 53 53 54 54 54 53 53 54 54 54 54 54 54 54 53 52 52 51 50 50 49 48 47 47 47 47 46 46 46 45 45 44
52 53 54 54 54 54 54 54 53 53 53 53 53 53 54 54 55 55 54 54 54 54 54 53 53 52 52 52 52 51 50 49 48 48 48 47 47 46 46 45 45 45
53 53 53 54 53 53 53 53 53 53 54 53 53 54 53 53 53 54 54 54 53 53 54 54 52 51 50 48 48 51 51 50 50 50 49 48 48 47 47 46 45 45
53 53 53 53 53 53 53 53 53 53 54 53 53 52 52 53 53 53 53 53 52 52 52 52 51 51 45 43 44 44 49 50 50 50 49 49 49 48 48 47 47 45
50 51 51 52 52 52 52 52 53 53 53 53 52 52 52 53 53 53 53 53 52 52 51 50 50 46 40 39 40 41 44 49 50 50 50 49 49 48 48 48 47 47
49 49 49 50 51 52 52 48 51 52 52 52 52 52 52 52 52 52 52 52 52 51 50 50 49 41 38 38 38 39 39 42 46 48 49 49 49 49 48 48 47 46
47 48 49 50 51 51 51 50 51 52 51 52 51 51 52 51 51 51 51 51 51 50 49 45 43 40 38 39 40 40 40 40 44 46 47 47 48 48 48 48 47 45
44 46 48 48 47 48 50 50 49 48 49 50 50 50 50 50 50 50 49 49 49 48 46 43 42 39 38 39 39 40 40 41 44 43 43 43 43 44 44 45 44 44
41 42 45 45 43 44 47 48 47 48 48 46 47 47 48 48 47 48 48 47 46 44 43 41 41 37 37 38 38 39 40 43 42 42 42 42 42 42 42 43 44 43
40 39 40 41 41 42 44 45 44 44 44 44 45 45 46 47 47 46 47 46 43 42 42 41 38 38 37 38 38 38 40 41 41 40 40 39 38 39 40 42 44 43
40 40 39 39 39 41 41 40 40 40 40 42 43 43 44 44 43 43 41 42 42 40 39 39 37 38 37 37 38 39 40 40 39 39 38 37 36 36 37 38 41 43
38 40 40 39 38 39 39 38 39 39 39 40 41 42 42 42 43 42 39 38 37 38 42 37 37 38 37 37 37 38 39 39 38 37 36 35 35 34 34 34 34 37
38 40 40 40 39 39 39 39 40 40 39 40 41 43 42 42 42 41 38 36 36 36 38 37 36 37 38 37 37 37 37 38 37 37 36 35 35 33 33 32 33 33

ECMWFNIL_sfc_dewp_009.txt.gz
Dewpoint
56 56 56 56 56 56 55 54 54 55 56 56 56 55 55 55 54 55 55 56 56 55 55 55 54 55 54 54 55 52 52 54 52 52 53 53 52 53 52 51 53 49
56 57 57 56 55 55 54 54 55 54 54 55 55 54 54 54 54 55 55 54 53 53 53 54 54 54 53 52 54 53 51 52 50 49 53 52 51 51 52 53 52 51
58 58 58 58 57 57 56 55 53 54 54 54 55 54 54 55 54 54 55 55 54 53 53 53 53 53 52 52 53 52 51 51 50 50 49 48 50 49 50 50 49 51
58 59 58 57 58 58 58 56 53 52 54 53 54 54 54 54 54 54 54 53 53 53 54 53 53 52 50 51 51 49 50 48 47 49 47 48 49 47 49 49 49 47
58 58 58 58 59 59 57 55 54 52 53 54 55 54 53 54 54 53 53 53 53 52 53 53 53 52 51 51 51 49 50 47 49 49 47 47 49 49 50 49 49 49
56 57 57 56 56 57 57 55 53 52 52 53 55 54 54 54 52 52 53 52 52 52 52 53 52 52 51 50 51 51 49 47 49 49 45 45 45 47 44 48 48 47
58 57 57 56 56 56 56 55 54 52 52 53 52 55 54 53 52 51 51 52 50 50 50 52 52 52 52 51 50 50 50 50 48 46 44 45 46 48 46 47 43 42
58 57 56 57 57 56 55 54 54 53 53 52 52 53 54 52 51 53 53 51 50 49 51 50 50 51 51 51 49 51 51 52 51 46 45 45 48 43 46 47 48 42
58 57 55 58 57 56 55 54 54 54 52 53 52 52 52 53 52 52 51 50 50 50 49 50 49 49 52 51 51 51 50 52 52 49 48 48 47 44 40 44 46 45
57 57 57 57 57 57 56 56 55 55 53 52 51 51 50 53 53 51 50 50 50 49 49 49 50 51 51 49 49 49 49 50 51 51 50 49 46 44 40 44 44 45
56 56 57 57 57 57 57 57 56 55 54 51 52 52 51 52 52 51 50 49 51 49 48 49 50 51 51 51 51 51 50 50 49 49 52 50 50 48 48 46 46 45
55 56 56 57 56 57 57 57 56 55 55 54 51 52 54 53 52 51 50 50 50 50 51 51 52 53 52 52 52 53 53 52 51 50 50 49 50 50 48 49 49 45
53 54 55 56 56 56 58 56 56 56 55 54 53 53 53 53 52 52 54 52 52 54 53 54 54 54 54 55 54 53 54 53 53 52 51 51 50 49 48 49 49 48
54 54 54 55 55 56 56 56 56 56 54 55 54 54 54 53 52 53 56 55 56 55 55 56 55 54 54 54 53 54 54 54 54 54 52 51 53 51 50 50 49 49
54 55 55 55 54 55 56 56 57 56 56 55 55 55 56 54 55 55 55 54 54 56 56 55 55 55 54 54 54 54 54 54 54 52 52 51 52 52 52 51 50 50
54 56 55 56 56 56 56 57 57 57 57 56 55 55 55 56 55 55 54 54 54 55 57 56 55 55 53 49 49 54 55 52 54 54 53 52 53 53 53 53 52 52
55 55 56 55 56 56 57 56 55 56 56 56 56 56 57 57 57 56 57 56 54 54 54 55 56 54 48 46 44 45 50 54 54 54 55 54 54 54 54 54 54 52
54 55 54 54 55 55 55 54 55 55 55 56 56 56 55 55 56 55 54 54 54 53 54 55 56 49 45 44 44 43 44 51 54 54 55 55 54 54 53 53 53 54
54 53 53 53 53 54 54 54 54 54 55 55 56 55 56 55 55 55 55 55 55 53 52 54 54 44 44 43 42 39 39 43 49 51 52 52 53 53 53 53 53 53
52 53 53 53 54 54 54 54 54 54 56 56 56 56 55 55 55 56 55 55 54 53 53 54 54 44 41 40 39 38 39 41 49 52 53 52 51 51 53 52 52 51
49 52 52 53 53 53 54 53 54 56 55 55 55 54 54 54 55 55 55 55 55 54 53 54 54 41 39 38 39 40 40 43 53 52 50 50 49 50 50 50 49 50
43 47 52 52 52 52 53 53 54 54 54 54 55 55 55 55 55 55 55 55 55 54 54 53 52 38 38 39 40 40 39 50 50 50 49 48 48 48 47 47 47 47
40 42 45 48 50 51 51 53 53 53 54 55 55 55 54 54 54 54 54 54 54 54 54 53 49 40 38 39 39 39 41 48 48 46 46 46 45 46 46 47 47 46
40 41 42 44 46 48 50 52 54 54 54 53 54 53 54 53 54 54 54 54 53 53 53 52 48 42 38 38 38 38 44 48 45 45 45 44 43 43 43 42 41 43
39 40 42 43 42 45 48 49 51 51 52 51 53 54 53 52 50 51 51 51 51 51 48 49 47 42 37 37 38 38 45 48 44 43 43 43 41 39 39 38 37 37
39 39 43 44 44 43 43 45 47 48 48 49 49 50 50 50 49 49 48 47 48 47 47 48 47 46 42 37 38 38 40 45 44 42 42 42 40 37 37 37 36 35

ECMWFNIL_sfc_dewp_012.txt.gz
Dewpoint
59 59 56 55 53 53 53 52 50 52 52 53 51 52 50 55 55 56 56 56 56 55 56 57 57 56 55 55 55 52 53 56 54 54 52 52 52 53 51 48 49 44
60 60 57 57 55 55 55 55 54 51 53 53 52 52 54 54 56 55 54 53 52 54 54 55 54 53 52 51 53 50 49 52 51 49 52 51 49 49 51 51 48 46
59 58 57 55 54 56 57 57 56 55 51 52 53 52 53 54 55 54 54 53 51 51 53 53 53 51 49 49 49 48 49 49 50 48 47 47 47 47 49 47 48 48
58 57 56 57 57 57 58 56 56 55 57 52 51 52 52 53 53 53 51 50 48 48 50 51 50 47 45 46 47 46 47 45 44 46 45 46 45 44 47 47 48 46
58 56 55 56 56 57 57 57 56 55 55 54 53 51 51 52 51 49 49 48 46 45 47 48 48 47 46 46 44 44 44 41 45 44 43 45 47 47 47 48 50 49
57 54 52 53 54 55 57 57 55 53 54 55 53 50 50 50 47 47 47 46 45 44 43 43 43 44 44 45 45 44 43 41 45 44 41 43 43 45 42 46 48 47
55 54 53 50 54 58 56 56 56 54 53 52 51 52 51 48 47 46 44 46 45 44 43 43 44 46 46 46 44 45 44 44 45 42 41 41 43 45 44 46 43 43
54 54 53 51 54 57 57 56 56 56 56 54 53 52 51 45 44 48 48 46 45 45 47 45 44 45 47 47 44 46 47 46 46 42 41 41 44 39 43 44 46 42
55 55 53 54 53 54 57 56 56 57 55 55 53 52 51 50 46 48 48 47 46 47 46 47 46 45 48 49 49 48 46 47 48 46 46 45 45 42 37 41 44 44
57 56 55 55 54 53 56 58 56 56 54 55 52 52 49 52 52 47 48 48 48 47 47 48 48 49 48 46 46 47 49 49 48 49 48 47 46 43 39 41 44 44
57 56 55 55 55 53 57 58 57 56 55 53 54 53 51 51 51 49 48 47 49 45 44 46 47 48 48 48 49 49 48 49 48 48 50 49 49 48 48 46 46 46
56 56 56 56 55 56 58 58 57 56 56 55 53 53 53 52 50 49 46 45 45 44 43 44 46 47 47 48 49 51 52 52 52 51 50 48 48 49 48 48 49 47
56 55 55 56 57 56 57 56 56 56 55 54 54 54 54 54 51 49 49 47 46 46 46 47 48 50 53 53 53 54 55 54 55 54 52 52 50 49 48 49 49 48
56 56 55 55 56 55 55 56 55 55 55 55 54 54 54 53 52 51 51 49 50 49 50 53 53 52 52 51 52 54 54 54 54 55 55 55 54 52 51 50 50 49
56 56 56 55 55 55 56 56 56 56 55 54 54 54 55 54 53 52 52 50 51 54 54 54 54 54 53 53 54 53 53 54 55 54 55 54 54 53 53 53 52 51
55 56 56 56 55 54 55 56 56 56 55 54 54 53 54 54 54 54 52 53 53 53 54 56 56 56 54 49 50 54 55 53 55 56 55 55 55 54 53 52 52 52
55 55 56 56 56 56 55 55 55 56 56 54 54 53 54 54 54 53 53 53 52 53 54 55 55 55 46 45 46 47 54 57 57 57 56 55 54 50 52 52 53 53
53 53 54 55 55 55 55 55 56 55 55 55 55 55 55 56 55 53 54 53 53 51 55 57 56 50 43 44 44 44 49 56 57 56 55 55 54 52 49 49 50 51
52 52 52 53 53 54 54 55 54 54 54 55 56 57 58 56 54 55 54 53 53 50 51 54 54 47 44 43 43 43 43 49 52 53 52 51 50 51 51 51 51 51
49 51 52 53 54 54 54 54 54 53 54 55 57 57 56 54 55 55 54 53 53 52 53 54 54 46 44 43 42 43 41 44 51 51 51 51 53 53 53 53 53 52
43 47 51 51 52 53 53 53 54 54 55 55 55 56 55 54 54 54 54 53 53 54 54 54 55 44 43 42 43 42 39 41 51 52 51 51 52 53 53 53 52 53
40 42 45 49 50 52 53 52 53 54 55 56 56 55 54 54 54 54 54 54 54 56 56 55 59 42 42 42 41 40 39 50 51 50 48 48 50 51 50 50 50 50
39 40 42 44 46 50 51 53 54 54 55 55 55 55 54 54 54 53 54 55 55 55 56 55 57 45 41 40 40 39 44 48 49 45 46 48 48 49 48 49 49 48
38 37 39 41 43 44 48 51 54 55 56 56 55 55 54 54 54 54 55 56 55 55 56 57 54 45 39 40 40 41 45 47 45 44 46 46 47 47 46 44 43 42
38 39 39 40 41 43 47 48 51 54 55 56 55 55 54 54 54 54 54 55 55 56 50 56 53 44 39 39 40 41 49 46 43 43 45 45 44 44 44 42 40 40
38 39 40 41 40 42 45 47 48 51 53 54 55 54 53 53 53 53 54 55 56 56 56 54 51 47 44 38 40 41 42 49 44 43 44 44 42 40 41 41 39 37

ECMWFNIL_sfc_dewp_015.txt.gz
Dewpoint
59 57 53 53 51 51 52 50 50 52 53 53 53 53 53 55 55 55 55 55 56 57 57 57 56 56 55 55 55 53 54 55 53 53 53 54 53 52 50 48 48 43
59 56 52 54 52 52 52 52 53 53 54 54 53 51 53 54 54 53 52 51 52 54 54 54 54 52 52 52 53 53 51 52 50 48 51 50 50 50 50 49 46 44
59 56 54 53 53 55 54 54 54 55 54 53 53 52 52 54 54 52 51 51 51 52 53 52 51 50 48 49 49 49 49 49 49 48 49 46 47 48 49 49 48 48
59 56 53 53 53 54 55 55 54 54 55 52 52 51 50 51 52 52 49 48 49 49 50 49 48 46 45 47 48 46 46 46 46 47 46 46 46 46 49 49 48 46
58 54 54 55 54 54 54 53 54 53 52 52 52 51 52 53 48 45 46 46 47 47 48 47 47 46 46 47 46 45 44 43 46 46 45 46 48 49 50 51 50 49
57 52 52 53 53 54 53 50 50 55 56 52 51 49 54 53 46 44 44 44 44 44 44 44 44 45 45 44 45 43 43 42 44 44 42 43 44 47 44 49 49 48
57 54 54 52 53 54 53 50 50 51 53 54 50 50 50 48 45 43 41 43 41 40 40 44 44 46 46 46 44 44 44 44 41 40 41 42 45 46 44 46 44 46
57 55 52 53 55 56 54 51 49 50 52 50 52 50 47 42 43 45 44 43 40 39 40 41 43 43 45 46 44 46 47 47 45 41 41 41 45 43 46 45 47 43
57 53 51 52 57 56 55 53 53 52 53 52 50 50 46 43 44 46 45 44 44 44 41 41 44 46 48 46 46 45 44 47 46 45 44 44 43 42 39 43 45 44
57 55 53 52 52 53 54 54 55 56 53 52 48 47 46 47 46 44 45 46 45 45 44 43 44 47 49 46 45 44 45 46 46 47 45 44 43 39 37 41 44 45
57 56 56 55 55 53 54 53 53 52 51 47 49 47 46 49 45 44 44 45 48 46 45 45 45 45 46 47 50 51 49 49 48 47 49 48 47 45 47 44 46 47
58 58 58 57 56 54 54 53 53 52 50 50 48 49 47 47 48 45 41 41 42 42 43 44 44 45 45 46 47 48 50 50 50 50 50 49 49 49 46 48 49 48
58 59 59 58 56 55 55 55 53 53 50 49 48 49 50 49 47 45 45 42 40 41 41 43 43 44 45 46 46 47 49 50 52 51 51 51 50 49 49 50 50 49
56 58 58 58 57 56 56 56 52 51 50 50 50 50 51 49 49 47 47 44 44 42 42 44 45 44 46 47 48 50 53 54 54 54 53 51 53 51 51 50 51 51
57 57 58 57 56 56 56 55 55 54 52 51 51 52 53 50 51 49 48 46 44 45 44 46 48 49 49 50 50 53 55 55 56 54 55 54 55 56 56 55 55 56
56 57 57 57 56 56 55 56 56 56 55 54 52 52 52 52 51 52 49 48 47 46 47 50 52 53 53 49 50 52 54 54 56 56 56 56 56 55 55 55 53 55
56 56 56 56 56 56 55 55 55 57 56 54 51 52 53 53 52 52 52 51 49 50 51 55 55 57 45 45 46 49 54 56 55 54 55 54 52 55 54 54 52 52
53 54 55 55 56 55 55 55 55 56 56 56 56 54 54 53 54 53 53 53 52 52 55 56 56 49 43 43 45 46 50 55 56 56 55 55 55 52 51 51 50 51
49 50 50 53 53 53 55 56 56 56 56 56 57 56 55 54 54 54 53 54 54 53 53 55 57 43 42 43 43 44 47 51 52 54 54 53 53 51 49 49 52 54
45 48 50 51 51 53 55 54 55 55 57 57 57 57 57 56 55 54 54 54 54 54 54 54 55 45 42 43 42 43 44 47 51 52 53 52 51 50 53 53 53 51
41 42 46 49 52 51 53 53 53 56 56 56 56 56 57 57 57 56 56 55 54 54 54 53 54 43 42 42 41 42 43 44 52 52 51 51 50 53 53 52 52 52
40 40 42 43 45 48 50 50 51 53 54 56 56 56 56 57 57 57 55 55 55 54 54 53 57 42 41 41 41 42 41 51 53 53 51 50 52 51 51 50 50 51
39 39 40 42 43 44 44 47 49 52 54 55 55 56 56 56 56 56 57 57 55 53 52 54 61 45 42 42 41 41 44 52 51 50 51 51 50 49 47 50 52 51
37 37 39 41 41 41 43 46 48 49 49 54 54 54 54 55 56 56 57 56 54 55 53 57 56 50 42 42 42 41 46 50 49 49 48 47 50 47 48 47 46 44
35 38 39 40 41 42 44 45 46 47 47 49 54 54 53 53 54 56 55 55 54 55 53 57 56 50 40 40 41 41 45 50 48 46 46 46 46 44 44 44 44 41
34 35 38 39 40 41 41 42 44 45 47 48 51 52 52 52 53 53 53 54 55 56 58 55 57 54 46 40 40 41 43 50 47 44 44 44 43 42 42 43 42 40

ECMWFNIL_sfc_dewp_021.txt.gz
Dewpoint
56 55 54 54 55 55 55 54 53 55 57 56 56 57 55 55 58 57 57 57 57 58 57 56 58 58 59 59 58 58 59 58 58 57 54 52 51 51 52 50 47 45
56 56 57 55 54 55 54 55 57 57 56 56 55 55 55 54 54 54 55 56 57 57 55 54 55 55 55 53 53 53 53 52 52 53 50 51 52 50 48 47 46 47
57 56 54 53 54 55 56 58 57 55 55 55 55 54 54 53 53 54 56 55 51 50 51 52 53 53 52 51 51 50 50 50 50 51 50 48 49 50 50 50 50 49
57 56 55 55 55 55 55 54 54 53 54 54 54 55 56 55 54 53 55 56 53 53 53 54 51 51 52 52 50 49 47 48 49 50 51 52 52 49 49 49 50 49
56 56 55 55 56 55 53 53 54 54 53 53 53 54 52 50 51 51 51 51 52 50 49 50 52 50 49 48 48 48 50 50 50 50 50 50 51 52 51 49 48 49
56 55 55 55 55 54 53 53 53 52 51 50 51 52 50 50 50 51 51 50 50 50 48 50 48 47 46 47 48 49 49 49 50 50 50 50 50 49 48 49 49 49
54 55 55 55 55 55 54 54 53 52 51 51 50 49 51 51 49 48 49 50 48 49 49 50 48 48 48 48 49 48 48 48 48 48 49 49 49 49 50 49 49 49
55 54 54 54 53 54 55 55 55 53 52 51 50 51 52 52 48 49 47 47 48 48 49 49 49 49 50 50 48 46 47 50 49 48 49 49 49 48 49 51 49 46
55 53 53 53 53 53 53 54 54 54 53 53 51 50 52 50 49 48 46 47 47 47 47 48 49 51 50 49 49 49 50 50 49 48 49 47 46 47 47 47 47 47
54 53 53 54 54 52 51 52 52 52 53 53 52 49 49 51 50 48 49 47 45 46 47 48 50 49 49 49 50 49 47 47 48 48 48 47 47 45 46 46 46 47
54 54 54 56 55 52 51 51 51 51 52 51 52 51 51 51 51 48 50 46 47 47 48 50 50 48 47 47 50 50 48 48 46 47 48 47 46 45 49 46 47 45
56 55 55 56 56 53 51 51 51 50 52 52 52 52 51 51 46 48 49 49 48 47 48 49 50 50 49 50 51 51 49 48 48 49 50 50 47 47 47 47 48 46
58 57 56 57 57 56 54 53 52 52 53 53 53 52 52 48 47 47 48 49 49 49 48 48 49 50 51 52 52 52 51 52 51 51 52 51 50 49 48 48 50 50
59 59 58 57 57 57 57 55 54 54 54 54 54 52 50 50 49 49 48 48 47 49 49 48 47 48 50 51 50 52 51 52 51 51 51 51 50 52 51 50 53 54
58 58 57 57 57 57 56 56 57 55 54 54 54 54 51 48 49 50 49 48 48 48 49 49 48 48 50 49 49 50 51 52 53 51 51 53 53 54 54 55 54 53
58 57 58 57 57 56 55 55 55 56 56 55 54 53 53 50 49 49 50 46 47 48 47 50 49 49 50 47 48 49 51 51 54 52 53 54 54 54 53 55 55 53
57 56 56 56 56 55 55 55 56 56 55 55 55 55 54 54 54 52 52 51 47 48 48 49 49 50 45 42 43 45 51 53 53 53 54 55 54 54 53 54 54 54
56 55 55 55 56 55 55 55 55 55 55 54 54 55 54 54 54 54 53 52 52 51 51 52 51 48 43 41 42 43 49 54 54 54 55 54 53 54 53 53 54 54
55 55 55 54 55 55 54 55 54 54 54 55 55 56 54 54 53 54 54 54 53 52 51 53 53 44 44 43 42 44 48 52 55 55 55 54 54 54 53 52 53 53
42 48 53 53 54 53 54 54 54 53 53 54 55 55 53 53 53 53 54 54 54 53 53 53 53 46 43 44 46 44 45 50 55 55 54 54 53 53 52 52 53 53
38 41 42 43 44 48 49 49 51 51 54 54 54 55 53 53 53 53 52 52 53 53 51 53 53 44 43 45 46 46 45 46 52 54 53 53 53 53 52 50 52 52
36 37 39 40 42 43 44 45 44 46 46 52 53 54 53 53 52 52 52 53 53 52 51 50 52 43 43 43 45 45 44 49 51 50 51 53 54 54 54 53 54 51
35 36 37 38 41 41 43 44 43 44 44 45 44 48 52 53 54 54 54 54 53 52 52 51 51 44 41 42 43 43 44 50 51 51 51 51 52 53 54 54 53 51
35 36 37 39 39 41 43 43 43 43 42 43 43 44 45 47 52 53 54 54 54 53 53 52 51 48 42 42 42 42 45 51 51 51 51 51 50 52 53 53 53 52
37 38 38 38 37 38 40 40 41 41 41 42 42 42 43 44 46 51 53 53 53 53 53 52 51 49 43 42 42 42 44 49 50 48 48 49 50 51 52 52 51 50
37 38 38 38 37 37 38 38 38 37 37 38 39 41 42 43 44 45 49 53 53 53 52 52 52 51 47 42 42 42 42 48 51 51 50 50 50 50 50 46 44 41

ECMWFNIL_sfc_dewp_024.txt.gz
Dewpoint
53 53 53 53 53 53 53 54 54 55 55 55 55 55 56 55 56 56 56 55 55 55 56 57 58 58 59 58 58 59 58 57 56 55 54 53 51 52 53 52 51 51
53 54 55 54 54 54 54 54 55 55 55 55 55 55 55 55 55 55 55 54 52 52 54 56 57 56 56 57 57 56 54 52 50 52 51 50 50 48 47 47 47 48
55 54 53 53 53 53 55 56 56 55 55 55 54 53 54 54 54 54 52 50 50 51 53 54 53 54 54 54 53 52 51 50 50 50 48 47 48 47 48 48 47 47
54 52 52 53 55 56 55 54 54 54 54 53 52 53 54 54 54 53 54 54 51 52 51 51 52 51 50 50 50 49 49 49 50 51 51 50 50 49 48 49 48 47
54 54 54 55 54 54 53 53 53 53 53 53 53 53 53 52 52 51 50 50 49 50 51 50 50 50 49 49 48 48 49 50 50 50 49 49 49 49 48 48 47 48
55 54 55 54 53 52 52 52 52 52 52 51 50 50 50 50 50 49 49 48 48 49 49 48 47 48 48 48 49 49 49 49 49 51 50 50 49 48 48 48 48 48
54 55 54 54 53 52 52 52 51 51 51 50 50 48 49 49 49 49 49 49 48 49 47 46 46 46 47 48 48 48 48 49 49 50 49 48 49 48 49 49 49 49
54 54 54 53 53 52 51 51 50 50 50 49 48 49 48 48 48 49 49 48 48 49 48 47 47 46 48 48 47 47 47 49 48 49 49 48 47 48 48 48 47 47
54 54 53 53 53 53 52 51 51 50 50 48 49 50 50 47 48 48 47 48 48 48 48 47 48 48 48 47 46 46 47 47 49 48 48 48 48 48 47 47 46 47
53 53 52 53 53 53 52 52 52 51 51 49 49 50 50 49 48 46 47 47 47 47 47 48 49 48 48 48 48 48 48 48 48 48 48 47 48 47 46 45 45 45
52 52 52 52 52 52 52 51 51 51 51 50 49 48 50 50 49 47 46 46 47 46 47 48 49 48 48 48 49 48 48 48 48 48 47 47 47 46 49 45 46 44
52 52 53 52 51 51 51 51 51 50 51 50 50 49 50 50 49 49 46 45 45 46 48 49 48 47 46 48 49 48 47 47 47 47 47 46 46 47 47 46 45 44
54 53 55 53 51 50 50 50 50 50 51 50 52 51 51 50 48 49 49 45 45 47 49 49 48 47 47 49 50 49 47 46 46 47 48 47 46 46 46 46 44 45
58 57 56 54 53 51 51 50 49 50 51 51 52 51 51 49 47 48 49 47 47 47 49 49 48 48 48 49 50 49 48 48 48 49 49 47 46 46 46 46 46 46
57 57 57 56 56 54 53 52 51 51 52 52 52 52 52 50 48 48 48 48 48 48 48 49 49 49 50 50 50 50 50 49 49 50 50 49 47 47 48 48 49 48
56 56 56 56 56 55 55 54 54 54 54 53 53 53 52 49 48 49 47 47 47 48 48 48 48 49 51 48 48 49 50 49 50 49 49 51 51 50 50 51 52 50
56 56 56 56 55 55 55 56 55 54 54 54 53 53 53 52 52 51 50 46 47 47 47 48 49 49 46 44 43 45 49 49 50 50 49 51 51 51 51 52 51 51
56 56 56 55 56 55 54 54 54 54 54 53 53 53 52 52 53 52 52 51 49 48 47 48 48 47 44 42 42 42 46 50 51 51 50 51 51 52 52 52 52 51
47 48 49 51 52 52 53 54 54 54 53 53 53 54 52 52 52 52 53 53 52 51 49 49 49 46 44 43 42 41 41 46 50 51 52 52 53 53 52 52 52 52
38 40 42 44 45 45 45 45 46 47 51 53 54 54 52 52 52 52 52 52 52 51 52 51 50 45 42 42 42 41 40 42 50 52 52 52 53 53 53 52 52 52
37 38 39 41 43 43 43 43 44 44 44 47 50 52 52 53 52 51 51 51 52 50 50 51 52 45 42 42 41 40 40 42 50 52 53 53 52 52 52 52 52 52
37 38 38 38 38 39 39 40 41 42 42 43 43 45 47 49 49 49 50 50 50 50 50 50 51 43 42 42 43 43 42 49 51 52 53 52 52 52 51 51 51 52
38 38 38 37 37 37 37 38 38 38 38 41 39 40 42 44 45 47 49 50 49 48 49 50 50 47 42 42 43 42 45 50 51 51 51 52 52 52 52 52 51 51
38 39 37 38 37 37 37 37 38 37 37 39 38 38 38 40 42 44 46 48 49 51 50 49 50 48 45 43 42 42 46 51 51 51 52 51 51 50 50 51 51 51
37 38 39 37 37 37 38 37 37 38 38 38 38 38 39 40 41 41 42 43 46 48 52 51 51 50 46 43 43 42 44 49 50 50 50 50 51 51 50 50 50 51
38 38 38 37 37 37 37 38 38 37 37 37 37 37 37 37 37 38 39 40 42 44 47 49 50 51 49 44 43 43 42 48 49 49 49 49 50 50 50 48 48 49

ECMWFNIL_sfc_dewp_030.txt.gz
Dewpoint
54 54 54 54 54 55 54 54 54 54 54 54 54 54 55 55 56 54 55 55 56 57 57 58 58 58 59 58 59 59 59 58 58 58 58 57 57 57 58 57 58 58
53 54 54 53 54 54 54 55 54 54 54 54 54 55 55 55 55 54 54 55 56 56 57 57 57 57 57 58 58 58 57 56 55 56 56 56 56 57 58 57 57 57
53 53 53 53 54 54 54 54 54 54 54 54 54 54 55 55 52 51 52 54 55 54 55 55 56 56 56 56 55 55 53 52 52 52 55 54 54 56 56 56 56 56
53 53 52 53 54 54 54 54 54 54 54 54 54 54 54 54 52 52 53 55 53 53 53 54 54 54 53 52 52 51 51 51 50 51 51 51 52 52 52 53 52 52
53 52 53 53 54 55 55 54 54 53 53 53 53 54 54 51 51 50 51 51 51 51 52 52 52 51 51 51 50 51 51 51 50 50 50 50 50 50 50 51 50 50
52 53 54 54 55 55 54 54 53 53 52 52 53 53 51 50 50 49 50 50 50 50 50 50 50 50 50 50 50 50 50 49 49 49 48 49 48 49 48 49 49 49
53 54 54 54 54 54 54 53 53 53 53 52 52 51 50 49 49 48 49 50 50 51 49 49 49 49 50 50 50 50 50 50 49 49 48 49 50 49 49 49 49 48
54 53 53 53 53 53 53 53 52 52 51 51 51 50 49 48 48 49 49 49 48 47 47 48 48 48 49 49 50 50 50 50 49 48 48 48 49 48 48 48 48 48
53 53 53 53 53 52 52 52 52 51 51 50 50 49 50 49 48 48 48 48 47 47 47 47 48 48 48 49 49 49 49 49 49 49 48 48 48 48 46 47 48 48
53 52 52 52 52 52 52 51 51 50 50 49 49 49 48 49 48 47 47 47 47 47 47 47 48 48 47 48 48 49 49 49 48 48 48 48 48 47 46 46 47 47
52 53 52 52 52 51 51 51 50 50 50 49 49 48 48 48 49 47 46 46 47 46 47 47 48 47 47 47 48 48 48 49 48 48 48 48 47 47 49 46 47 47
54 54 53 52 52 51 51 50 50 50 49 49 49 48 48 48 47 48 47 46 46 47 47 47 48 47 47 47 48 48 48 48 49 48 48 48 47 48 48 47 47 46
55 55 54 53 52 51 51 50 50 50 49 49 50 49 48 48 47 47 49 46 46 47 48 48 47 47 47 47 48 48 48 48 48 48 47 48 47 47 48 47 47 47
55 55 54 53 53 52 51 50 50 50 50 50 50 49 49 48 47 47 48 47 46 47 48 50 47 46 47 48 48 48 48 47 48 48 48 47 47 47 47 47 47 47
55 55 55 54 52 51 51 50 50 51 51 51 51 51 51 50 49 48 47 47 46 47 47 49 48 47 47 49 49 47 47 47 47 48 48 47 46 46 46 47 47 47
54 54 54 54 54 53 53 53 52 52 51 51 51 51 51 50 49 49 48 47 47 47 48 49 49 48 50 48 48 48 47 46 48 48 48 48 48 47 47 47 48 48
52 52 52 52 52 52 52 53 53 53 53 53 52 51 51 50 48 48 47 47 47 47 46 48 48 49 45 44 43 45 47 48 48 48 49 49 48 47 47 47 48 48
45 45 44 44 44 45 46 47 47 47 49 50 52 52 52 52 52 52 51 49 47 47 47 47 47 46 42 42 42 42 43 48 48 48 49 49 49 49 48 48 48 48
40 40 40 40 39 40 40 41 41 42 43 44 46 48 48 48 49 50 50 51 51 51 50 50 50 43 40 40 40 41 41 44 47 49 48 49 49 49 50 50 49 49
39 38 39 38 39 39 39 38 38 39 41 42 43 43 44 44 44 45 46 47 49 50 50 51 50 44 41 40 40 40 40 41 46 47 49 49 49 49 50 50 51 50
39 39 39 38 37 38 38 36 37 38 38 39 39 40 41 41 42 43 44 44 45 47 47 48 47 41 40 40 40 40 40 42 45 46 47 48 49 50 50 50 51 51
39 40 40 40 38 39 40 39 36 37 39 39 38 38 39 39 40 41 41 42 43 44 45 45 45 39 39 39 40 41 43 49 48 47 47 48 49 49 50 51 52 52
40 40 40 40 40 39 38 37 36 36 39 41 39 37 37 38 39 39 40 40 41 42 42 43 43 40 38 38 39 40 44 48 49 50 49 49 49 50 51 51 51 52
39 39 39 39 39 39 40 40 40 38 37 37 38 39 39 37 38 37 38 39 39 40 42 41 42 40 37 37 37 39 42 46 48 49 50 50 51 51 51 51 52 50
38 38 39 39 39 41 40 39 40 40 39 39 38 38 38 37 37 36 36 36 38 39 40 40 40 40 37 36 36 37 41 45 47 47 48 48 50 51 51 51 51 50
39 39 40 39 37 37 37 38 39 40 41 41 39 37 36 36 36 35 35 35 36 37 38 38 39 39 38 36 36 37 38 43 45 45 45 46 47 48 49 50 51 51

ECMWFNIL_sfc_dewp_033.txt.gz
Dewpoint
63 63 63 63 63 63 62 62 62 62 62 62 60 61 60 62 61 62 63 63 63 64 64 62 63 64 64 65 65 64 62 62 62 63 63 63 63 63 63 62 63 62
62 63 62 63 62 62 62 63 62 62 62 62 62 61 62 61 61 62 63 63 63 64 64 64 64 64 64 63 63 64 63 63 63 61 64 63 63 63 63 64 63 63
61 62 62 62 62 62 62 62 62 62 61 61 62 62 61 61 61 61 63 63 63 63 64 64 64 64 64 64 64 64 63 63 63 62 63 62 63 63 63 63 63 63
61 62 61 62 62 62 62 61 61 61 61 60 61 62 61 60 60 61 62 62 63 63 63 63 64 63 62 62 63 62 62 62 62 63 63 62 63 62 63 63 63 62
60 60 60 61 61 61 61 60 60 60 60 61 61 60 59 59 59 59 61 61 62 61 62 62 62 62 62 61 61 61 60 59 59 61 60 60 61 61 62 62 62 62
59 58 58 59 60 60 60 60 59 59 60 60 61 59 59 58 57 58 59 60 60 60 60 60 60 59 59 60 60 60 59 57 56 57 57 57 56 58 57 60 61 61
58 58 59 59 60 60 60 60 59 59 59 60 58 58 57 57 57 57 57 58 58 58 59 59 58 58 58 58 58 57 56 55 53 53 52 53 55 56 55 58 58 58
58 58 59 59 60 60 60 58 59 59 59 58 59 56 55 53 54 57 57 56 56 56 57 56 56 55 55 56 54 55 55 55 54 52 52 52 54 52 54 54 57 55
58 58 57 59 59 59 59 57 58 58 57 58 57 55 55 54 55 55 55 55 54 55 54 54 53 53 55 56 56 55 52 54 55 54 54 54 54 52 49 51 53 54
57 57 58 58 59 59 59 58 57 57 56 57 55 54 52 54 54 53 53 53 53 52 53 53 53 53 53 53 52 53 52 51 52 54 54 55 53 50 48 51 54 55
57 57 58 58 59 58 59 58 57 56 56 54 55 54 53 52 51 52 52 51 54 50 50 51 52 52 52 53 55 56 55 54 52 51 54 54 54 53 53 52 53 54
57 57 56 56 56 57 57 57 56 56 55 55 53 53 54 53 51 49 46 46 48 49 49 49 49 50 49 50 52 54 55 56 55 53 53 52 53 53 51 53 54 52
57 57 57 56 55 55 55 54 55 56 54 53 54 54 53 52 52 50 51 48 48 50 49 50 48 48 51 53 52 52 53 53 54 54 54 54 52 51 51 52 52 52
58 58 57 57 56 55 55 55 53 54 54 55 53 53 53 51 50 51 52 49 51 50 52 52 51 49 50 50 50 52 53 53 53 54 53 54 54 52 53 51 52 52
57 57 57 57 57 58 56 55 55 55 54 53 54 55 56 53 52 51 51 50 49 51 50 53 54 54 51 52 51 51 50 53 53 50 52 52 52 52 53 52 51 52
55 55 56 57 57 57 57 57 56 57 56 56 55 55 55 55 54 53 51 51 49 50 53 54 53 53 48 45 46 50 52 48 54 54 51 51 51 52 53 53 52 52
49 48 48 49 50 50 50 51 52 54 55 55 56 56 57 56 55 53 52 51 50 50 51 54 53 49 40 40 42 44 51 53 53 54 54 54 52 52 52 52 53 51
47 44 43 43 43 43 44 45 46 47 48 49 51 52 53 55 56 56 56 56 56 54 54 52 48 41 39 40 40 40 43 54 53 52 53 53 54 52 50 51 52 54
42 40 40 40 40 42 43 43 42 43 44 45 46 48 49 49 50 52 53 54 53 49 47 46 45 39 39 40 40 40 40 47 50 53 52 52 53 52 52 52 54 54
41 40 40 40 40 40 41 41 42 42 43 44 44 45 46 46 47 48 49 50 50 47 45 44 42 39 38 40 40 40 42 48 53 55 55 53 53 53 55 54 54 54
40 40 40 41 41 41 41 40 41 42 41 41 42 42 43 43 44 45 46 47 47 47 45 43 41 37 37 38 39 41 43 49 57 57 56 56 56 56 55 55 55 56
42 41 41 40 40 40 41 42 41 41 41 41 41 40 41 41 42 43 44 44 45 46 45 42 40 36 36 37 37 39 43 50 52 54 55 55 56 56 56 56 56 56
41 41 42 41 41 42 42 42 41 41 40 41 40 39 39 38 39 39 40 42 43 44 45 43 41 37 36 36 36 37 43 46 49 47 49 51 52 53 54 55 56 55
43 40 40 40 40 41 42 43 44 42 43 41 39 39 38 38 38 38 38 39 41 42 43 43 42 39 36 36 36 37 41 44 44 45 47 47 48 51 51 51 54 51
41 42 39 39 39 40 41 41 44 44 45 43 43 40 40 39 38 37 38 39 40 41 41 42 42 41 37 36 36 36 40 43 41 41 43 45 45 44 47 49 50 51
40 41 43 42 41 40 40 40 41 42 42 44 45 44 43 42 41 41 39 38 38 39 41 42 41 41 39 36 36 36 37 42 42 41 41 42 42 41 42 45 46 47

ECMWFNIL_sfc_dewp_036.txt.gz
Dewpoint
62 62 61 61 60 61 61 60 59 59 59 58 58 58 58 60 60 60 60 60 62 62 62 63 65 65 64 64 65 62 63 65 64 64 64 65 64 64 64 64 63 62
63 62 61 60 60 60 60 60 60 59 59 59 59 59 60 60 60 59 59 59 61 61 62 61 62 64 65 64 64 64 63 64 65 62 65 65 64 63 64 64 63 63
62 62 61 60 60 61 60 60 60 59 58 59 60 59 59 60 59 59 59 59 58 60 62 62 62 62 61 63 64 64 63 64 63 63 64 63 63 63 63 62 62 63
62 61 60 60 60 60 60 59 59 59 59 59 58 58 58 59 59 58 58 58 58 60 61 61 62 61 59 59 62 64 63 64 63 63 63 63 62 63 62 63 62 62
62 61 60 59 58 59 59 59 59 58 58 58 59 58 58 58 58 57 57 57 57 57 59 59 60 60 60 60 60 61 63 61 63 63 62 63 63 63 63 62 63 62
62 60 59 58 59 59 59 58 57 58 58 58 58 57 57 57 56 56 56 56 56 56 57 58 58 60 60 59 60 60 62 61 62 63 61 60 59 60 59 61 63 62
62 61 60 59 59 59 59 58 58 58 57 58 56 57 57 56 55 55 54 55 54 55 57 58 59 59 59 60 59 60 58 58 58 58 55 54 56 58 57 60 61 60
62 62 60 59 60 59 58 58 58 58 59 57 58 57 56 54 54 55 54 54 54 54 56 55 57 57 58 58 56 58 58 58 57 54 53 53 56 55 58 59 62 60
62 61 59 60 59 58 58 56 58 59 57 58 57 57 56 55 54 53 54 54 54 54 54 54 55 56 57 56 55 54 52 53 54 54 54 54 55 53 50 53 55 57
61 60 60 59 58 58 58 58 58 58 57 57 56 55 53 55 53 50 53 54 54 53 53 53 53 55 54 52 50 50 49 49 52 53 52 52 50 47 45 48 51 52
61 60 59 58 58 57 59 59 58 57 57 56 56 55 53 53 51 50 51 52 54 51 50 51 52 52 53 53 54 53 49 49 48 49 52 50 50 49 52 49 51 52
61 60 59 59 59 59 59 58 57 57 56 56 53 52 52 51 50 48 46 48 49 48 49 48 48 50 50 51 52 53 53 52 50 49 49 48 48 47 47 50 51 50
59 60 60 61 61 61 60 57 56 57 55 53 52 52 51 49 48 47 48 48 48 49 49 48 47 47 50 51 50 50 52 52 53 52 51 51 49 48 47 48 49 49
58 59 58 58 58 58 57 58 56 55 53 52 51 49 48 46 45 47 49 48 49 48 48 48 46 45 47 49 48 50 51 51 53 53 51 51 52 50 50 49 49 50
58 58 58 57 56 57 57 56 56 55 53 51 50 50 50 47 47 46 46 46 46 48 47 50 53 55 52 51 50 46 46 48 51 51 52 51 51 50 50 48 47 49
57 57 57 57 56 56 56 57 57 56 54 52 51 50 51 50 49 49 46 46 46 50 53 57 56 55 47 42 42 51 48 43 48 51 51 50 49 49 50 49 48 49
54 54 54 54 56 56 57 57 57 57 56 56 56 55 54 53 52 51 51 50 49 53 54 55 54 48 41 39 39 40 53 53 51 50 49 50 50 51 50 50 50 47
51 51 51 52 53 52 52 51 53 54 55 54 55 56 57 57 56 54 54 55 55 53 54 52 49 40 38 40 40 39 40 54 51 51 51 52 51 50 48 49 49 51
50 49 48 49 50 49 49 48 48 49 50 51 53 54 55 56 56 56 54 52 51 49 47 45 44 38 38 39 40 39 40 46 49 50 50 50 51 50 51 51 53 53
49 48 49 48 49 47 47 46 46 46 47 48 50 51 52 53 53 52 51 49 48 46 44 42 42 38 37 37 38 39 39 43 52 54 54 52 52 52 53 53 53 51
46 45 46 46 45 44 44 44 44 45 45 45 47 48 48 48 49 49 50 49 47 45 44 42 42 37 36 36 37 38 38 42 57 58 55 56 57 58 58 58 57 58
46 46 44 42 41 40 40 41 43 43 43 43 43 43 44 45 46 47 47 47 48 47 45 42 41 36 36 36 36 37 38 52 55 55 56 57 57 58 58 58 58 59
47 45 43 43 45 42 40 41 42 43 42 41 41 41 41 41 43 43 44 44 45 46 46 43 41 38 36 36 36 36 44 49 51 50 51 53 54 54 54 56 57 52
46 44 44 43 42 43 44 46 45 43 43 43 41 39 39 40 40 41 42 42 42 44 45 45 43 38 36 36 36 36 39 47 44 46 49 48 49 51 51 51 54 51
46 46 45 45 44 43 44 44 44 45 46 46 44 43 43 42 41 40 41 42 42 43 43 44 44 41 36 36 36 36 40 45 40 40 43 45 44 44 47 47 51 52
44 42 44 44 42 41 42 44 44 45 45 46 46 46 43 44 44 44 42 44 44 43 43 43 43 43 39 36 36 36 36 42 43 39 41 41 41 39 38 41 44 50

ECMWFNIL_sfc_dewp_042.txt.gz
Dewpoint
64 64 63 64 64 63 63 62 62 63 63 63 63 62 63 64 63 64 64 64 65 64 65 66 64 65 66 65 65 63 64 64 63 64 63 63 63 63 63 64 63 64
64 64 62 63 64 64 66 64 63 63 62 63 63 63 63 64 65 64 63 63 63 63 64 65 67 65 64 64 65 65 64 64 63 63 64 62 63 63 63 63 64 63
65 64 62 64 63 64 64 64 64 63 63 63 63 63 63 65 65 65 64 64 61 62 64 64 64 66 64 64 65 65 65 65 63 64 63 63 64 63 63 63 62 62
64 64 64 63 64 62 64 64 64 64 63 63 63 63 62 64 65 64 64 61 64 62 64 64 63 62 62 63 65 65 64 63 64 63 63 63 63 63 62 62 62 62
63 63 63 64 63 63 63 62 62 62 62 63 63 62 62 63 63 63 63 63 63 61 62 63 62 63 62 62 63 64 65 64 62 63 63 62 62 62 62 62 62 62
61 60 61 62 62 63 62 61 60 61 61 61 62 61 62 61 61 60 61 60 62 61 61 61 61 61 62 61 62 63 63 63 63 63 63 61 61 62 61 62 62 61
61 61 62 61 61 62 61 61 61 60 60 61 60 61 61 62 61 59 59 60 57 59 57 60 60 62 63 62 61 62 63 63 61 60 60 62 61 61 61 62 61 61
61 61 60 60 61 61 60 60 60 61 61 59 60 59 58 56 58 62 61 60 57 56 60 57 58 59 61 62 59 61 63 62 62 61 61 62 62 60 61 62 62 61
60 58 58 60 61 61 60 58 60 60 59 60 59 60 61 59 58 60 59 58 57 58 55 58 59 59 62 62 61 59 59 60 62 61 61 59 60 59 59 61 61 62
59 58 58 59 60 60 60 60 60 59 59 58 56 59 56 60 56 54 58 59 57 56 56 58 58 59 59 57 56 58 58 58 58 59 58 58 57 55 58 60 60 60
59 59 58 59 59 60 60 61 60 59 59 56 58 58 57 57 57 55 57 55 59 55 54 56 57 58 58 57 58 59 58 57 57 57 58 57 57 56 59 58 59 60
60 59 59 59 59 60 60 60 59 58 58 58 55 56 56 58 56 54 50 50 52 51 52 52 53 55 54 55 57 58 58 59 58 57 57 56 56 56 55 57 57 58
58 59 59 60 60 60 60 59 58 59 57 56 57 55 57 59 57 57 58 50 51 55 52 52 51 51 52 56 57 57 56 57 57 58 56 58 56 57 52 54 54 56
59 59 59 59 60 60 59 58 58 58 58 57 56 55 56 56 56 57 57 55 54 54 55 52 49 48 48 49 50 55 58 56 56 58 56 55 57 53 55 55 56 55
61 60 59 59 58 59 59 59 58 58 58 56 56 57 57 53 56 54 56 52 54 55 53 53 52 49 46 45 48 50 54 58 58 55 57 56 53 53 53 55 54 51
61 59 59 58 58 58 57 58 57 57 56 54 53 53 54 54 54 56 52 53 55 52 52 52 49 47 43 41 43 48 55 55 59 57 56 56 56 56 54 56 52 50
59 59 60 59 57 57 57 56 54 56 52 52 53 53 55 54 54 52 52 54 53 52 50 48 44 41 39 38 40 41 51 56 58 57 57 57 55 55 56 55 53 50
60 59 60 59 58 56 56 58 58 57 56 55 56 55 55 56 56 54 53 53 52 50 48 46 43 39 37 38 38 38 42 52 56 56 58 57 53 55 53 53 52 54
60 59 57 57 56 56 57 57 57 57 57 57 57 58 57 56 55 53 51 50 49 46 44 42 40 37 36 37 37 37 37 45 53 55 57 55 54 54 52 54 56 56
57 56 55 54 54 55 55 55 55 56 57 57 56 56 55 54 53 52 50 49 47 43 41 40 39 38 36 36 36 36 37 40 54 57 55 55 55 54 56 56 56 55
52 52 51 51 52 52 52 52 53 54 54 55 55 54 53 52 51 50 49 47 45 43 41 40 39 36 35 35 35 35 36 42 56 57 58 57 56 57 56 58 56 57
50 50 50 49 49 49 49 49 50 50 51 53 53 53 52 51 50 49 48 46 45 43 41 38 38 35 35 35 35 35 38 51 57 57 56 56 58 57 57 57 56 57
50 49 49 50 50 49 48 49 49 49 49 49 49 49 49 49 50 51 49 47 44 42 40 38 37 36 35 35 35 35 39 48 51 55 54 56 56 57 54 52 53 55
47 47 47 47 48 48 49 49 50 51 50 49 47 46 45 46 45 45 45 47 46 44 42 41 39 37 35 35 35 35 38 45 47 50 53 53 56 54 49 46 46 49
47 47 47 47 47 47 48 48 48 49 50 49 47 45 45 43 43 43 45 45 46 46 48 44 40 38 35 35 35 35 39 46 45 42 42 43 42 43 48 45 41 41
47 46 46 46 46 47 48 48 48 49 49 50 50 50 47 47 45 45 45 45 45 45 46 46 41 37 37 35 35 35 38 44 40 37 37 39 40 39 43 47 44 41

ECMWFNIL_sfc_dewp_045.txt.gz
Dewpoint
63 63 62 61 61 61 61 61 61 61 61 61 62 62 62 62 63 63 63 63 63 63 63 64 63 63 63 62 62 63 63 63 62 62 62 61 61 61 62 61 60 61
62 62 62 62 61 61 61 61 61 61 62 62 62 61 62 61 62 62 62 63 63 63 63 63 63 63 63 62 62 62 63 62 62 63 61 60 60 61 61 61 61 61
62 61 61 62 62 61 61 61 61 61 61 61 61 60 61 61 61 61 61 61 62 63 63 63 62 63 63 63 62 62 62 62 61 62 61 61 61 61 61 61 61 61
61 60 61 62 62 62 61 61 61 61 61 60 60 60 60 60 60 60 60 63 60 61 62 62 62 62 62 62 61 61 61 62 62 61 61 61 61 60 60 60 60 59
61 60 61 62 61 61 61 60 60 60 60 60 59 59 59 58 58 58 59 60 60 60 61 62 62 62 62 62 62 61 61 61 61 61 60 60 60 60 59 60 59 60
61 61 61 60 61 61 60 59 60 60 59 59 59 59 59 58 58 58 58 58 59 59 60 60 61 61 62 61 61 61 61 60 61 61 60 60 60 60 61 60 60 60
60 60 59 60 60 60 59 59 59 59 58 59 59 58 58 58 58 58 57 57 58 59 59 59 59 60 61 60 60 60 60 60 60 61 61 59 59 60 61 61 61 61
59 59 59 60 60 59 59 59 57 58 58 58 57 57 58 57 56 57 57 57 57 57 58 59 59 59 60 61 61 60 60 61 60 61 60 59 58 59 60 61 61 60
60 59 59 59 59 59 58 57 57 57 58 56 55 56 57 56 55 55 55 56 55 56 57 58 58 58 59 60 61 60 60 60 60 60 59 59 59 59 60 61 60 60
59 59 59 59 58 58 57 57 57 57 57 55 56 57 56 53 53 53 55 54 55 56 57 57 57 57 57 59 59 60 60 60 60 60 59 59 59 59 60 61 60 59
58 58 58 58 58 57 57 56 57 56 55 55 56 56 53 52 53 54 55 54 55 54 56 56 56 56 56 57 57 58 58 59 60 60 59 58 59 58 61 60 59 59
58 57 58 58 57 57 56 56 56 55 55 55 55 52 51 52 52 52 53 54 54 54 55 54 54 55 55 55 55 56 56 56 57 58 57 56 57 58 59 59 59 59
59 57 57 58 58 57 57 56 56 56 54 54 53 51 51 52 51 51 52 51 50 50 50 49 48 48 49 51 53 55 55 55 54 55 55 56 56 58 59 59 59 59
59 59 58 58 58 57 56 56 56 55 54 54 51 51 53 51 51 53 52 52 50 49 49 48 46 45 45 47 50 54 55 54 54 53 53 54 55 56 57 57 58 57
59 59 59 58 58 57 56 56 56 56 54 51 51 52 53 51 52 53 51 50 50 48 47 47 45 45 44 44 47 52 54 54 53 53 50 50 51 53 55 56 56 57
59 58 58 59 58 57 56 56 56 54 52 51 52 51 49 51 53 52 50 48 46 45 44 44 43 43 42 41 42 47 54 55 54 53 53 52 51 51 51 52 53 53
58 58 58 58 58 58 56 56 54 52 51 51 50 50 53 53 53 51 50 47 45 43 41 41 41 41 39 38 38 41 50 53 55 53 53 52 51 50 49 48 48 48
57 58 58 58 58 57 57 55 52 50 50 50 52 53 53 52 50 49 47 45 43 40 39 39 38 39 37 38 38 38 42 50 53 54 53 54 52 52 49 47 47 50
58 58 57 57 57 57 57 56 54 53 53 54 53 52 50 49 48 45 43 41 39 37 36 36 36 37 36 37 37 38 38 47 54 54 53 52 52 52 51 51 53 53
57 57 56 56 57 56 56 57 56 54 54 53 52 50 48 47 45 43 41 39 37 36 35 35 35 37 36 36 37 38 39 46 54 53 53 53 53 54 55 55 54 52
53 54 54 54 55 54 55 54 54 53 52 51 50 49 47 45 43 42 41 40 37 35 34 34 36 36 35 36 37 39 42 47 54 55 54 54 56 56 56 55 52 47
48 50 50 50 50 50 50 50 51 51 50 49 48 48 47 45 44 42 40 38 37 35 33 33 34 35 35 37 38 39 43 47 51 54 53 52 51 52 54 52 45 40
47 47 48 48 48 48 48 48 48 48 48 48 47 47 47 46 44 41 40 39 38 36 34 33 33 35 36 38 39 40 43 46 47 49 49 46 44 43 44 44 42 39
46 47 46 47 47 47 47 48 48 48 47 46 45 45 45 45 45 45 44 42 40 38 35 33 33 36 36 37 38 38 40 41 41 43 44 43 41 40 39 40 43 44
46 46 46 47 47 47 48 47 47 48 48 48 47 46 45 45 45 44 44 44 43 39 39 34 34 36 36 36 36 37 38 37 38 40 41 43 43 41 40 38 37 39
46 46 46 46 46 47 48 48 48 48 48 48 48 48 47 47 46 45 44 44 43 39 37 35 35 35 36 36 36 36 36 37 38 39 39 41 44 43 41 39 38 37

ECMWFNIL_sfc_dewp_048.txt.gz
Dewpoint
62 62 62 61 61 61 61 60 60 60 60 60 60 61 62 62 61 62 62 62 62 62 62 61 61 62 62 62 61 62 62 61 61 61 60 60 60 60 60 59 59 59
62 62 62 61 60 60 60 61 60 60 60 59 60 61 61 62 61 62 62 62 62 61 61 61 61 61 61 61 61 61 61 62 61 62 60 60 60 60 60 60 59 59
61 61 61 60 60 60 60 60 60 60 60 60 61 61 61 62 62 62 62 62 62 61 61 61 61 61 61 60 60 61 61 61 61 61 61 60 60 60 60 60 59 59
61 61 61 61 61 60 60 60 60 60 60 60 61 61 61 61 61 62 62 63 62 61 61 61 61 61 61 60 60 60 61 61 61 60 60 59 60 60 60 60 59 59
60 60 61 61 61 61 60 60 60 60 61 61 60 60 60 60 60 61 62 62 62 62 61 61 61 61 61 60 59 60 60 60 60 60 59 59 59 60 60 60 59 59
60 60 61 61 61 61 60 60 60 60 60 59 59 59 59 59 59 60 60 61 62 61 61 61 61 60 60 60 59 59 60 59 59 59 59 59 59 59 60 60 59 59
60 61 60 60 60 61 60 60 60 60 59 59 58 57 57 57 58 59 60 60 61 61 61 60 60 60 60 60 59 59 59 59 59 59 59 58 59 59 59 59 59 59
60 60 60 60 60 60 60 60 59 59 58 58 57 57 57 56 57 58 59 59 60 60 60 60 60 60 60 59 59 59 59 59 59 59 58 58 58 58 58 59 58 58
60 60 60 60 60 59 59 59 58 58 58 57 57 57 57 56 57 57 58 58 59 59 60 60 60 60 59 59 59 59 59 59 59 59 58 58 58 58 59 59 59 59
59 60 60 60 60 59 59 58 58 58 57 57 57 57 56 56 56 56 57 57 57 58 58 59 59 59 59 59 59 59 59 59 59 59 58 58 58 58 59 59 59 59
59 60 59 59 59 59 58 57 57 57 56 56 56 56 55 54 54 55 55 56 56 57 57 57 58 59 59 59 59 59 59 59 59 59 58 58 58 58 60 59 59 59
59 59 59 59 59 59 58 58 57 56 55 56 56 54 53 53 54 54 55 55 56 57 57 56 55 57 59 59 59 59 59 59 59 59 59 58 58 58 59 59 59 59
58 58 59 59 59 58 59 58 56 55 55 55 55 52 52 52 53 53 54 53 52 51 51 50 50 51 52 53 56 58 58 59 59 58 58 57 58 58 59 60 59 59
58 58 59 59 59 59 58 58 56 55 55 54 52 51 52 52 52 52 51 50 49 48 48 48 47 47 48 50 53 55 55 56 58 58 57 56 56 57 58 59 59 59
57 58 58 59 59 59 58 58 56 54 54 52 51 52 53 52 51 50 49 47 47 47 46 46 46 45 45 46 50 53 53 53 54 55 55 55 56 57 57 58 57 57
57 57 57 58 58 58 58 58 55 54 52 51 52 52 51 50 49 48 47 46 45 44 44 44 43 44 43 42 44 50 53 52 52 52 53 54 56 56 56 55 55 54
57 57 57 57 58 58 58 57 56 53 51 51 51 51 50 49 47 46 45 44 43 42 41 41 41 41 39 38 40 47 52 52 52 51 52 53 54 55 54 50 49 50
57 57 57 56 57 57 57 56 55 54 51 51 51 50 49 47 45 44 43 42 41 40 39 39 39 39 37 38 39 43 49 53 52 52 52 52 52 51 49 50 52 51
56 57 57 57 56 56 57 56 55 55 53 52 50 49 47 44 43 41 40 40 39 37 37 37 38 38 37 39 40 43 47 50 52 52 51 51 49 48 50 51 50 48
51 57 57 57 56 55 56 55 55 54 53 51 48 45 43 41 40 38 38 37 37 36 36 37 38 39 38 39 42 44 46 49 54 54 54 52 52 53 52 49 47 44
48 49 51 55 55 55 55 54 54 52 49 48 44 42 40 39 38 37 37 36 35 36 36 37 38 38 38 39 42 45 47 50 54 54 53 52 49 46 43 41 39 38
47 48 48 48 50 51 51 51 50 49 48 47 45 41 39 38 37 36 35 35 35 35 37 37 37 37 38 40 43 46 47 51 51 49 47 45 43 41 39 38 38 36
46 47 47 47 47 48 48 48 48 47 48 46 45 42 39 38 38 38 37 35 35 34 34 35 36 37 37 40 43 45 46 48 45 43 41 41 41 41 40 39 38 36
46 46 46 46 47 47 47 47 47 47 47 46 45 45 43 41 39 38 37 36 35 35 35 34 35 37 36 38 40 43 45 45 43 41 39 38 38 38 39 40 42 43
46 45 45 45 46 46 47 47 47 47 47 47 46 45 43 41 39 37 36 36 36 37 40 36 36 37 37 36 38 41 44 44 42 41 39 38 38 37 37 37 37 39
45 45 45 45 45 45 46 47 47 47 46 46 46 45 44 42 38 37 37 37 38 38 39 38 37 37 37 37 37 38 41 44 43 41 40 39 38 37 38 37 37 37

ECMWFNIL_sfc_dewp_051.txt.gz
Dewpoint
62 61 62 62 62 62 62 62 62 62 62 62 62 62 62 62 61 61 62 61 61 61 61 61 61 61 61 61 61 61 61 60 60 60 60 60 60 60 60 59 58 58
61 62 62 61 61 61 62 62 62 62 61 62 62 61 61 61 61 61 61 61 61 61 61 61 61 61 61 61 61 61 61 61 60 61 60 60 60 60 60 59 59 58
60 60 61 61 61 60 61 61 61 61 61 60 60 60 61 61 60 61 61 61 61 61 61 61 60 60 60 61 61 61 61 61 61 60 60 60 59 60 60 59 58 58
60 60 60 60 60 60 60 60 59 60 59 59 59 60 61 61 60 60 61 62 61 61 60 60 60 60 61 61 61 60 60 62 62 61 60 59 59 60 59 59 58 58
60 60 59 60 61 60 60 60 60 60 59 59 59 60 61 61 60 60 60 61 61 60 60 60 60 60 61 61 60 60 60 61 61 61 60 59 58 59 59 59 58 58
60 60 60 60 60 60 60 60 60 59 60 59 60 60 60 61 61 61 61 60 60 60 59 59 60 60 60 60 60 60 60 61 61 61 60 59 59 58 59 59 59 58
59 60 60 60 60 60 60 60 60 60 60 60 60 60 60 60 60 61 61 60 60 60 60 59 60 59 59 59 59 59 60 61 60 60 60 58 59 59 59 59 59 58
59 59 59 60 59 60 60 60 60 59 59 59 59 59 60 60 60 60 60 60 60 60 59 59 59 59 58 58 59 59 60 60 60 60 59 58 59 60 60 60 58 58
59 59 59 59 59 59 59 60 60 60 60 59 59 58 58 59 59 59 60 60 60 59 59 58 59 59 58 58 58 59 59 60 60 59 58 58 58 59 60 59 58 58
59 59 59 59 58 59 59 59 59 59 59 59 58 58 57 57 58 59 59 60 60 59 58 58 58 58 58 58 58 58 59 59 59 58 58 58 58 58 59 59 58 58
58 59 58 58 58 59 58 59 59 59 59 59 58 57 56 56 57 58 58 59 59 59 58 58 58 58 58 58 58 58 58 58 58 58 58 58 58 58 59 58 58 58
59 58 58 58 58 58 58 59 59 58 59 58 58 57 56 56 56 56 58 58 58 58 58 58 58 58 58 58 58 58 57 58 58 58 58 58 57 57 58 58 58 58
58 58 58 58 58 58 58 58 58 58 58 58 58 56 55 54 55 55 56 57 57 57 57 56 57 57 58 57 58 58 58 57 57 57 57 57 57 57 58 58 58 59
58 58 58 58 58 58 58 58 58 58 58 57 57 55 53 53 54 54 54 54 53 53 51 51 52 53 54 56 57 58 57 57 57 57 57 56 56 57 57 58 58 58
57 58 58 57 58 58 58 58 58 58 57 57 55 53 53 53 53 53 51 50 49 48 48 48 48 48 49 52 55 56 57 57 57 57 57 56 56 56 56 56 56 56
56 56 57 58 58 58 58 58 57 57 57 56 54 52 52 52 51 51 50 49 47 46 45 45 45 44 46 45 49 55 55 56 56 56 56 56 55 55 54 53 53 53
53 56 57 57 57 57 57 57 57 56 56 55 53 52 52 51 50 49 48 47 46 45 43 43 42 42 40 39 42 46 53 54 55 55 55 55 55 55 53 51 50 50
51 54 57 56 56 56 56 56 56 55 54 53 52 51 50 49 48 47 45 44 44 42 41 41 40 41 38 39 40 45 49 52 52 53 54 54 54 53 51 51 50 49
50 52 55 56 56 56 56 55 54 53 52 52 51 49 47 46 45 44 43 42 42 40 39 40 40 40 38 40 41 45 46 49 51 52 52 52 51 51 51 49 47 47
48 49 49 51 56 56 56 54 53 53 51 50 48 46 44 42 41 40 40 40 40 39 39 40 41 40 38 41 44 43 46 48 51 51 51 51 51 50 48 46 46 46
47 47 48 48 49 53 54 53 52 50 48 48 46 44 40 39 38 38 38 38 38 40 40 39 39 38 39 43 43 45 46 48 51 48 44 42 41 41 40 41 41 42
46 46 47 47 47 48 50 51 50 48 46 45 44 44 42 38 37 37 36 37 37 38 38 37 39 38 41 44 43 44 45 48 45 43 41 39 39 38 37 37 36 36
46 46 46 46 47 46 46 46 47 46 45 45 43 43 42 40 37 36 37 36 37 37 37 38 39 38 38 41 42 42 43 44 42 41 40 39 39 39 38 37 36 34
45 45 46 46 46 46 46 46 46 46 45 45 42 42 41 41 40 38 38 39 38 38 38 38 38 38 38 38 39 39 42 42 41 39 38 38 37 37 38 39 42 42
44 44 45 45 45 46 46 45 45 45 45 44 43 42 42 42 42 41 41 41 40 40 42 38 38 39 37 37 38 39 42 41 39 38 37 36 36 36 36 37 37 39
44 44 44 45 45 45 45 45 45 44 44 43 43 43 42 42 42 42 40 40 40 40 40 40 39 38 38 37 38 38 40 43 41 38 37 36 36 36 36 37 37 38

ECMWFNIL_sfc_dewp_054.txt.gz
Dewpoint
60 60 60 60 61 61 62 62 62 62 62 62 62 63 63 63 63 63 63 63 63 63 63 63 62 62 62 62 61 61 61 61 61 62 62 62 61 60 60 60 60 60
60 60 61 61 61 61 62 62 61 62 62 62 63 63 63 63 63 63 62 62 62 62 62 62 62 62 62 62 61 61 61 61 60 61 61 61 61 61 60 60 60 60
60 60 61 61 61 61 61 61 62 62 62 62 63 63 62 62 61 62 62 62 62 62 61 61 61 61 62 61 61 62 61 61 61 61 61 61 61 61 61 60 60 59
60 60 60 61 61 61 61 61 61 62 62 62 62 62 62 62 61 61 61 63 61 61 61 61 61 61 61 61 62 62 62 62 62 61 61 61 61 61 60 60 60 59
60 60 60 60 60 60 60 61 61 61 61 61 61 61 61 61 61 61 60 61 61 61 61 61 61 61 61 61 62 62 61 62 62 61 61 60 60 60 60 60 60 60
60 60 60 60 60 60 60 60 61 61 61 61 60 60 60 61 60 60 60 60 60 61 60 60 60 60 61 61 61 61 61 62 62 61 61 60 60 60 60 60 60 59
60 60 60 60 60 60 61 61 61 60 60 60 60 60 60 60 60 60 60 60 60 60 60 60 60 60 61 61 61 61 61 62 62 61 61 61 60 60 60 60 60 59
59 59 59 59 60 60 60 60 60 60 60 60 59 60 60 60 60 60 60 60 60 60 60 60 60 60 61 61 60 60 61 61 61 61 61 60 60 60 60 60 60 59
59 58 58 59 59 60 60 60 60 60 60 60 59 59 59 60 60 60 60 60 60 60 60 60 60 60 60 60 60 60 60 61 61 61 61 60 60 60 60 60 60 59
59 59 59 59 59 59 59 59 59 59 60 60 59 58 59 58 59 59 60 60 60 59 60 60 60 60 60 60 60 60 60 61 61 61 61 60 60 60 60 60 60 60
58 59 59 59 59 58 59 59 59 59 59 59 58 58 58 57 57 58 59 60 60 59 59 59 60 60 59 59 59 60 60 61 61 61 60 60 60 60 61 61 61 60
57 58 58 58 58 58 58 59 59 59 59 59 58 57 57 57 57 57 59 59 60 59 59 59 59 59 59 59 59 59 60 60 60 60 60 60 59 60 60 61 61 60
53 56 59 58 58 58 58 58 58 58 58 58 58 57 56 56 56 57 58 59 59 59 59 59 59 59 59 58 58 58 59 59 59 59 59 59 59 59 59 60 60 60
51 53 57 58 58 58 58 58 58 58 58 58 58 57 56 56 56 56 57 58 58 58 58 58 58 57 57 57 58 58 58 58 59 59 59 59 58 58 58 59 59 59
50 52 55 58 58 58 57 57 58 58 58 57 57 57 56 56 56 56 56 55 54 54 53 54 55 56 57 57 58 58 58 58 58 58 58 58 58 58 58 58 58 59
49 50 52 55 57 57 57 57 57 57 57 57 57 56 55 55 54 55 54 54 52 50 49 50 50 50 51 51 53 57 58 58 58 58 58 58 57 57 57 58 58 57
48 49 50 52 55 57 57 56 57 57 56 56 55 54 54 54 53 53 53 52 51 50 48 47 45 44 42 41 42 47 56 57 57 57 57 57 57 57 56 56 53 53
47 48 49 50 51 53 56 56 56 56 55 54 53 53 52 52 52 51 50 50 49 48 48 45 43 42 38 39 40 41 46 56 57 57 57 56 56 56 55 54 52 51
46 47 48 49 49 51 54 56 56 55 54 53 52 51 50 49 47 47 46 45 46 45 43 43 43 41 38 39 41 41 42 49 54 55 56 56 55 54 53 52 51 50
45 46 47 47 48 50 52 54 55 53 51 50 49 48 46 44 43 42 42 43 42 42 42 42 42 41 39 42 43 43 43 48 52 53 53 53 52 51 50 50 50 50
44 45 46 46 47 47 48 48 48 48 47 46 45 43 42 41 40 40 41 41 41 42 41 42 43 40 40 41 41 43 44 46 50 48 46 45 45 45 46 47 48 48
44 44 45 45 46 45 46 46 46 45 45 45 44 43 41 39 39 39 39 39 39 41 42 42 42 39 40 42 42 42 43 46 45 44 43 41 41 40 40 41 42 45
43 44 44 45 44 44 43 44 43 43 43 44 43 43 42 42 40 40 40 40 40 40 41 41 40 39 38 39 40 41 42 44 43 41 40 40 40 40 39 39 39 39
43 43 44 44 43 43 43 43 43 43 43 44 42 42 42 42 43 42 42 42 41 41 41 40 40 39 38 38 39 40 42 43 42 40 39 39 39 39 40 42 43 42
43 43 44 44 44 43 43 43 43 43 44 44 43 43 43 43 43 42 42 42 42 41 42 40 40 40 38 38 39 39 41 41 40 38 37 37 36 37 37 37 37 40
42 43 43 44 44 44 44 44 44 43 43 43 43 43 43 43 43 42 41 41 42 41 41 40 39 39 39 38 39 39 40 40 40 37 37 36 36 35 36 37 38 38

ECMWFNIL_sfc_dewp_057.txt.gz
Dewpoint
62 62 63 62 62 62 63 63 62 62 62 62 62 62 62 63 64 64 64 64 64 65 65 65 64 64 63 64 64 63 64 64 64 64 63 63 63 63 62 62 63 63
62 62 62 61 61 62 63 63 62 62 62 62 62 62 63 64 64 65 63 63 63 63 64 65 64 63 63 64 64 64 64 64 63 63 64 63 63 63 62 63 62 63
61 61 61 61 62 62 62 63 62 62 62 62 63 63 63 64 64 64 64 63 62 64 64 64 64 64 64 64 64 64 64 63 63 63 63 63 63 63 62 63 63 62
61 61 61 61 62 61 62 62 62 62 62 62 62 62 63 63 63 63 63 63 62 63 64 64 64 64 64 64 64 63 63 64 63 63 63 63 63 63 63 62 63 62
61 61 61 61 62 62 62 61 61 62 62 62 62 62 63 63 63 63 63 63 63 63 64 64 63 63 63 62 62 63 63 63 64 63 62 63 63 63 63 62 62 62
60 61 61 61 61 62 62 61 61 62 62 62 62 63 63 63 62 62 63 63 63 63 63 63 63 63 63 62 62 62 63 63 63 62 62 61 62 62 61 62 62 61
58 60 62 61 62 61 62 62 62 62 62 62 62 62 62 62 62 62 62 62 62 63 62 63 62 62 62 62 62 62 62 62 62 62 61 62 61 61 61 62 62 61
57 60 60 61 61 61 61 61 61 61 61 62 62 62 62 61 61 62 62 62 62 62 62 62 62 61 62 62 61 62 62 62 62 61 61 61 62 61 61 61 63 61
55 57 60 61 61 61 60 61 62 62 62 62 62 62 62 62 62 62 62 62 62 62 62 62 62 62 62 62 61 61 61 62 62 62 61 61 61 61 61 61 62 62
53 55 57 59 60 61 61 61 62 62 63 62 62 62 62 62 62 62 62 62 62 62 61 61 61 61 62 61 61 61 61 61 61 61 61 61 61 61 60 61 61 61
51 53 54 56 58 61 61 61 62 61 61 61 62 62 61 62 61 61 61 61 62 61 61 61 61 61 61 61 61 61 61 61 61 61 61 61 61 61 61 61 61 61
50 51 52 54 56 59 60 60 61 61 61 61 61 60 61 61 61 61 61 61 61 61 62 61 61 61 61 61 61 61 61 61 61 61 61 61 61 61 61 61 61 61
49 50 52 53 56 58 60 60 60 61 61 61 61 61 60 60 60 60 61 61 61 62 61 62 61 61 61 61 61 61 61 61 61 61 61 61 61 61 61 61 61 61
48 49 51 52 55 57 59 60 60 61 61 61 61 60 60 59 59 60 60 61 62 62 63 61 61 61 61 61 61 61 61 61 61 61 61 61 61 61 61 61 62 61
47 48 49 50 52 55 57 59 60 61 61 61 60 60 60 59 59 59 59 60 61 61 61 61 62 62 61 61 61 60 60 61 60 60 60 60 60 60 61 61 62 61
46 47 47 49 50 51 54 57 59 60 60 60 60 59 59 59 58 58 58 59 60 60 61 61 62 63 58 55 56 60 61 60 61 60 60 60 60 60 60 60 61 61
45 46 46 47 48 50 52 55 57 59 59 59 59 59 60 58 58 57 58 59 59 59 60 61 61 59 49 48 49 53 59 61 61 60 60 60 60 60 60 60 60 60
44 45 45 46 46 47 49 50 54 56 57 57 57 57 56 57 58 57 57 58 58 58 58 57 55 43 42 45 46 47 52 61 61 61 60 60 60 60 59 59 59 60
44 44 44 44 44 45 46 46 48 48 49 50 50 51 53 52 52 54 53 54 56 55 54 52 51 39 38 40 41 42 44 53 60 60 59 60 60 60 59 59 59 59
43 43 43 43 44 44 44 44 44 45 46 46 47 47 46 46 47 48 48 49 50 51 51 50 51 43 39 39 40 40 40 47 59 60 60 60 59 58 59 58 59 59
43 43 43 43 43 43 43 43 43 44 44 44 44 45 44 43 43 44 46 46 46 48 50 50 49 39 39 40 40 40 40 45 59 60 60 60 60 59 60 60 59 59
43 43 43 42 42 42 43 43 43 43 43 44 44 44 44 45 44 44 44 45 46 46 48 47 46 38 39 39 40 40 42 55 57 58 57 56 56 56 57 57 57 58
43 43 43 42 42 42 42 43 43 43 44 44 43 44 44 44 43 44 44 44 44 44 44 44 44 40 38 41 41 42 47 54 55 53 53 52 51 51 51 52 53 54
43 43 42 42 42 42 42 43 43 43 44 44 43 43 43 43 44 44 44 43 43 43 42 44 43 41 38 39 41 43 47 51 51 50 50 49 48 48 48 48 47 47
43 43 43 42 42 42 43 43 43 43 43 44 44 43 43 43 43 43 43 43 43 42 42 42 41 41 38 38 39 40 46 48 47 46 47 46 45 44 44 45 44 42
42 43 43 43 43 43 43 43 43 43 43 43 43 43 43 43 43 42 42 42 43 43 42 41 42 42 40 37 38 38 39 45 45 44 44 43 43 42 43 43 43 42

ECMWFNIL_sfc_dewp_060.txt.gz
Dewpoint
61 61 61 62 62 62 62 63 62 62 63 63 63 63 63 64 64 65 65 64 64 65 65 65 65 66 65 64 64 64 65 64 63 64 63 64 64 64 64 64 66 64
62 62 62 61 61 61 62 62 62 62 63 63 63 63 63 63 64 65 64 63 63 64 65 65 64 64 64 63 65 65 64 64 65 64 63 63 64 63 63 65 65 65
61 61 62 62 62 62 62 62 63 63 62 63 63 63 63 63 64 64 64 63 63 64 64 64 65 63 64 65 65 65 65 64 64 63 64 63 64 61 64 64 64 65
59 60 61 62 62 62 62 62 63 62 62 62 62 63 63 63 63 63 64 64 63 64 64 65 65 64 63 64 65 64 63 63 63 63 63 63 63 63 64 65 64 63
57 58 59 60 61 62 62 61 61 62 62 62 63 63 64 63 63 63 63 63 63 63 64 64 64 64 64 64 64 64 64 63 63 63 63 63 64 63 64 63 63 62
55 55 57 59 61 61 61 61 60 61 62 62 63 64 63 63 63 62 62 62 62 62 63 63 63 64 64 63 64 64 64 63 63 63 62 63 63 63 62 62 62 62
54 55 56 57 59 61 62 61 61 61 61 63 63 64 62 62 63 62 61 62 62 63 62 63 64 64 63 63 63 63 63 63 62 62 62 62 62 63 62 63 61 61
53 54 54 56 58 59 61 61 61 61 61 61 62 61 62 61 62 62 62 62 62 62 62 62 63 62 62 62 62 63 63 63 63 62 62 61 62 62 62 62 63 62
52 52 53 55 57 58 59 60 61 61 61 62 63 63 62 62 63 62 62 62 61 62 62 61 61 61 63 63 63 63 62 63 63 63 63 62 62 62 61 61 62 62
51 51 52 53 54 56 58 59 61 61 61 63 63 63 63 63 62 62 62 63 62 62 62 61 61 61 62 62 62 62 62 62 62 62 62 62 62 61 60 61 61 62
51 51 51 52 52 54 56 58 60 61 62 61 62 62 62 62 62 62 62 62 62 60 60 60 61 62 62 62 63 63 62 62 62 62 62 62 62 61 62 61 61 62
50 50 50 51 51 52 54 56 59 61 62 61 61 61 61 63 61 62 61 62 61 60 60 61 61 62 62 62 62 62 63 63 62 62 62 61 62 62 61 61 62 61
48 49 49 50 50 51 53 55 58 61 61 60 61 61 60 62 63 62 63 62 60 61 61 61 61 62 63 63 62 61 61 61 62 62 62 62 62 61 61 61 61 61
47 48 49 49 49 50 51 53 56 59 60 61 61 60 61 62 62 62 62 62 61 62 61 62 62 61 61 62 61 61 62 62 62 62 61 62 63 62 62 62 62 62
47 47 48 48 48 48 49 50 53 56 60 61 61 61 62 62 62 62 61 60 60 62 60 61 61 61 60 62 61 60 60 60 62 61 62 61 61 61 62 61 62 62
45 46 46 47 47 47 47 48 49 52 54 57 61 62 60 62 61 60 59 60 60 61 61 62 63 61 59 55 56 59 60 59 61 61 61 61 61 60 61 61 61 62
44 45 45 45 46 46 47 46 46 48 50 51 53 54 57 60 61 60 60 60 59 59 60 62 62 61 52 51 52 53 58 61 61 60 61 61 60 60 60 60 61 60
44 44 44 44 45 45 45 45 46 46 47 48 50 51 53 54 54 55 56 56 58 59 61 62 62 42 45 48 49 48 51 62 61 61 60 60 60 59 59 60 60 61
43 43 43 43 44 44 45 45 45 45 45 46 48 48 50 50 51 52 52 53 53 54 57 59 57 39 39 39 42 42 43 50 59 60 60 60 61 60 60 60 60 61
43 43 43 43 44 44 44 44 44 44 45 46 47 47 47 48 49 50 50 50 51 51 53 55 54 41 39 39 39 39 40 44 60 59 60 60 61 60 61 61 61 61
43 43 43 43 43 43 44 43 44 44 44 45 45 46 46 46 46 48 48 48 48 49 50 53 50 39 38 38 39 39 39 40 58 59 59 60 60 62 62 61 61 61
42 42 43 43 43 43 43 43 44 44 44 44 45 45 46 46 45 45 46 46 47 47 47 48 47 39 38 38 38 39 39 48 56 59 58 58 58 61 61 61 61 61
42 42 42 42 43 43 42 43 43 43 43 43 43 44 44 44 45 45 45 45 45 45 45 47 46 41 38 37 37 39 40 50 54 57 57 57 58 59 58 61 61 61
41 41 41 42 42 42 43 43 43 43 43 43 43 42 42 42 43 43 44 45 45 44 44 45 45 42 38 37 37 37 40 50 54 57 56 57 57 58 58 57 53 47
40 40 41 41 42 42 43 43 43 43 43 43 42 42 42 41 41 42 43 43 44 44 43 44 44 44 39 37 38 38 44 48 51 54 55 56 55 55 55 54 52 47
39 40 41 40 40 42 43 43 43 43 43 43 42 41 41 41 41 41 41 42 42 43 43 43 43 44 41 37 38 38 39 47 48 50 52 52 52 52 52 51 49 47

ECMWFNIL_sfc_dewp_063.txt.gz
Dewpoint
60 61 61 61 62 62 61 62 62 62 62 62 63 63 63 64 64 64 65 65 64 64 64 65 63 63 64 64 64 64 62 63 63 63 63 63 64 63 63 64 64 64
59 59 59 60 61 62 63 63 63 62 62 63 63 64 64 64 65 64 65 66 64 64 65 66 64 63 64 64 65 65 63 64 64 64 64 63 64 63 63 63 63 64
58 59 59 59 59 60 62 63 63 63 63 63 64 64 65 65 65 62 64 65 65 65 64 65 64 65 65 65 65 63 64 64 63 63 62 62 62 64 64 64 63 64
57 58 58 59 60 60 61 62 63 63 62 62 63 63 63 64 65 64 63 64 64 65 65 64 64 64 64 64 64 64 64 64 63 63 63 63 64 63 64 64 63 65
56 57 57 58 58 59 60 61 61 62 62 62 63 63 63 63 64 64 64 62 63 64 64 63 64 64 64 64 65 65 64 65 64 63 63 63 64 63 62 63 63 62
55 55 55 56 57 58 59 59 59 61 61 62 62 62 62 63 63 63 63 62 64 65 64 63 63 64 64 64 64 64 63 62 62 62 62 62 63 63 62 63 63 62
54 54 55 55 55 56 58 59 60 60 60 62 61 61 61 62 64 63 62 64 63 63 62 63 63 63 64 64 63 64 63 63 62 62 61 62 62 62 61 62 61 61
52 53 54 54 55 55 56 56 57 59 60 60 62 61 62 62 63 63 63 62 62 63 62 63 64 63 62 64 63 63 61 62 62 61 60 60 61 60 61 61 62 61
51 52 52 53 53 54 54 54 56 57 58 60 60 61 62 62 63 62 62 62 63 63 61 62 62 61 63 62 62 62 61 61 63 62 61 61 60 60 59 60 62 62
51 51 52 52 52 52 53 54 54 56 57 59 60 62 60 61 62 62 63 63 62 62 62 62 62 62 62 62 62 61 62 62 61 62 61 61 60 60 60 60 61 62
50 50 51 51 51 52 52 52 52 54 55 57 60 61 60 60 62 62 61 61 61 62 62 61 61 61 62 61 63 62 62 61 62 60 61 61 61 61 61 61 61 61
49 49 49 50 50 50 50 50 51 52 53 55 57 59 60 60 60 62 62 62 61 61 61 61 62 61 60 60 61 62 62 62 63 62 61 61 61 61 60 62 62 61
48 48 48 49 49 50 50 49 49 50 51 52 55 56 58 60 61 61 62 62 62 63 62 62 63 63 63 63 61 62 62 62 63 62 62 61 61 61 60 61 61 61
47 47 48 48 48 48 48 49 49 48 49 51 52 54 55 54 56 60 62 63 61 61 62 63 63 62 61 62 62 63 62 61 62 61 61 61 61 61 61 61 62 62
46 47 47 47 46 47 47 47 47 47 48 48 49 51 53 53 54 55 58 60 61 62 62 62 62 62 62 62 62 62 61 62 61 61 62 61 61 61 62 61 61 62
45 46 45 46 46 46 46 47 46 47 47 47 48 48 50 51 52 54 55 56 58 60 61 62 60 58 49 45 47 55 58 59 60 62 60 61 61 61 61 61 60 61
44 44 44 44 45 45 46 45 45 46 46 46 47 47 48 49 51 51 52 53 54 56 59 53 49 46 40 39 39 42 51 57 60 60 61 61 60 61 61 60 61 60
43 43 44 44 44 43 44 44 45 45 45 45 46 46 47 48 48 49 50 51 52 53 56 52 48 41 38 39 39 39 43 51 58 61 61 60 61 60 59 59 59 60
42 43 43 43 43 44 44 44 44 44 44 44 45 45 46 45 46 47 48 50 50 50 51 53 47 40 38 38 38 38 39 43 53 59 62 62 60 61 58 58 59 60
41 41 42 42 43 43 44 43 43 43 44 44 44 44 44 44 45 45 46 46 48 48 49 51 46 41 38 38 38 38 38 40 49 55 60 61 62 61 60 60 61 60
39 40 41 42 42 43 43 43 43 43 43 43 43 43 43 43 44 44 44 44 45 46 46 48 47 40 38 38 37 38 37 41 51 55 59 60 61 62 60 62 61 61
38 39 40 41 42 42 42 42 43 43 43 43 43 43 43 43 43 43 44 44 44 44 44 44 45 40 38 38 37 37 38 49 53 54 56 59 59 61 61 61 61 62
38 38 38 39 41 41 41 42 43 43 43 43 42 42 42 42 42 42 42 43 44 44 43 43 43 42 38 38 37 37 40 47 51 53 55 56 59 59 62 61 58 59
37 37 38 38 38 39 40 41 42 43 43 43 42 42 42 42 42 42 42 43 43 43 43 44 43 42 38 37 37 37 39 46 50 52 52 55 57 59 60 61 52 47
38 38 38 37 37 38 39 39 40 41 42 42 42 42 42 42 41 41 42 42 42 43 44 42 42 42 39 37 37 37 40 44 50 51 51 52 56 58 60 60 52 46
38 38 38 38 37 38 38 38 39 39 40 40 40 40 40 41 41 41 41 42 42 42 42 42 41 41 40 37 37 37 37 43 51 52 52 50 49 47 55 50 48 46

ECMWFNIL_sfc_dewp_066.txt.gz
Dewpoint
58 58 59 59 59 60 60 60 61 62 63 63 63 62 63 65 65 65 65 65 65 65 64 65 64 64 64 65 64 64 63 64 64 64 64 63 63 63 63 63 63 62
57 57 58 59 59 59 59 60 60 61 62 63 63 63 64 64 65 65 65 64 65 65 65 65 65 64 65 64 64 64 66 64 64 65 63 63 62 63 63 63 63 62
55 56 56 57 57 58 58 59 60 60 61 62 63 64 64 64 64 65 65 65 64 65 65 64 63 62 63 63 64 64 64 64 63 64 64 63 63 62 63 63 64 63
54 55 55 56 56 56 56 57 58 59 60 60 61 63 62 63 63 63 64 64 64 64 64 63 64 64 64 63 63 64 64 63 64 64 64 64 63 63 63 63 64 63
53 53 54 54 55 55 56 56 56 56 57 58 59 60 61 62 62 62 63 63 64 64 64 63 64 64 64 63 63 63 63 63 64 64 63 62 63 63 63 63 63 63
53 51 52 52 53 54 54 53 54 55 55 57 58 59 60 60 61 62 62 63 63 63 63 63 63 63 63 62 63 63 62 62 63 64 63 63 63 63 62 62 62 62
52 52 52 52 52 53 53 53 53 53 54 55 56 57 58 59 61 61 61 62 62 62 62 62 62 61 63 63 63 63 63 63 62 62 62 62 63 62 63 61 60 60
51 51 51 51 52 52 52 51 51 52 53 54 55 56 57 59 61 61 61 61 61 61 61 61 62 62 63 63 63 62 62 62 62 61 62 62 62 62 62 62 61 61
51 50 50 51 51 51 51 50 51 51 50 52 53 55 56 57 58 58 58 59 59 60 61 61 61 62 63 63 63 62 62 62 62 61 62 61 61 62 62 61 61 61
50 50 50 50 50 50 50 50 50 49 49 50 51 52 53 55 55 54 55 57 58 60 60 61 62 62 62 62 62 62 61 62 62 61 61 61 61 62 62 61 61 62
49 49 49 49 49 49 50 49 49 48 48 48 50 50 51 52 53 54 54 55 56 59 61 61 62 61 61 62 62 63 62 62 62 61 62 61 62 62 61 61 61 61
48 48 48 48 48 48 48 48 48 48 47 48 48 48 49 50 50 51 53 54 55 58 61 61 62 61 60 60 62 62 62 62 61 61 61 61 61 62 62 62 63 61
47 47 47 47 47 47 47 47 47 48 46 46 47 47 48 48 49 49 51 53 53 56 53 51 50 48 48 49 53 59 61 61 61 61 62 62 62 61 62 62 62 62
46 46 46 46 47 46 46 47 46 46 46 46 46 46 47 47 47 48 49 50 50 52 51 50 48 47 45 45 46 50 55 59 61 61 61 61 61 61 61 62 62 62
45 45 46 45 45 45 45 45 46 46 46 46 45 45 46 46 46 47 47 47 48 50 51 48 45 44 44 43 43 45 49 54 57 59 61 62 61 61 61 61 61 61
43 44 44 44 44 44 44 44 44 45 45 45 44 44 44 45 44 45 45 46 47 47 49 48 45 43 43 41 41 42 45 48 52 55 58 61 61 61 61 62 62 62
42 42 43 43 43 44 44 43 43 44 44 44 44 45 45 45 45 44 44 45 46 45 46 48 45 43 39 38 38 39 42 44 48 53 57 60 61 61 61 61 61 61
41 40 41 42 43 42 42 43 43 43 43 43 44 44 44 45 45 44 44 44 45 44 45 45 45 41 38 38 38 38 39 42 46 52 55 58 61 62 61 61 61 61
38 38 39 41 41 42 43 42 42 42 43 43 43 44 44 44 45 45 44 44 44 43 43 44 44 40 37 38 38 38 38 40 44 48 53 57 59 61 62 61 61 60
38 38 38 39 40 41 41 41 42 42 43 43 43 43 43 43 44 45 45 44 44 44 43 43 43 40 37 38 37 37 37 39 46 50 53 55 57 59 61 61 60 60
38 38 37 38 38 39 40 40 42 42 42 42 42 42 42 42 43 43 43 44 44 44 43 42 42 39 38 37 37 37 37 41 47 50 52 54 56 58 60 59 59 61
37 38 38 37 37 37 38 39 41 41 42 42 42 42 42 41 42 43 42 42 44 44 43 42 42 38 38 38 37 37 38 44 47 50 52 53 54 55 59 58 53 54
37 37 37 37 36 36 36 38 39 40 41 42 40 41 40 40 41 41 42 42 43 44 43 42 42 40 38 38 38 37 39 43 47 50 52 52 51 52 58 52 49 47
36 36 36 36 35 35 36 37 38 38 39 40 40 39 39 40 40 40 40 41 42 42 43 42 42 41 39 38 38 38 39 42 46 47 49 51 50 50 55 51 48 46
36 36 36 35 35 36 37 36 36 37 38 38 39 38 39 39 39 39 39 40 40 41 42 42 41 40 39 38 38 38 39 41 42 43 45 48 49 48 49 46 44 44
36 37 38 36 34 36 37 36 35 36 37 37 37 36 37 38 38 38 38 39 40 40 40 40 40 40 40 38 38 38 38 40 40 40 41 44 44 44 44 43 42 42

ECMWFNIL_sfc_dewp_069.txt.gz
Dewpoint
54 54 55 57 57 56 55 55 56 57 58 58 58 59 60 62 62 63 63 64 63 63 63 63 63 63 63 63 63 63 63 63 63 63 63 62 62 62 62 62 62 62
53 54 55 55 56 55 55 55 56 56 56 56 57 58 59 59 60 61 62 63 63 63 63 63 64 63 63 63 63 62 62 62 62 63 63 63 62 62 62 62 62 62
52 53 53 54 54 54 55 55 54 54 54 55 56 57 58 58 59 60 62 62 62 63 63 63 63 63 62 62 63 63 62 62 61 62 62 62 62 63 63 63 62 62
52 52 52 53 53 54 54 53 53 52 53 54 54 56 57 58 58 59 61 62 62 62 62 62 62 62 62 62 62 62 61 61 62 62 62 62 62 62 62 63 63 63
51 51 51 52 53 53 52 52 52 51 50 52 53 55 56 56 57 57 58 58 58 59 60 60 61 61 62 62 62 62 62 62 62 62 62 62 62 62 62 62 62 62
51 51 51 51 51 51 50 50 51 50 49 51 52 53 54 55 55 55 54 54 55 57 57 58 59 60 61 61 62 62 62 61 62 62 62 62 61 62 62 62 62 62
50 50 49 50 49 49 49 49 49 49 48 49 50 51 51 53 52 53 53 54 54 54 55 56 59 60 61 61 61 61 62 62 62 62 61 61 61 61 62 62 61 61
49 50 49 49 48 48 49 48 48 48 48 48 48 49 50 50 50 51 52 53 53 49 48 48 48 51 53 58 61 61 61 61 61 62 61 60 60 60 61 62 62 61
48 49 48 48 47 47 47 48 48 47 47 46 47 48 49 49 49 50 51 52 52 49 48 46 47 46 48 49 51 55 59 61 61 61 60 60 60 60 60 61 61 61
47 47 47 47 46 46 46 47 47 47 47 46 45 46 46 47 48 48 49 49 51 47 44 43 44 43 44 44 46 49 52 59 61 61 61 60 60 60 61 61 60 60
45 45 45 46 46 45 45 46 46 46 46 46 45 45 45 45 47 47 47 47 49 47 43 42 42 42 41 42 42 45 47 51 57 60 60 60 60 61 61 61 60 60
44 44 44 45 45 45 45 45 45 46 46 45 45 44 44 44 44 45 46 45 46 48 44 42 41 40 40 40 41 42 44 47 51 55 59 60 60 60 61 61 61 61
44 44 44 44 44 44 45 45 44 45 45 45 45 44 44 44 44 44 45 44 44 46 45 42 41 40 40 40 40 41 42 44 47 50 54 58 61 61 61 61 61 61
44 44 43 44 44 44 44 44 44 44 44 45 45 44 44 44 44 44 44 44 44 44 44 42 41 40 40 39 39 40 41 42 44 47 51 54 59 61 60 60 61 61
43 43 43 43 43 43 43 43 43 43 44 44 44 45 46 44 44 44 43 43 43 43 43 42 41 41 40 40 39 39 40 41 42 45 48 52 56 59 60 60 60 61
42 43 42 42 42 42 42 42 42 43 43 43 43 43 44 45 44 44 43 43 42 42 43 42 41 41 42 41 40 40 40 41 42 44 47 51 55 58 59 60 60 60
42 42 42 42 42 42 41 42 41 42 42 42 42 42 42 44 44 43 43 43 42 42 42 42 41 40 39 38 38 39 41 41 42 44 48 52 54 56 59 59 59 60
39 40 41 41 42 41 41 41 42 41 41 41 40 40 41 41 43 43 43 43 42 42 41 41 40 40 38 38 38 38 40 43 44 47 50 52 55 57 58 59 59 58
38 38 37 37 39 41 41 41 41 41 41 41 40 40 39 40 41 42 42 42 42 41 41 40 40 39 38 38 38 38 38 42 46 49 51 53 54 55 57 59 58 57
37 37 37 36 36 37 38 38 38 40 41 41 40 39 39 39 40 40 41 40 41 41 41 40 39 39 38 38 38 38 38 40 44 46 50 52 52 53 49 50 50 53
37 37 37 36 35 35 35 36 36 36 38 41 40 39 38 39 39 39 40 40 40 40 40 39 40 38 38 38 38 38 39 40 41 43 46 48 49 51 49 48 47 47
37 36 36 36 35 34 34 34 35 35 35 38 40 39 39 39 39 39 40 40 40 39 39 38 39 38 37 38 38 38 39 40 40 40 42 44 45 46 46 45 45 45
36 35 36 36 36 34 33 33 33 33 34 36 37 38 37 38 38 39 40 40 40 40 39 38 38 38 37 38 38 37 39 40 40 40 40 40 42 43 44 44 43 43
36 35 35 36 36 35 34 33 32 33 33 35 34 36 36 37 39 38 39 40 39 39 40 38 38 39 38 37 38 38 39 40 40 40 40 40 40 41 42 42 43 43
37 36 35 35 36 35 35 33 32 33 34 33 33 34 35 33 37 38 38 39 39 40 40 39 38 38 38 37 37 38 39 39 39 40 40 39 40 40 41 41 41 42
37 37 37 35 35 36 35 34 34 33 33 33 32 33 33 32 32 37 38 38 39 39 39 39 39 38 39 37 38 38 38 38 39 39 39 39 39 39 39 40 40 40

ECMWFNIL_sfc_dewp_072.txt.gz
Dewpoint
53 53 53 53 54 54 54 53 53 52 53 54 55 55 56 57 58 58 58 59 59 59 60 60 61 61 62 62 62 62 63 63 63 63 63 63 62 62 62 61 62 62
51 53 54 53 53 53 53 53 51 50 51 52 53 54 56 56 57 56 55 55 55 55 56 57 58 59 60 61 62 62 62 62 62 63 62 62 61 61 61 61 61 62
51 51 52 51 52 51 51 51 50 49 50 51 52 53 54 55 54 54 54 53 50 50 50 51 54 56 58 60 61 62 62 62 62 62 62 61 62 61 62 62 61 61
51 51 51 50 50 49 49 48 48 48 49 50 50 52 52 53 52 53 54 51 47 47 47 48 49 50 51 54 57 61 61 61 61 62 62 62 62 61 61 61 61 61
50 49 49 49 49 49 48 47 47 47 47 49 49 51 51 51 51 52 53 49 47 47 47 47 48 47 49 50 51 55 57 60 62 62 62 61 62 62 62 61 61 61
49 49 49 48 49 48 47 47 46 46 45 46 47 49 49 50 49 50 51 47 45 44 44 45 45 44 45 47 48 50 51 53 55 60 61 61 61 62 62 62 61 61
48 48 47 47 47 48 47 46 46 46 45 45 45 46 47 48 48 48 49 48 44 43 43 43 43 42 43 44 45 46 46 50 51 53 58 61 61 61 62 61 61 61
47 47 47 46 46 46 47 46 46 45 45 44 44 44 45 46 46 48 46 49 45 42 42 41 41 41 41 41 41 42 43 46 48 50 53 58 61 60 61 61 61 60
45 46 46 45 45 45 46 47 46 45 45 44 44 44 44 45 45 45 44 46 45 43 41 41 40 40 40 40 40 40 41 42 45 47 50 53 57 60 60 60 60 60
44 45 45 45 44 44 45 46 46 46 46 44 44 44 44 44 44 44 44 44 44 42 41 40 40 40 40 40 40 40 40 41 42 44 47 50 52 56 60 60 60 59
44 44 44 44 44 44 44 45 45 46 46 45 44 43 43 43 43 44 43 43 43 42 40 40 40 40 39 39 39 40 40 41 41 43 45 48 51 53 58 60 60 60
43 43 43 43 44 44 44 44 44 44 45 46 45 43 43 43 42 42 42 42 42 41 40 40 39 39 39 39 39 40 40 41 42 43 44 46 49 52 55 59 60 60
42 42 42 42 42 42 43 43 43 43 43 45 46 44 43 43 42 42 42 41 41 40 40 39 39 39 39 39 39 39 40 41 42 43 44 46 48 52 54 57 60 60
43 43 43 43 43 42 42 42 41 41 41 42 44 45 44 43 42 42 41 41 40 40 40 40 39 39 39 39 39 39 40 41 42 44 45 46 49 52 54 56 58 60
43 43 43 42 42 42 42 42 41 40 40 40 41 42 44 43 42 42 41 40 40 39 39 39 39 39 40 39 39 39 40 42 43 45 46 47 50 52 54 56 58 59
42 42 42 42 41 41 42 42 42 41 40 39 40 40 41 42 41 41 41 40 40 39 39 39 39 39 41 40 40 40 40 42 43 45 47 50 52 52 50 51 53 56
37 37 37 38 39 38 39 41 42 41 40 39 39 39 40 41 40 39 39 39 39 39 38 39 39 39 39 38 38 39 40 41 42 44 46 48 48 47 47 48 48 48
36 35 35 35 36 36 36 38 41 41 39 39 39 39 40 40 40 39 39 39 39 38 38 38 38 40 38 38 38 38 40 41 41 42 44 44 44 44 45 45 45 46
36 34 34 33 34 34 34 35 36 40 40 38 38 39 39 39 39 39 39 39 39 38 38 38 38 39 38 38 38 38 38 40 39 40 41 42 41 42 42 42 44 44
36 35 34 33 33 33 33 33 34 35 38 39 39 38 38 39 39 39 39 39 39 38 38 38 38 39 37 38 38 37 38 39 39 40 39 39 40 41 41 42 43 43
36 36 35 34 33 33 33 32 33 34 35 38 38 36 37 38 39 38 39 39 39 39 38 38 38 38 37 37 37 37 38 39 39 39 39 39 39 40 41 41 41 42
36 36 35 34 33 32 32 32 32 33 33 35 36 34 34 37 38 39 39 38 38 38 37 37 38 38 37 37 37 37 38 39 38 39 38 38 38 39 40 40 40 41
36 36 36 34 33 32 32 32 32 32 33 35 33 32 33 35 37 37 38 38 38 37 37 36 37 38 37 37 37 37 38 38 38 38 39 38 38 38 39 39 40 40
36 36 36 35 33 33 33 33 33 33 33 34 32 32 32 34 37 34 33 34 35 35 36 36 36 38 37 37 37 37 38 37 37 37 38 39 38 38 38 39 40 41
36 36 35 35 34 34 34 33 33 33 34 33 33 32 32 33 38 34 32 32 32 34 36 34 35 36 37 36 37 37 38 38 37 37 37 38 39 38 38 38 38 40
36 38 36 35 34 34 34 34 35 33 33 32 32 32 32 32 33 36 32 31 32 31 32 33 34 35 36 36 36 37 37 38 38 37 37 37 38 38 38 38 38 38

ECMWFNIL_sfc_dewp_075.txt.gz
Dewpoint
52 52 52 52 52 52 50 49 49 50 50 52 52 52 53 54 54 52 48 47 49 48 49 49 49 49 50 52 53 56 59 61 62 62 62 62 62 62 62 62 62 62
50 52 52 50 49 49 48 48 48 49 50 51 51 51 52 52 53 51 47 46 46 47 47 48 47 46 47 49 50 53 55 56 58 60 61 61 61 61 61 61 61 61
49 49 49 48 47 47 47 47 47 47 48 49 50 51 51 52 51 51 46 45 44 44 45 46 45 45 45 46 47 50 50 52 53 54 56 58 60 61 61 61 61 61
48 49 48 48 47 46 46 45 45 45 46 46 47 48 49 50 50 50 46 45 43 43 43 43 43 43 43 43 44 46 47 49 50 51 52 55 57 60 61 62 61 61
47 47 48 48 47 46 45 45 44 44 44 45 45 46 46 47 47 48 48 45 43 42 42 41 41 41 41 42 42 45 46 46 46 47 49 51 53 56 59 61 61 61
46 46 47 47 47 46 44 44 44 44 44 44 44 45 45 45 45 45 46 45 42 41 41 40 40 40 40 40 41 42 42 43 43 44 46 47 50 53 55 58 60 60
46 46 45 46 46 46 45 44 44 45 44 44 43 43 44 44 45 44 44 44 42 41 40 40 40 40 40 40 40 40 40 41 42 42 43 44 47 49 52 54 56 59
45 45 45 45 45 46 46 45 44 44 44 43 42 42 43 43 43 44 44 43 41 40 39 39 39 39 39 39 39 39 40 41 42 42 43 44 45 47 49 51 53 55
45 45 45 44 44 45 46 46 45 44 44 43 43 42 43 43 42 42 43 42 40 39 39 39 39 39 39 39 39 39 40 40 41 42 43 44 45 46 47 50 52 53
44 44 44 44 44 44 44 45 46 45 45 43 43 42 42 42 43 42 41 41 40 39 39 38 38 39 39 39 39 39 39 40 41 42 43 44 45 46 47 50 52 53
42 42 42 42 42 42 42 43 44 45 46 44 43 42 42 41 42 42 40 39 39 39 39 38 38 39 39 38 39 39 39 40 41 42 43 44 45 47 50 51 53 54
42 42 42 42 42 41 40 41 41 42 44 45 44 42 42 41 41 41 41 39 39 39 39 38 38 39 39 38 38 39 39 40 41 43 44 45 47 48 50 51 51 50
42 42 42 42 42 42 41 40 40 41 41 43 44 42 41 40 40 40 41 40 39 39 39 38 38 39 39 38 38 39 39 40 41 42 44 45 46 47 47 47 48 49
42 42 42 43 43 42 42 41 40 40 40 41 42 41 40 40 40 39 39 39 39 39 39 39 38 38 39 38 38 39 39 39 40 41 43 43 44 44 46 46 47 47
40 40 40 40 42 42 41 41 40 40 40 40 41 41 42 40 39 39 39 38 38 38 38 38 38 39 39 39 38 38 39 39 39 41 41 42 43 43 43 43 44 45
37 38 37 37 38 40 41 41 40 40 40 39 39 40 40 41 39 39 39 38 38 38 38 38 38 39 41 40 40 39 39 39 39 40 39 40 41 41 41 41 42 42
35 35 35 35 35 36 38 40 40 39 39 39 39 39 39 40 39 39 39 39 38 38 37 38 38 39 38 38 38 38 39 39 39 39 39 38 39 39 40 40 40 41
34 34 34 34 34 34 35 36 38 39 38 37 38 39 39 39 39 39 39 38 38 38 37 38 38 39 37 38 38 38 39 39 39 39 39 38 38 38 39 39 39 40
34 33 33 33 33 34 34 34 34 35 36 36 35 37 37 37 38 37 38 38 38 37 37 37 37 38 37 37 37 37 38 38 38 38 39 38 38 38 38 38 39 40
34 33 33 33 33 33 33 33 33 34 35 35 35 35 35 35 35 35 35 35 36 36 36 36 36 38 37 37 37 37 37 38 37 37 38 38 38 38 38 38 38 39
34 34 33 33 33 32 32 32 33 33 34 35 34 34 34 34 33 33 33 34 34 34 35 35 36 37 36 37 37 37 37 38 37 37 37 37 38 38 38 38 38 39
34 33 33 33 33 32 32 32 32 32 33 33 34 33 34 34 34 32 32 31 32 33 34 33 34 36 36 36 37 37 38 38 37 36 36 36 37 37 38 38 38 38
34 34 33 32 32 32 32 32 32 32 32 35 31 31 32 33 35 33 32 31 32 32 33 33 33 35 36 36 36 37 38 37 37 36 36 36 36 37 37 37 37 38
34 34 33 33 32 32 31 31 32 31 32 34 31 31 31 31 34 34 32 32 32 32 34 33 33 35 36 36 36 37 38 37 37 36 36 36 36 36 36 36 37 40
34 34 33 32 32 32 32 32 31 32 32 31 32 31 32 31 35 33 32 31 31 32 36 33 33 35 36 36 36 36 37 37 37 36 36 35 35 35 36 36 36 37
35 35 34 32 32 32 32 33 34 31 32 31 31 31 31 31 31 32 31 30 31 31 32 33 34 35 36 36 36 36 37 38 37 36 36 36 35 35 35 35 35 36

ECMWFNIL_sfc_dewp_078.txt.gz
Dewpoint
49 49 48 47 47 47 47 47 47 48 49 50 50 50 51 51 48 45 45 45 45 44 43 44 44 44 44 45 45 47 49 50 51 52 53 54 55 56 57 59 60 61
48 48 49 47 46 46 46 47 46 46 47 48 49 49 50 51 50 47 45 44 43 43 42 42 42 42 42 42 43 44 46 47 48 49 49 50 52 54 55 56 58 60
48 47 46 46 45 46 46 46 46 46 45 46 47 47 48 48 48 48 45 44 42 42 42 41 41 41 41 41 41 43 44 44 44 45 46 47 49 50 52 54 56 57
47 48 46 45 45 45 45 45 45 45 45 45 45 46 46 46 45 45 44 43 41 40 40 40 40 40 40 40 41 42 42 43 43 43 44 45 46 48 49 51 53 54
46 47 47 45 45 45 44 44 43 43 43 43 44 45 44 44 44 43 42 41 40 40 40 40 40 40 40 40 40 41 42 42 42 43 43 44 45 47 48 49 50 51
45 46 47 46 45 44 44 43 43 43 43 43 43 44 43 43 43 42 41 40 40 40 40 39 39 40 40 39 40 40 41 41 42 42 43 43 44 46 47 48 49 50
45 45 45 46 46 45 44 44 43 44 43 43 42 43 43 42 42 41 40 40 40 40 39 39 39 39 40 39 39 39 40 41 41 42 42 43 44 45 46 48 49 49
44 44 44 45 45 46 45 44 44 43 43 42 42 42 42 41 41 41 40 40 39 39 38 38 39 39 39 39 39 39 39 41 41 41 42 43 44 45 46 48 49 49
42 42 42 42 43 43 44 45 45 44 43 42 41 41 42 42 41 40 40 39 39 39 38 38 38 39 39 39 39 38 39 39 41 41 42 43 44 45 46 47 47 48
41 41 41 41 41 41 42 42 43 44 44 41 41 41 40 41 41 40 39 39 39 38 38 38 38 38 38 38 38 38 39 39 40 40 41 43 44 44 45 46 46 46
41 41 41 40 40 40 41 41 41 42 43 41 40 40 40 40 40 40 39 39 39 38 38 38 38 38 38 38 38 39 39 39 39 40 40 41 42 43 45 44 44 44
42 42 41 41 41 40 40 40 41 41 41 42 41 40 39 40 39 39 40 38 38 38 38 38 38 38 38 38 38 38 39 39 39 40 40 39 40 41 41 42 42 42
41 42 42 41 41 41 41 40 40 40 40 41 42 40 40 39 39 39 40 39 38 38 38 38 38 38 39 38 38 38 38 38 39 39 39 39 39 39 40 40 41 41
40 40 41 42 41 41 40 40 40 40 40 41 42 41 40 40 39 39 39 39 39 38 38 39 38 38 38 38 38 38 38 38 38 39 39 39 39 39 39 39 39 40
39 39 39 39 40 40 40 39 39 39 39 39 39 40 41 40 39 39 38 38 38 38 38 38 38 38 39 38 38 38 38 38 38 38 38 39 38 38 39 39 39 39
36 37 36 36 36 37 38 38 38 37 37 36 36 37 37 38 37 37 37 37 37 37 37 38 38 38 40 39 39 38 38 38 38 37 37 38 38 38 38 38 38 38
34 34 34 34 35 35 36 36 36 36 35 35 35 35 36 36 35 34 35 36 36 36 36 37 37 38 38 37 38 38 38 38 37 37 37 37 37 37 37 38 38 38
34 33 33 34 34 34 35 35 35 35 34 34 34 35 35 34 34 33 34 34 35 35 36 36 37 38 36 37 37 37 38 38 37 37 37 37 36 36 37 37 37 37
33 33 33 33 33 34 35 35 34 34 34 35 34 36 35 34 33 33 33 33 34 34 35 35 36 37 36 37 37 37 37 38 36 37 37 36 36 36 36 36 36 37
33 33 32 33 33 33 33 33 33 33 33 35 35 34 34 34 34 33 33 33 34 33 35 35 35 37 36 37 37 37 37 37 36 36 36 36 36 36 36 36 36 36
33 33 33 33 33 33 33 32 33 33 33 34 33 32 32 33 34 33 33 34 33 33 35 35 35 36 36 36 37 37 37 38 37 36 36 36 36 36 36 36 35 36
33 33 33 33 33 33 32 32 32 32 32 34 34 31 32 32 33 33 33 32 33 33 34 34 34 36 36 37 37 37 37 38 37 36 36 36 35 35 35 36 35 36
34 33 33 33 33 32 32 32 32 32 32 35 31 31 31 31 33 32 33 32 33 33 34 34 34 36 36 37 37 37 38 37 37 36 36 35 35 35 35 35 35 36
35 34 34 34 32 32 32 32 32 32 32 34 31 31 31 31 33 32 32 33 32 32 35 33 34 36 37 36 37 37 38 37 37 36 36 36 35 35 35 34 35 39
34 34 33 33 33 33 33 32 33 33 34 32 32 31 32 32 35 31 31 31 32 33 36 34 34 36 37 36 37 37 38 38 37 36 36 35 35 34 34 34 34 36
36 36 35 33 33 33 33 34 35 32 32 31 31 31 31 31 32 32 31 31 31 32 33 33 34 35 37 36 37 37 37 38 37 36 36 35 34 34 33 34 34 34

ECMWFNIL_sfc_dewp_081.txt.gz
Dewpoint
49 50 49 49 49 49 50 50 49 50 50 50 50 50 49 49 47 46 46 46 46 45 45 45 45 45 45 46 46 46 47 47 47 47 48 48 49 51 51 52 53 54
49 49 48 48 47 48 48 49 49 49 49 49 49 48 48 47 46 45 45 44 44 44 44 45 45 44 44 44 45 45 45 46 46 47 47 48 48 49 50 51 52 53
48 48 47 47 47 48 48 48 47 47 47 47 48 48 47 46 45 44 44 44 44 44 44 44 44 44 44 44 43 44 45 45 45 45 46 47 48 48 49 50 51 52
48 47 46 47 47 47 47 46 46 45 46 45 45 45 45 45 44 44 44 44 43 43 43 43 44 43 43 43 44 43 44 44 44 45 45 46 47 48 48 49 50 50
47 46 46 46 46 46 46 45 44 44 44 44 45 45 44 43 43 42 42 42 43 42 42 42 42 43 43 43 43 43 43 43 44 44 44 45 46 47 47 48 48 49
47 45 45 45 45 45 44 43 42 43 43 44 44 44 43 43 42 41 41 41 41 41 41 41 41 41 42 42 42 42 42 42 43 43 43 44 45 46 47 47 47 47
47 46 46 45 45 45 44 43 43 43 43 43 42 43 42 42 42 41 41 42 41 40 40 40 40 41 41 41 41 41 41 41 41 41 42 43 44 45 45 46 46 45
46 45 43 43 44 44 44 42 42 43 43 42 43 42 42 40 41 42 41 41 40 39 39 39 39 39 41 41 40 40 41 41 41 41 41 40 42 42 43 44 45 44
44 42 42 43 42 42 42 42 42 42 41 42 41 41 42 41 41 41 41 40 39 39 38 39 39 39 40 40 40 39 39 40 41 41 40 41 41 40 40 42 42 43
42 42 42 42 42 42 42 42 42 41 41 41 41 41 40 42 41 40 40 39 38 38 37 37 38 39 39 39 39 39 39 39 39 40 40 40 40 39 40 40 40 41
42 41 41 42 42 41 42 42 42 42 42 40 40 40 40 40 41 41 40 39 39 37 37 36 37 38 38 38 39 40 39 39 39 39 40 39 39 39 41 40 40 40
41 41 41 41 41 42 41 41 40 40 39 39 38 38 39 39 40 40 40 38 37 37 37 36 37 38 38 38 38 39 39 40 39 39 39 39 39 39 39 39 39 39
41 42 41 41 40 39 38 37 36 37 36 36 37 37 37 38 39 38 40 39 38 38 37 38 38 37 37 38 38 38 38 38 39 39 38 39 39 39 39 39 38 38
41 41 40 37 36 35 35 36 35 36 36 36 37 37 37 37 37 38 39 39 39 37 37 39 38 37 37 37 38 38 38 38 38 39 38 37 38 37 38 37 38 38
40 39 36 35 34 35 35 36 36 36 36 36 36 37 38 37 37 37 37 37 38 37 37 38 39 39 39 39 38 37 38 38 38 37 38 38 37 37 37 37 37 37
37 35 33 34 34 35 35 35 36 36 36 36 36 36 36 37 36 37 37 37 38 37 37 40 39 40 40 39 39 38 39 39 38 37 36 37 37 37 36 36 37 37
34 33 33 34 35 35 35 34 34 35 35 35 37 37 37 37 37 36 37 38 37 37 38 39 39 40 38 37 38 38 39 39 37 36 36 36 37 35 34 36 36 36
33 32 33 33 33 32 33 33 34 34 34 35 36 37 37 37 37 36 37 38 39 37 38 39 39 38 37 38 38 37 38 39 37 35 36 36 35 34 34 36 36 37
32 32 32 32 32 33 33 33 33 34 34 34 35 36 37 36 36 37 37 38 38 37 38 38 39 38 37 37 37 37 37 38 34 36 36 35 36 35 35 35 36 36
32 31 32 32 33 33 33 32 33 34 35 35 35 35 36 36 37 37 37 37 38 38 38 39 39 38 37 37 37 37 37 38 35 36 37 36 34 34 36 36 36 36
31 31 31 32 32 33 33 33 34 35 34 35 35 35 35 35 36 37 37 38 38 39 38 39 39 37 36 37 37 37 37 38 36 36 34 34 34 35 35 36 35 36
31 32 32 32 32 32 32 33 34 35 35 35 35 34 35 35 36 36 36 36 37 38 39 38 39 37 36 36 37 36 37 35 35 34 34 34 34 35 35 35 35 36
31 32 33 33 33 32 32 34 34 34 35 35 34 34 34 34 35 35 35 35 36 37 38 38 38 37 36 36 36 36 38 35 35 32 34 33 33 34 34 34 35 35
32 31 32 33 33 32 34 35 35 34 35 35 34 34 33 34 34 33 34 34 35 36 36 37 38 38 36 36 36 36 37 36 33 32 32 32 32 33 33 33 35 37
33 33 33 33 33 34 36 35 35 35 35 35 35 34 34 33 33 33 33 34 35 36 37 37 38 38 37 36 36 36 37 37 33 31 31 32 32 31 33 33 33 35
35 35 35 34 33 35 36 36 36 35 36 36 35 33 33 33 33 33 33 34 35 36 37 37 37 38 37 36 36 36 36 38 34 33 33 33 32 32 31 32 33 33

ECMWFNIL_sfc_dewp_084.txt.gz
Dewpoint
51 52 51 51 51 52 52 52 52 52 52 51 50 49 47 49 48 49 49 48 48 48 48 49 49 49 49 49 49 48 47 48 47 48 48 49 49 50 50 51 52 52
51 51 50 50 50 50 51 51 51 50 50 50 49 48 49 48 48 47 47 45 45 46 47 48 48 47 47 48 49 48 47 47 47 46 47 48 48 49 49 50 51 51
50 50 50 50 49 50 50 50 50 50 49 48 49 48 48 48 47 46 46 46 45 45 46 46 47 46 46 47 48 47 47 47 47 47 47 47 47 47 48 49 49 49
49 49 49 49 49 49 49 49 49 48 48 47 47 47 46 46 46 45 45 45 44 44 45 44 45 45 45 45 46 45 47 45 45 47 46 46 46 46 47 47 47 47
48 47 48 48 47 47 48 47 46 46 46 46 47 46 45 45 45 44 44 44 44 43 43 42 43 44 44 44 44 44 44 43 44 45 44 45 46 46 46 46 46 45
47 44 45 45 46 46 46 45 44 45 46 47 46 45 45 45 43 43 43 42 42 41 41 41 41 42 43 42 43 43 42 42 42 42 41 42 44 44 45 45 44 44
45 45 45 45 46 46 46 46 46 46 45 45 44 44 44 44 44 43 41 42 40 41 40 40 40 41 42 42 42 41 41 42 40 40 39 41 42 42 42 43 43 42
46 46 45 46 47 46 45 43 44 44 45 44 44 44 43 41 42 44 42 41 40 39 39 38 39 39 40 41 40 40 40 41 41 39 39 40 41 39 40 42 43 41
45 45 44 45 45 45 45 43 43 43 42 43 43 43 43 42 42 42 41 40 39 40 38 38 38 38 40 40 40 39 38 39 39 39 39 40 39 39 39 41 41 41
44 44 45 44 44 44 45 45 44 43 42 42 41 42 41 43 42 40 41 41 40 39 38 37 38 38 38 39 39 39 39 38 38 39 39 39 39 39 40 39 39 39
44 43 44 44 43 43 44 42 42 41 41 39 41 41 41 41 42 41 40 40 41 38 38 37 38 38 37 38 39 39 39 39 38 38 39 38 40 39 39 39 38 38
43 42 41 42 41 41 41 41 41 40 40 40 39 40 41 40 41 41 41 39 37 37 38 37 37 37 36 37 37 37 39 40 39 39 38 39 38 38 37 38 38 36
40 40 39 40 41 41 41 39 40 41 39 39 40 40 40 40 40 40 41 40 38 39 38 38 37 37 37 37 36 36 36 38 39 38 38 40 39 37 37 37 36 35
38 38 39 39 39 40 40 40 39 40 40 40 40 40 40 39 39 40 41 40 40 39 39 38 37 36 37 37 36 36 37 39 40 38 40 39 40 37 37 36 35 36
37 38 38 38 38 39 40 40 40 40 39 39 39 40 41 39 39 40 40 39 38 39 37 38 38 39 40 39 38 35 37 40 39 39 39 38 38 37 36 35 35 37
35 37 36 37 37 37 38 39 39 40 40 39 39 39 39 39 39 41 39 39 38 38 38 39 38 40 40 39 39 37 39 40 40 39 38 38 37 37 36 35 36 37
34 34 34 34 36 36 37 36 37 39 40 39 40 40 40 40 40 40 40 40 38 38 38 38 39 40 38 37 37 38 39 40 39 37 37 37 36 35 34 36 37 36
33 32 32 33 34 33 34 35 37 37 38 39 40 40 41 41 41 40 40 40 40 38 39 39 40 38 37 37 37 37 38 40 38 37 37 36 34 35 34 35 36 36
30 31 31 32 33 33 35 36 35 36 37 38 39 40 41 40 40 40 40 40 39 38 38 38 38 37 36 37 37 36 36 39 35 37 36 35 35 35 35 35 35 35
31 30 31 32 33 33 34 34 36 37 38 38 39 39 39 39 40 40 40 40 39 38 38 37 37 38 36 36 36 36 36 38 34 36 36 34 33 33 34 35 35 35
30 31 31 32 32 33 34 34 36 37 36 36 37 37 37 37 38 39 39 39 39 38 38 38 38 37 36 36 36 36 36 37 36 36 35 34 33 34 34 34 35 35
31 32 32 31 32 32 33 34 37 37 36 36 36 36 37 36 37 37 38 38 38 38 38 37 36 36 36 36 36 36 37 36 35 35 34 32 33 34 33 33 34 34
32 32 32 32 32 33 33 34 35 36 36 35 35 36 35 35 36 36 37 38 37 38 39 38 36 37 36 36 36 36 37 35 34 32 32 32 32 33 32 33 33 33
32 32 32 32 32 32 34 35 35 36 36 36 34 34 34 35 35 35 37 37 37 36 37 37 37 37 36 36 36 36 37 36 31 31 32 32 32 33 32 31 32 40
32 33 33 33 33 34 36 35 35 36 36 36 34 34 34 33 33 34 35 37 38 38 37 37 37 37 36 36 36 36 37 37 31 30 31 33 32 31 32 31 31 33
35 35 35 34 33 35 36 35 35 36 37 36 34 31 32 32 33 34 35 35 36 37 38 36 37 37 37 36 36 36 36 38 32 33 32 33 31 30 30 31 31 31

ECMWFNIL_sfc_dewp_087.txt.gz
Dewpoint
53 53 52 52 52 53 53 53 52 52 51 50 49 48 47 49 48 48 47 46 47 47 47 49 48 49 49 50 50 49 48 49 49 49 49 49 48 49 48 49 49 48
52 52 51 51 51 52 52 52 51 51 50 49 48 48 48 47 47 47 47 45 45 45 46 47 47 46 47 48 48 48 46 47 48 48 48 47 47 47 47 48 48 48
51 51 51 51 51 51 51 51 50 50 48 48 49 48 47 47 46 46 47 46 45 44 45 46 46 45 45 45 45 46 45 44 46 47 47 47 47 46 46 47 46 48
50 50 50 50 50 50 50 49 48 48 49 47 47 47 46 46 46 46 46 45 44 44 44 45 45 45 44 44 44 43 44 42 43 43 43 43 45 44 45 45 45 45
49 49 49 48 48 48 49 47 47 48 48 47 47 47 46 46 45 43 44 44 44 43 43 42 43 44 44 44 43 43 42 41 42 42 42 42 44 44 44 44 44 43
47 45 46 45 46 47 48 47 45 46 46 47 45 45 45 45 43 42 42 42 42 41 41 42 41 42 42 42 43 42 42 41 41 41 40 41 42 42 43 44 43 42
46 47 47 46 47 48 47 47 47 46 44 45 44 44 44 44 43 42 41 41 39 39 39 41 40 41 42 43 42 42 41 41 40 40 39 40 41 42 42 43 42 40
47 47 47 47 47 46 45 44 44 45 45 44 45 43 42 41 42 43 42 41 39 38 39 38 39 39 41 42 40 41 42 42 42 40 40 40 41 40 40 41 42 40
47 47 46 47 46 45 44 43 44 44 43 43 42 43 43 42 42 42 41 40 39 39 38 38 38 38 40 40 40 41 40 41 41 41 41 41 40 39 37 39 40 40
45 45 46 46 46 46 46 45 44 42 42 43 42 42 42 43 42 40 41 40 39 39 37 37 38 38 37 37 38 38 39 40 39 39 40 40 39 38 38 38 38 38
45 45 45 45 45 44 44 43 43 43 42 40 42 42 41 42 42 41 40 39 41 38 37 37 36 35 36 36 37 38 39 41 40 39 41 40 40 39 39 38 38 37
43 43 43 43 43 43 43 42 42 42 41 41 40 40 41 42 42 42 40 38 38 37 37 36 35 35 34 34 36 37 40 43 42 41 41 39 39 39 38 38 38 36
40 41 42 42 42 42 42 41 41 42 40 40 40 40 41 41 41 41 41 41 39 38 38 37 36 34 34 36 37 39 41 41 41 41 40 40 39 38 37 37 37 36
40 41 41 41 41 41 40 40 40 41 41 41 41 41 41 41 41 41 41 40 40 39 39 38 35 33 34 36 37 38 41 41 40 40 40 38 39 37 38 36 36 36
39 39 39 39 39 39 41 41 41 41 40 40 41 42 42 41 41 40 40 39 38 39 38 37 36 35 36 38 38 37 39 40 40 39 39 38 36 36 36 35 35 36
37 39 37 38 38 38 39 40 40 41 41 40 40 41 41 41 41 41 38 39 38 38 38 38 35 36 39 39 38 39 39 41 40 39 38 37 36 36 35 35 35 35
34 34 35 36 36 37 38 37 39 40 40 41 41 42 42 42 41 40 40 39 37 37 38 37 35 39 38 37 37 38 40 40 39 37 37 37 35 35 34 34 35 34
32 32 32 33 34 33 35 36 38 39 39 40 41 41 42 42 42 41 41 40 39 36 36 35 36 38 36 37 36 36 37 39 40 38 37 36 35 33 31 33 34 35
30 30 31 32 32 34 35 35 36 37 38 39 39 41 41 41 41 41 41 41 39 35 33 33 34 37 36 36 36 36 36 38 37 37 36 35 34 32 32 33 34 34
29 29 31 31 33 34 35 34 36 37 39 39 39 40 40 39 40 41 41 40 40 37 35 33 34 37 36 36 36 35 35 37 36 36 36 33 33 32 33 33 34 34
28 29 31 32 32 33 35 35 37 37 36 37 37 37 37 38 39 39 40 40 40 39 37 35 37 36 36 36 35 35 35 38 36 36 35 35 34 34 33 33 33 34
29 30 31 31 31 32 34 35 36 37 36 37 36 36 37 37 38 38 37 38 40 40 38 36 37 35 35 35 35 35 35 39 34 35 35 34 33 33 31 31 32 32
29 30 31 31 31 32 34 36 36 36 35 35 36 36 35 36 37 37 36 36 37 39 40 38 37 36 35 36 35 35 37 38 34 33 34 33 33 32 30 30 35 32
30 29 31 31 31 31 34 35 36 36 36 35 34 34 34 35 35 36 37 37 35 36 38 39 38 37 35 36 36 36 37 37 33 32 34 34 31 31 30 29 37 38
30 31 31 31 32 34 36 36 36 36 35 35 33 33 34 32 32 34 35 37 38 37 38 37 38 39 36 35 36 36 37 37 33 31 32 34 32 29 30 29 30 36
33 33 33 33 32 34 35 35 36 36 36 34 33 30 31 31 31 33 34 34 36 37 38 36 36 37 37 35 36 36 36 38 34 32 31 33 35 28 28 30 28 28

ECMWFNIL_sfc_dewp_090.txt.gz
Dewpoint
54 54 54 54 54 54 54 52 51 51 52 51 49 49 48 50 49 49 48 47 48 48 49 49 48 49 49 49 50 48 48 50 50 51 51 50 49 49 48 49 48 49
54 53 53 53 53 53 52 52 52 51 50 50 49 48 48 48 49 48 48 45 45 46 47 47 47 46 46 46 48 49 48 47 47 48 49 47 47 47 47 48 47 48
52 52 52 52 52 52 52 52 53 51 50 49 50 50 48 49 48 48 48 47 46 46 46 47 47 46 45 46 47 47 46 45 46 47 48 48 47 47 46 47 46 46
51 52 51 51 51 51 51 51 50 50 50 49 48 48 47 48 48 47 47 46 46 45 46 46 46 45 45 45 46 46 46 45 45 47 46 47 46 46 46 46 46 45
51 50 50 50 50 50 50 48 48 48 48 49 49 49 48 48 46 44 45 45 46 44 45 44 44 45 46 46 45 45 45 45 44 45 45 44 46 46 45 45 44 44
49 47 47 47 48 49 48 46 44 46 46 47 48 47 47 46 44 43 43 42 43 43 43 43 42 44 45 44 46 46 45 44 43 43 42 42 44 43 44 44 42 40
48 48 48 47 48 48 47 46 47 46 45 46 45 46 45 44 44 42 40 41 40 41 39 40 41 42 44 44 44 45 45 44 43 42 42 43 43 41 41 42 41 39
48 48 48 47 48 47 46 44 45 47 47 46 46 45 43 41 43 44 42 41 40 38 39 38 38 39 40 42 41 43 45 45 44 42 42 41 43 40 41 42 42 39
48 47 46 47 47 46 46 44 45 45 43 45 44 45 44 43 43 42 42 40 38 39 37 37 37 37 39 39 40 40 42 43 44 43 43 42 41 40 38 39 39 39
47 47 47 46 46 46 45 45 45 45 45 44 43 44 43 45 43 40 41 40 39 38 36 35 35 36 37 38 39 40 42 42 41 43 42 40 41 39 38 38 38 38
47 47 47 46 46 46 46 45 45 44 44 42 44 44 43 44 43 41 40 39 40 37 36 35 34 36 37 38 40 41 43 43 42 42 42 41 41 40 39 38 38 37
46 46 45 45 45 45 44 45 45 43 43 43 41 41 42 43 43 42 39 37 37 36 36 34 34 36 36 37 38 40 42 43 43 43 43 40 39 39 38 38 38 36
42 43 44 44 45 44 45 43 43 43 41 41 43 43 42 42 42 40 41 39 38 37 35 35 35 35 36 37 37 38 39 42 43 43 41 41 39 38 38 37 37 37
42 43 43 43 43 42 42 43 42 42 43 43 43 43 43 42 41 40 41 39 39 37 36 35 34 34 36 37 37 37 38 41 41 43 41 39 41 39 39 37 36 36
42 42 42 42 41 41 42 42 42 42 42 42 43 44 45 42 41 40 39 38 38 37 34 35 35 36 38 37 37 37 38 40 42 40 41 40 39 40 38 36 36 36
39 41 39 41 41 41 41 42 41 42 43 42 42 42 43 42 40 39 36 36 36 35 35 36 35 37 38 38 37 37 38 40 41 42 41 41 39 40 38 37 36 36
38 38 39 38 40 41 41 40 41 42 42 42 43 43 44 43 42 39 37 35 33 34 35 35 36 38 37 36 36 37 38 39 41 41 41 41 39 37 37 36 36 35
36 36 36 37 38 38 39 39 41 41 41 42 43 43 44 44 43 40 38 36 35 33 35 35 35 38 36 36 36 36 37 39 41 42 40 41 38 35 35 37 37 37
33 33 34 35 35 36 39 39 39 39 40 40 41 43 43 43 42 43 41 38 35 33 33 33 34 37 35 36 35 35 35 38 40 43 38 40 38 34 36 37 37 37
33 33 34 35 36 36 37 37 38 39 41 41 41 41 42 42 43 43 43 40 37 36 35 34 36 37 35 36 35 35 35 37 40 39 41 39 36 35 39 39 37 38
32 33 34 34 35 36 38 37 39 40 40 41 41 41 41 41 41 43 44 42 40 38 37 36 37 36 35 35 35 35 35 39 39 38 39 39 41 39 38 41 38 38
32 33 34 34 35 36 37 37 39 39 39 40 40 40 41 40 41 41 42 43 43 41 39 36 37 35 35 35 35 35 36 39 38 35 37 36 37 40 35 39 38 36
33 33 34 34 35 36 36 38 38 39 40 40 40 40 40 39 39 39 38 40 41 42 41 38 36 36 35 35 35 35 37 38 37 33 34 35 35 37 37 41 39 35
32 31 33 34 36 35 37 39 39 40 40 41 39 39 39 39 39 37 37 37 37 39 43 39 37 37 35 35 35 35 37 37 35 34 33 33 34 36 36 39 39 42
32 33 33 34 35 37 38 38 39 39 40 42 41 40 40 38 37 38 39 38 38 39 40 41 39 38 35 35 35 35 37 36 35 33 32 32 33 34 36 34 39 41
34 35 35 35 35 37 39 39 39 39 40 39 39 34 33 34 37 38 39 39 40 39 41 43 40 39 37 34 35 35 36 37 35 33 32 31 33 33 34 33 33 32

ECMWFNIL_sfc_dewp_096.txt.gz
Dewpoint
54 53 52 52 51 51 49 47 47 46 46 46 46 46 46 46 47 45 45 45 45 44 45 44 44 43 44 44 43 43 45 46 46 44 44 44 43 43 42 41 40 40
53 53 53 51 51 50 48 47 46 46 46 46 46 46 47 46 46 44 44 43 44 44 44 45 45 44 43 43 43 43 42 43 44 47 43 42 42 42 41 40 40 40
51 51 50 50 49 48 47 47 46 46 45 46 47 47 47 47 46 45 44 43 42 42 43 43 43 44 44 43 43 42 42 42 42 42 44 42 41 41 40 40 40 39
51 50 50 49 48 47 47 47 47 47 47 46 46 47 46 45 42 42 42 45 41 40 40 41 41 42 42 43 43 43 42 42 42 42 41 42 42 40 40 40 40 38
50 50 49 49 48 48 47 46 46 46 46 46 46 45 44 41 40 40 39 39 39 39 39 39 40 41 42 42 43 43 44 42 42 41 41 41 41 40 40 39 38 38
50 50 50 48 47 47 46 46 46 45 45 43 43 43 41 40 39 38 38 37 38 38 39 39 39 40 41 41 42 43 43 42 42 41 40 40 40 40 40 38 37 37
50 49 48 47 46 45 45 45 46 45 43 43 42 41 40 39 38 38 37 37 37 39 38 39 39 39 40 41 41 42 43 42 41 41 40 39 40 39 39 38 39 38
48 48 47 46 46 45 45 45 44 45 45 44 42 41 39 38 38 38 37 37 37 37 38 38 38 39 39 39 40 41 42 43 41 40 38 38 39 38 39 39 38 37
46 46 46 45 45 44 44 44 45 44 43 41 40 40 40 38 38 37 37 36 36 36 36 37 37 38 38 38 39 39 40 41 41 40 38 38 38 38 38 38 37 38
45 45 44 44 43 43 43 43 43 44 44 41 40 40 39 38 37 36 36 36 35 35 35 36 36 36 37 37 38 38 40 41 41 40 39 37 38 38 38 38 37 36
44 44 43 43 43 43 43 43 43 43 43 41 40 39 38 37 38 37 36 35 36 35 35 35 35 36 36 36 37 38 39 40 41 40 39 38 38 39 42 38 39 36
44 43 43 43 43 43 43 43 43 43 42 41 40 39 38 37 36 36 36 34 35 35 35 35 35 35 35 36 36 37 38 39 40 40 40 38 38 38 38 39 37 37
43 43 43 43 43 42 43 42 42 41 41 41 41 39 37 36 35 35 36 35 35 35 35 35 36 36 35 35 36 36 37 38 39 40 39 39 37 38 37 37 37 37
43 43 42 42 42 43 42 42 42 42 41 41 40 39 37 36 35 35 36 35 35 36 36 38 35 35 35 35 35 36 37 37 38 40 40 38 38 37 37 36 37 38
43 43 43 44 42 42 42 42 42 42 42 41 40 40 39 37 35 34 34 34 34 34 34 35 36 36 36 36 35 36 36 37 38 39 39 37 37 36 36 36 37 38
43 43 42 41 41 41 41 42 42 42 41 39 38 38 37 37 36 36 35 34 34 33 34 34 35 36 38 38 39 37 36 37 38 39 40 37 38 37 35 36 36 38
42 41 41 41 41 41 41 42 42 41 38 37 36 35 35 36 34 34 34 34 33 32 32 34 35 36 37 37 37 40 39 38 37 39 39 36 37 36 35 36 36 36
41 41 40 40 41 41 41 41 41 39 37 36 34 33 34 33 33 33 33 33 33 33 33 33 34 37 36 37 37 38 40 39 37 37 37 36 35 35 36 36 35 35
41 40 40 40 41 41 41 41 40 39 38 35 32 33 32 32 32 32 32 33 32 31 32 33 33 37 36 37 37 37 38 37 35 36 36 35 35 36 36 35 36 36
40 40 40 40 41 41 41 41 41 40 39 38 36 34 31 31 32 32 32 32 31 32 32 32 33 36 36 36 37 36 36 37 34 35 34 34 35 36 36 34 34 34
40 40 40 40 40 40 40 40 40 40 40 39 36 33 32 32 33 33 34 35 32 31 31 32 33 36 35 36 36 37 37 36 34 34 34 34 34 35 36 35 34 35
39 39 40 40 40 40 40 40 39 39 39 39 38 37 36 36 35 36 36 34 33 31 30 29 31 35 35 35 36 36 37 36 33 33 33 33 34 34 35 35 35 35
39 39 39 39 39 39 39 38 38 38 39 39 38 37 37 37 37 37 37 35 34 32 30 29 30 33 34 35 35 36 36 34 32 32 32 33 33 33 34 35 35 36
38 38 38 38 38 38 38 38 38 38 38 38 36 35 36 36 37 37 37 37 35 32 30 30 29 32 34 35 35 36 36 32 33 32 31 32 32 33 34 33 34 40
38 38 38 37 37 38 38 37 37 37 38 36 35 34 35 36 38 37 37 38 37 34 38 32 31 33 34 34 35 35 35 32 33 31 31 30 31 33 33 33 32 36
38 38 37 37 37 37 37 37 38 37 36 34 34 34 34 35 36 35 36 36 38 37 38 34 32 32 35 34 35 35 36 34 33 31 32 30 31 34 33 31 32 32

ECMWFNIL_sfc_dewp_099.txt.gz
Dewpoint
56 55 53 51 50 49 48 47 47 46 46 46 45 45 45 45 46 45 45 45 45 44 44 43 43 43 44 43 44 44 44 43 42 41 41 41 39 39 39 38 38 38
54 53 52 51 50 49 48 47 46 45 45 45 45 46 45 44 44 43 43 42 43 43 43 44 44 43 43 43 42 42 42 42 42 43 40 39 39 38 38 38 37 38
52 51 50 48 47 47 47 47 46 45 45 45 46 46 46 45 43 42 41 41 41 41 42 42 43 43 43 42 42 41 41 41 41 41 41 39 39 38 37 37 37 37
50 49 48 47 47 46 46 46 46 46 46 45 44 44 43 43 40 40 40 44 40 40 41 41 42 42 43 42 42 41 41 41 41 41 40 40 40 38 38 39 39 37
49 48 47 47 47 47 46 45 45 45 44 43 42 42 42 39 39 38 39 39 40 40 40 41 41 42 43 43 42 41 41 40 40 40 39 39 39 38 38 38 37 37
49 48 48 47 47 46 45 45 45 44 42 41 41 41 39 38 38 38 39 39 39 40 40 40 41 41 42 42 42 41 40 39 39 38 38 38 38 38 38 37 37 37
48 48 47 47 46 46 46 45 44 43 41 41 40 38 38 37 37 38 38 39 39 41 39 39 39 40 41 41 42 40 40 39 39 38 38 38 39 38 38 38 39 37
48 47 46 46 46 45 45 43 42 42 41 39 38 38 37 37 37 38 38 38 38 38 38 38 39 39 39 40 41 40 40 40 39 38 37 37 37 37 37 38 37 37
46 46 46 45 45 44 43 43 42 41 40 38 38 38 38 37 37 37 37 37 37 37 37 37 38 38 39 39 40 40 40 39 39 38 37 37 37 37 37 37 37 38
47 46 45 45 44 44 43 42 41 40 40 38 38 37 37 37 36 36 36 36 36 36 36 36 37 37 38 38 39 40 40 39 38 38 38 37 37 37 37 36 36 35
47 46 44 43 43 43 42 41 40 40 40 37 37 37 37 37 38 36 35 35 36 35 35 35 36 36 37 37 38 38 40 40 38 37 37 37 38 37 41 37 37 35
45 45 45 43 43 42 42 41 41 39 38 38 36 36 36 36 35 36 36 35 35 35 35 35 35 35 36 36 37 38 39 39 39 38 38 37 38 39 39 38 37 36
45 44 45 44 43 42 42 41 40 39 38 37 37 35 35 34 34 35 36 35 35 35 35 35 35 35 35 35 36 37 38 38 38 37 37 37 37 37 37 37 36 36
44 44 43 43 43 42 41 40 40 39 38 37 36 34 34 34 34 35 36 35 36 36 36 37 35 36 35 35 35 36 37 37 38 38 37 37 37 36 37 37 37 37
46 44 43 44 43 41 41 40 40 39 38 37 36 36 37 34 34 34 33 33 34 34 34 35 36 36 36 36 35 36 35 37 37 38 37 36 36 36 35 36 37 37
44 43 43 42 42 41 41 41 40 39 38 37 36 35 35 36 35 34 33 32 32 32 34 35 35 37 39 40 42 37 36 37 38 38 38 36 38 36 35 35 36 36
43 42 42 42 41 41 41 41 40 39 37 36 36 35 36 37 33 32 32 32 32 32 33 34 35 37 38 38 39 40 37 37 37 36 36 36 37 35 34 36 35 36
42 41 41 41 41 41 41 40 38 36 35 34 34 33 34 33 32 32 32 32 32 32 33 34 35 38 37 38 38 38 39 38 36 36 36 35 35 35 35 36 34 34
41 41 41 41 41 41 40 38 36 34 33 31 31 33 32 31 31 31 31 31 31 31 33 33 33 38 37 37 37 37 37 37 35 35 35 34 34 35 35 34 34 36
41 40 41 41 41 41 39 36 34 31 30 30 32 32 30 31 31 31 31 31 31 32 32 33 34 37 37 37 36 36 36 37 33 34 34 34 35 35 35 33 33 34
40 40 41 41 41 40 38 36 33 31 31 31 30 29 30 30 30 30 31 33 31 30 31 32 34 36 36 36 37 37 36 35 33 34 34 33 34 34 34 34 34 34
40 40 41 41 41 40 38 36 34 32 31 31 30 30 31 33 32 33 32 31 31 30 30 29 31 35 36 36 36 36 37 35 32 32 32 33 32 33 34 34 34 34
41 41 41 41 40 40 39 38 36 35 34 34 32 32 33 33 34 33 32 31 31 30 30 29 30 34 35 36 36 36 35 32 31 32 31 31 31 32 33 33 33 34
40 40 40 40 40 40 39 39 38 37 36 37 33 34 34 34 35 34 32 33 31 29 29 30 29 32 35 35 36 36 37 31 31 30 29 30 31 32 33 32 33 38
40 40 40 40 40 40 39 39 38 37 38 37 35 35 35 36 38 35 34 34 32 30 36 31 30 32 34 34 35 35 36 30 31 29 29 28 30 32 32 32 31 34
40 40 40 40 39 39 39 39 39 38 37 36 36 36 36 36 37 36 35 35 35 35 37 34 31 30 36 34 35 35 36 33 31 29 30 29 29 33 31 30 30 30

ECMWFNIL_sfc_dewp_102.txt.gz
Dewpoint
55 54 52 50 49 49 48 47 47 47 46 46 45 45 45 46 47 45 46 46 45 44 45 45 45 45 45 44 44 43 43 42 41 40 40 40 38 38 38 39 39 39
54 54 53 50 50 49 48 48 47 46 46 46 46 45 45 44 44 44 43 43 44 44 44 44 44 44 43 43 43 42 41 41 40 41 39 38 39 39 39 39 39 38
53 52 50 49 48 48 48 48 47 46 46 45 46 45 44 44 43 42 43 43 43 43 43 44 43 43 43 43 42 41 40 40 40 40 40 39 39 39 39 39 39 38
52 50 49 48 48 47 47 47 47 46 46 45 44 44 44 44 42 42 43 45 42 42 43 43 43 43 42 42 42 41 41 41 41 41 40 41 41 40 40 40 39 37
50 49 48 47 47 47 47 46 45 45 44 43 43 44 43 41 41 41 41 42 42 42 42 43 43 43 42 42 41 40 41 40 40 39 39 39 40 40 40 39 38 36
49 48 48 47 47 46 46 45 44 43 42 41 41 42 40 40 40 41 41 41 41 41 42 42 42 42 42 41 41 40 40 40 40 39 38 39 39 40 39 39 37 37
48 48 47 47 46 46 45 44 43 42 41 41 40 39 39 39 40 40 40 41 41 43 41 41 41 42 42 41 41 40 40 39 39 39 38 39 41 39 40 39 39 37
47 47 47 47 46 45 44 42 41 41 40 39 39 39 39 39 39 40 40 40 39 39 40 40 41 41 41 40 40 40 40 40 39 38 38 38 38 38 39 40 38 36
47 47 46 46 45 44 42 41 41 40 40 38 38 38 40 38 39 39 39 39 38 39 39 39 40 40 41 40 40 39 39 39 40 38 38 38 38 38 38 39 38 39
47 47 46 45 44 43 41 41 40 39 40 38 38 38 37 39 38 38 38 38 38 38 38 38 39 40 40 40 39 39 39 39 38 38 38 38 38 38 38 38 38 37
47 46 45 44 43 42 42 40 39 39 39 37 37 37 37 38 39 38 37 37 37 37 37 37 38 39 39 40 40 40 39 39 38 38 38 38 38 38 41 38 39 35
46 45 44 43 42 41 41 41 39 38 38 38 36 36 36 36 37 37 38 36 36 36 36 36 37 38 39 39 40 40 40 40 40 39 39 38 39 40 40 39 39 37
45 44 44 43 41 40 40 39 38 37 36 36 37 36 36 36 36 37 38 36 36 36 36 36 36 37 37 38 39 39 39 39 40 39 39 40 39 40 39 39 38 38
45 44 43 42 41 40 39 38 37 37 37 37 36 35 35 35 36 36 38 36 37 37 37 39 37 36 37 37 38 39 40 39 39 40 39 39 39 39 40 39 39 38
45 44 43 43 41 40 39 38 37 37 36 36 36 36 37 35 35 35 35 35 35 36 36 37 38 38 38 37 38 38 39 40 40 41 40 39 39 38 38 38 39 39
44 44 43 41 40 39 38 37 36 36 35 35 35 35 35 36 34 34 34 34 34 35 36 37 38 39 42 42 40 39 39 40 40 40 40 40 41 39 36 38 38 38
44 43 42 41 41 39 38 37 36 36 35 35 35 35 35 36 33 33 33 33 34 35 36 37 38 40 40 39 39 40 39 38 38 38 39 39 40 38 37 39 38 38
45 43 42 42 42 40 39 38 36 34 34 35 35 35 36 34 33 32 33 34 34 35 36 37 38 39 38 38 38 38 40 40 38 38 38 38 38 37 37 39 38 37
43 42 41 41 42 41 39 37 35 34 34 34 34 35 33 32 32 32 32 33 34 34 35 37 37 38 37 37 37 37 37 37 37 37 38 37 37 38 37 38 38 38
43 42 42 42 42 40 37 35 34 33 33 33 34 33 31 31 32 32 32 33 34 34 35 35 36 38 37 37 36 36 36 37 35 36 36 36 37 38 37 36 37 37
42 42 42 42 40 38 36 34 32 31 32 33 31 30 30 30 30 31 32 35 34 33 34 35 37 37 36 36 36 36 35 35 35 36 36 35 36 36 37 37 37 37
42 42 42 41 39 36 34 31 30 30 31 32 31 31 31 32 32 33 33 32 33 33 33 33 35 36 36 36 37 36 36 36 35 34 35 35 35 35 35 36 36 36
42 43 43 40 38 35 31 29 29 30 30 32 30 31 31 31 32 32 32 31 33 32 32 32 33 36 36 36 36 35 34 33 34 34 34 34 34 35 35 36 35 37
43 43 41 40 38 34 30 29 29 29 31 32 30 31 31 32 33 32 32 33 32 31 31 31 31 35 36 36 36 36 35 33 33 32 32 33 33 34 35 35 35 37
44 43 41 41 39 35 31 29 29 30 32 33 32 32 33 34 38 32 33 33 32 32 37 32 32 36 35 35 36 37 37 33 32 31 32 31 32 34 34 33 32 34
43 42 42 41 39 36 33 31 32 33 34 33 34 34 35 36 36 34 33 34 35 36 38 34 32 33 39 35 35 36 36 35 33 32 33 32 31 36 31 31 32 32

ECMWFNIL_sfc_dewp_105.txt.gz
Dewpoint
57 56 55 54 53 53 52 50 50 51 51 51 50 50 49 50 50 50 50 50 50 50 49 49 48 47 45 45 44 41 41 42 40 40 40 40 40 40 40 41 42 39
57 56 54 53 52 51 51 51 51 51 51 51 50 49 49 49 50 50 50 49 48 48 48 48 47 45 43 42 43 41 40 41 40 40 40 39 39 39 40 41 41 41
56 55 54 53 51 51 51 51 51 51 50 49 50 49 49 49 49 49 49 48 48 48 48 47 46 45 43 43 42 41 41 40 40 40 39 39 39 39 39 39 39 40
56 54 53 52 51 50 50 50 50 50 49 48 48 48 48 49 49 49 48 48 48 48 48 47 46 43 42 42 42 41 41 39 39 40 39 39 39 38 38 38 38 37
54 52 51 50 50 49 50 49 49 49 48 48 48 48 48 48 48 47 47 47 47 47 47 46 45 44 43 43 41 41 41 39 40 39 38 38 39 39 38 37 36 36
52 50 49 49 49 49 49 48 47 47 47 48 48 47 47 47 46 46 46 46 46 46 46 45 44 44 43 43 42 41 40 38 40 39 36 36 37 37 38 37 35 34
52 50 50 49 48 49 49 48 48 47 46 46 45 46 46 46 46 45 45 45 45 44 44 44 43 44 43 42 41 40 39 39 39 37 36 36 36 37 36 36 33 31
51 50 49 48 49 49 49 47 46 46 46 45 46 45 44 44 45 46 46 45 44 44 44 42 42 42 42 41 39 39 40 41 40 37 36 36 36 34 35 37 35 31
50 49 49 50 50 49 48 45 45 45 44 46 45 45 45 45 45 45 44 44 44 44 43 42 41 41 43 41 39 38 36 39 39 37 37 37 36 34 32 34 33 33
50 50 50 50 49 48 47 46 45 44 44 45 44 44 44 45 45 44 44 44 44 43 43 42 42 43 41 39 38 37 36 36 36 37 37 36 35 33 33 33 33 32
51 50 50 50 49 47 47 45 45 44 44 43 44 44 43 44 44 43 43 43 45 43 42 42 41 41 40 40 41 40 37 37 36 35 37 36 36 35 35 34 33 33
51 50 50 49 48 47 46 44 44 44 44 43 42 42 44 43 43 43 43 42 42 42 42 41 41 41 39 39 39 40 40 39 38 37 37 36 37 37 35 36 35 33
50 50 49 48 47 46 45 43 43 44 42 41 42 42 43 43 43 43 43 42 41 43 42 42 42 41 41 41 40 40 39 38 40 39 39 40 39 37 36 36 35 35
49 49 48 47 45 44 44 43 42 42 41 42 41 42 42 42 42 42 43 42 43 42 42 43 43 42 42 41 40 40 40 39 39 40 38 40 41 38 38 36 36 36
48 47 46 45 43 43 44 42 41 41 41 40 41 42 43 42 42 42 41 41 41 42 42 43 43 43 43 43 41 39 40 39 39 38 39 38 38 38 39 37 36 36
46 46 44 43 42 42 41 42 42 41 40 39 39 40 40 41 41 41 41 41 41 41 42 44 44 45 44 43 43 39 40 40 40 40 38 38 38 38 38 37 36 36
45 44 43 42 41 41 41 42 40 40 39 38 39 39 40 40 40 40 40 40 40 41 42 44 44 44 41 39 39 41 41 41 39 39 39 38 37 37 36 37 37 35
44 43 42 41 41 39 39 41 39 38 37 38 38 39 40 40 40 39 40 41 42 41 43 43 44 43 39 39 39 39 42 41 41 40 40 38 37 36 36 36 37 38
43 42 41 41 40 39 40 39 40 39 39 39 39 39 39 39 39 39 40 41 41 40 41 43 43 39 38 38 38 38 38 40 37 39 38 37 38 37 36 37 37 37
43 42 41 40 40 40 39 37 39 38 39 40 38 38 38 38 39 40 40 40 41 41 41 42 42 39 37 38 37 37 37 38 37 40 40 39 39 39 41 39 38 36
43 42 42 41 41 39 39 38 40 39 39 37 37 36 37 37 38 39 39 40 41 41 40 41 41 37 37 36 36 36 36 38 41 41 40 41 42 42 41 39 38 38
43 42 42 41 40 39 38 39 38 38 37 37 36 36 37 37 38 38 39 40 40 40 39 38 38 36 36 36 36 36 37 38 39 39 39 39 39 40 38 38 37 36
43 42 42 41 40 39 37 38 37 36 37 36 35 35 35 35 37 38 38 38 39 39 39 38 37 37 36 36 36 36 36 35 38 35 37 38 38 38 36 37 37 38
45 43 42 41 40 37 36 36 36 36 36 36 34 34 34 35 36 36 37 38 38 39 38 38 37 37 36 36 35 35 37 35 34 36 37 36 36 37 35 34 37 39
45 44 43 42 40 38 36 35 34 34 35 35 35 34 35 35 34 34 36 37 37 38 39 37 36 37 36 36 36 36 37 37 34 33 35 35 33 32 34 33 36 36
46 45 44 42 39 38 35 34 34 34 35 34 34 32 32 33 33 34 35 34 36 38 37 37 35 35 37 36 36 36 36 35 34 33 33 33 32 30 30 32 34 36

ECMWFNIL_sfc_dewp_108.txt.gz
Dewpoint
62 62 60 59 58 59 58 57 55 56 56 55 54 54 52 53 51 51 52 51 51 50 48 48 47 46 44 43 43 40 41 43 42 43 43 43 43 45 44 45 45 42
62 61 60 59 58 57 57 57 56 55 55 55 54 53 53 53 52 52 52 50 49 48 48 47 46 44 43 41 43 42 41 43 42 41 42 42 42 44 45 45 44 42
61 60 59 58 57 57 57 56 55 54 54 53 54 53 53 53 52 52 51 50 49 48 48 46 46 44 42 42 42 42 42 42 42 42 42 42 41 42 43 42 42 43
60 60 58 57 57 57 56 55 54 54 54 53 53 52 52 53 52 51 50 49 48 48 47 46 45 43 41 42 43 41 42 41 41 42 41 41 41 41 42 41 41 40
59 58 57 56 55 55 54 53 53 52 53 53 52 51 51 52 51 50 49 49 48 47 47 45 44 44 43 43 42 41 41 40 41 41 40 40 42 41 41 40 40 39
59 56 55 55 54 53 52 51 50 51 52 53 51 49 50 50 48 48 48 48 47 46 45 45 43 43 43 42 42 42 41 40 40 40 38 39 40 40 39 39 39 38
57 56 55 54 53 52 51 51 51 52 51 51 49 49 49 48 48 47 46 47 46 45 44 44 43 44 43 43 42 41 40 40 39 37 37 38 39 39 37 38 36 35
58 56 54 53 53 52 51 50 50 52 52 50 50 48 47 45 46 47 46 46 44 43 43 42 42 42 43 42 40 40 41 41 40 37 38 38 39 37 38 38 38 36
56 54 53 53 52 52 51 50 51 52 50 49 48 47 47 46 46 46 45 44 43 43 42 41 42 41 42 41 40 40 39 41 40 39 39 39 38 37 34 36 37 38
54 53 53 52 52 52 51 51 51 50 50 49 47 47 46 47 46 44 44 44 43 42 42 41 42 42 40 38 37 38 38 38 38 40 39 38 37 36 35 36 36 37
53 53 53 53 52 52 52 52 51 50 50 46 47 46 46 46 45 44 43 43 44 42 41 41 41 40 39 38 39 39 38 39 38 38 39 38 38 38 37 37 37 37
53 53 52 52 52 52 52 51 51 50 48 47 44 44 46 45 44 43 43 41 41 41 41 40 40 40 38 38 38 39 40 40 40 40 39 38 38 38 37 38 39 37
53 53 52 52 52 52 51 50 49 50 47 44 44 44 45 44 43 43 44 42 41 41 41 41 40 40 40 40 39 39 39 39 40 40 39 40 39 37 37 38 38 38
53 53 53 52 52 51 49 49 48 48 46 45 44 44 44 42 42 43 44 42 42 41 42 42 41 40 40 39 39 40 41 40 41 41 40 41 41 39 39 38 39 39
53 53 52 52 50 49 49 49 48 47 46 45 45 45 45 43 43 43 43 42 42 43 41 42 43 42 42 41 40 39 41 41 41 39 40 40 40 39 40 38 39 39
53 52 50 50 49 49 48 50 47 47 46 45 46 45 45 43 42 44 41 43 42 42 43 44 44 44 45 43 41 40 41 41 41 41 40 40 40 40 40 40 39 40
50 49 49 48 48 47 47 47 48 46 44 44 46 44 45 44 43 42 42 42 41 42 43 44 44 45 41 39 39 40 42 42 41 41 41 40 40 40 40 40 40 38
49 48 47 47 47 45 46 47 47 47 45 44 45 46 45 44 44 43 45 43 43 42 44 44 45 44 38 39 38 38 41 45 42 41 41 41 40 39 38 39 40 40
47 47 46 46 45 46 47 45 43 42 42 43 45 47 47 45 42 44 43 43 43 42 43 44 46 39 38 38 38 38 38 41 39 41 39 40 40 38 38 38 39 39
47 46 45 45 45 45 45 44 44 41 44 44 43 42 41 41 41 43 43 43 43 43 43 44 46 40 38 38 38 38 38 38 39 39 41 39 38 37 39 39 39 38
46 46 45 44 43 44 43 42 42 43 41 41 40 37 38 40 42 43 43 44 43 43 43 44 45 38 38 38 38 37 37 37 41 40 40 40 39 40 40 40 39 37
46 45 45 44 43 43 42 41 42 41 42 42 41 39 40 39 40 41 43 43 44 44 44 44 44 37 37 37 37 36 37 40 40 40 38 38 39 40 39 39 37 36
46 45 45 44 43 42 41 41 42 42 43 43 41 40 39 39 40 42 43 43 43 43 43 42 40 38 36 36 36 36 37 37 38 34 36 38 39 40 38 38 37 34
45 45 44 43 42 41 41 42 43 43 43 42 40 38 38 38 40 40 40 41 42 42 42 41 39 39 36 36 36 36 37 34 31 33 36 37 39 39 38 36 36 42
46 45 44 43 42 42 43 42 42 42 42 41 39 39 38 38 37 39 40 40 41 41 43 42 40 38 36 36 36 35 37 36 31 32 35 38 37 37 38 35 34 34
46 46 45 43 43 42 41 41 41 41 41 39 38 36 35 37 37 37 39 39 40 42 41 41 40 38 38 36 36 35 35 39 33 32 34 36 35 33 34 34 34 35

ECMWFNIL_sfc_dewp_111.txt.gz
Dewpoint
67 66 63 62 61 61 60 59 59 58 58 58 57 56 55 55 53 53 53 53 51 49 48 48 46 46 44 45 45 43 44 45 45 46 46 47 47 48 47 47 46 43
65 65 62 62 61 60 60 60 59 58 58 58 57 56 55 54 54 53 52 50 49 48 47 47 46 44 43 43 45 45 44 44 43 43 45 45 45 46 46 46 45 44
65 65 63 62 61 61 61 60 59 59 57 57 56 56 55 52 52 52 52 50 49 48 48 47 46 44 43 43 44 44 44 44 44 45 45 45 44 45 45 44 44 44
64 63 62 61 61 60 61 59 59 58 57 56 55 55 54 52 52 52 51 50 49 48 48 46 45 43 42 44 45 44 45 43 43 44 43 44 44 45 44 44 43 41
63 63 62 61 61 60 59 58 57 56 56 55 55 54 53 53 51 51 51 49 49 48 47 46 45 44 44 44 44 44 44 42 43 43 42 43 44 43 43 42 42 42
63 61 61 60 60 59 58 56 54 55 55 55 54 53 52 53 51 49 49 48 48 47 46 46 43 43 44 44 44 44 43 42 43 42 40 41 41 42 41 42 42 41
62 61 60 60 59 58 56 55 55 55 54 54 52 52 52 51 50 49 47 47 46 46 45 44 43 44 44 44 44 43 43 41 41 40 40 40 40 40 39 39 38 37
61 60 59 58 58 57 55 53 53 54 54 52 52 51 49 48 48 49 48 47 44 43 44 43 43 42 42 43 42 43 43 42 41 39 39 40 41 38 39 40 41 38
60 59 58 57 57 56 54 53 54 54 52 52 51 49 49 48 48 48 46 45 44 44 42 42 42 42 44 43 43 42 40 42 42 41 41 40 39 37 35 38 39 40
58 58 58 57 56 54 54 53 53 53 52 52 49 48 47 48 48 46 46 45 44 42 42 42 43 43 43 41 40 40 40 40 40 41 41 40 38 36 36 38 38 39
59 57 57 56 55 54 54 53 54 53 52 50 49 47 47 47 47 45 45 44 45 41 41 41 42 41 40 40 41 42 40 41 40 39 41 40 40 39 38 38 39 39
59 58 56 55 54 54 53 53 53 53 51 49 46 46 48 47 46 45 44 43 41 41 40 40 39 39 38 38 39 41 41 41 41 41 40 38 38 38 39 40 40 39
57 57 55 54 54 54 54 52 52 53 51 48 46 47 47 46 45 44 44 42 41 41 41 41 40 39 39 39 39 40 40 41 42 41 40 40 39 38 38 39 39 39
57 56 55 54 54 53 52 52 52 52 51 48 46 47 46 44 44 43 44 42 42 41 41 42 41 39 40 40 39 40 41 41 41 42 40 41 41 39 40 39 40 40
57 55 55 54 53 52 52 52 52 52 49 46 46 46 46 44 43 44 43 41 41 43 41 42 43 42 41 41 40 39 41 41 41 40 41 41 40 40 40 39 39 40
56 55 54 53 52 51 51 52 51 50 48 46 45 45 45 43 43 45 41 42 42 42 42 44 44 44 49 44 45 45 41 42 42 42 40 40 41 41 41 40 41 39
55 54 54 52 51 51 52 51 51 50 46 45 46 46 46 49 47 46 50 50 48 45 48 49 49 47 40 38 38 39 42 43 42 42 41 41 42 41 40 41 40 40
55 54 52 52 51 50 50 49 52 50 46 45 45 43 43 46 49 48 47 44 45 44 45 45 45 43 38 38 38 38 41 46 43 42 42 42 42 40 41 41 41 41
54 53 52 52 51 50 50 50 50 47 46 47 48 48 48 46 44 44 44 44 45 45 44 44 46 39 38 38 37 37 38 41 40 43 41 41 41 40 40 40 41 40
54 52 51 51 50 50 50 48 47 46 47 45 46 48 47 47 47 46 45 44 44 43 44 44 46 40 38 38 38 37 37 38 41 42 41 40 41 40 41 41 41 40
52 51 50 49 49 49 48 47 47 47 45 45 46 45 45 44 44 43 42 44 44 44 44 43 48 39 37 37 37 37 37 38 42 43 41 42 42 41 41 41 41 41
51 50 49 48 49 48 48 47 47 46 46 46 44 42 41 39 37 38 40 41 43 43 43 43 47 37 37 37 37 37 37 40 40 43 42 42 41 40 40 42 41 38
50 49 48 48 48 48 47 46 46 46 47 46 41 40 38 36 38 38 38 42 42 42 44 45 43 39 37 37 37 37 37 38 39 42 40 39 39 39 40 40 40 37
49 48 47 47 47 47 46 46 46 44 44 42 40 39 37 36 36 37 41 41 41 42 44 45 44 40 37 37 36 36 38 37 38 38 35 36 39 41 40 40 39 40
49 48 47 47 46 46 46 45 45 44 43 43 41 39 37 36 37 38 41 42 43 44 47 45 43 40 36 36 36 36 39 39 36 29 34 37 38 39 39 38 38 33
49 49 48 47 46 46 46 45 44 44 44 43 41 38 37 37 40 42 40 41 44 44 44 44 43 41 39 36 36 36 36 38 35 32 34 36 37 36 36 37 36 30

ECMWFNIL_sfc_dewp_114.txt.gz
Dewpoint
65 63 63 62 62 62 61 61 60 60 60 60 59 58 57 59 57 57 56 55 54 54 53 52 52 51 49 49 50 47 48 50 50 50 50 50 49 49 48 48 48 48
64 64 63 63 62 62 62 61 60 60 60 60 59 59 59 57 57 57 55 53 52 51 51 51 51 49 49 48 50 49 48 48 46 48 48 48 48 48 49 48 48 47
65 65 63 63 62 62 62 61 61 60 60 60 59 59 59 56 57 56 55 53 51 51 52 51 51 49 48 48 49 48 48 48 48 49 48 47 48 47 48 48 48 48
65 65 63 63 62 61 62 61 61 60 60 59 58 58 57 55 56 55 53 52 51 51 51 50 49 47 46 48 49 49 48 47 47 48 48 49 49 48 48 48 48 46
65 64 63 63 62 62 61 60 60 60 58 58 59 58 56 55 54 52 53 52 51 50 50 48 48 48 48 48 48 48 48 48 48 48 47 46 47 47 47 47 46 46
64 63 63 62 62 61 60 59 59 58 57 58 58 58 55 53 52 51 51 50 50 49 48 47 46 48 48 47 48 47 47 47 46 45 44 45 46 46 46 47 47 45
64 63 62 62 61 60 59 59 58 57 56 56 55 57 54 52 52 51 49 49 48 47 45 46 47 48 48 48 48 47 47 45 45 43 43 45 45 46 45 44 43 41
63 63 62 61 61 60 59 58 56 57 56 55 55 55 52 50 50 50 49 48 47 46 45 44 45 45 47 48 46 46 46 48 46 43 41 42 45 43 45 47 46 40
63 62 61 60 60 60 58 56 56 56 55 54 54 54 52 51 50 50 48 47 46 46 44 44 44 44 48 48 47 44 43 47 47 44 45 44 43 42 40 43 44 45
62 61 61 60 59 58 57 56 56 55 54 53 52 52 51 52 50 48 48 47 46 44 44 44 44 46 46 44 44 43 43 44 44 45 44 43 42 39 40 43 43 44
61 60 60 59 57 56 56 56 55 54 53 52 52 51 50 50 50 48 47 46 47 43 43 43 44 44 44 44 46 46 44 44 42 42 45 43 43 43 43 42 44 45
60 59 59 57 56 56 55 55 54 54 53 52 49 49 49 49 48 47 46 44 43 43 43 43 42 43 42 42 43 45 45 45 45 45 44 42 42 44 43 45 45 43
59 58 58 56 56 55 55 54 54 53 52 50 49 49 49 49 48 47 47 44 43 43 43 43 42 42 43 43 43 43 43 44 45 45 44 43 43 43 42 45 45 43
58 58 57 56 55 55 54 54 53 53 51 50 49 49 49 47 46 46 46 44 44 43 44 45 47 44 42 42 43 44 45 45 45 45 42 44 46 42 45 44 44 45
58 56 56 55 54 54 54 53 53 52 51 49 49 50 49 46 46 46 45 43 44 45 45 46 47 48 48 43 45 47 48 46 45 43 43 44 43 43 44 44 45 44
57 56 55 54 54 53 53 53 53 52 50 48 49 48 48 47 45 45 44 44 45 49 50 50 50 50 49 46 48 45 44 44 45 45 43 44 44 44 44 44 43 40
56 55 54 54 53 53 53 54 53 51 49 48 48 47 48 50 48 45 52 50 49 49 49 48 48 48 40 38 39 42 44 46 44 45 44 44 45 44 44 44 45 36
56 55 54 53 53 53 53 53 52 51 47 47 48 48 50 49 47 50 49 49 49 48 47 46 46 45 38 38 38 39 44 47 46 45 45 44 45 42 42 43 44 40
55 54 53 53 53 53 53 52 51 50 47 47 47 48 48 48 48 48 48 47 47 48 47 45 46 39 38 38 38 37 37 44 43 44 44 45 44 43 42 43 43 45
55 54 53 52 52 52 53 52 50 47 48 48 47 47 47 47 47 47 47 47 46 46 46 45 46 40 38 38 37 37 36 40 44 45 46 44 43 42 48 45 45 43
55 54 52 52 52 52 51 50 49 48 48 47 46 46 46 46 46 45 44 45 46 46 46 45 47 39 37 37 37 37 36 38 46 48 43 46 46 47 46 46 46 46
54 53 52 51 51 51 50 49 48 48 48 48 48 47 47 46 46 45 44 45 46 45 45 44 47 38 37 37 37 36 36 45 47 47 46 46 46 45 46 45 46 46
54 53 52 51 51 51 49 49 48 48 47 48 47 46 46 46 45 45 45 45 45 44 45 47 43 39 37 37 36 36 38 42 45 44 46 46 46 46 44 45 46 43
54 53 53 52 52 50 49 49 48 48 48 47 48 44 44 42 41 41 42 43 42 43 46 46 42 39 37 36 36 36 39 42 43 43 46 44 44 45 44 44 45 47
54 53 53 52 51 49 49 48 48 47 46 45 45 42 40 38 37 38 38 39 42 44 48 46 43 40 37 36 36 36 38 43 40 40 42 40 40 42 44 44 42 44
53 51 51 50 49 49 49 48 47 45 44 43 41 39 37 37 36 35 37 40 44 45 49 45 43 40 39 36 36 36 37 40 41 41 37 39 41 40 41 43 41 40

ECMWFNIL_sfc_dewp_117.txt.gz
Dewpoint
63 62 61 60 60 60 60 59 59 59 58 57 57 56 55 55 56 53 52 50 49 49 49 48 48 48 49 48 48 49 49 49 48 47 46 46 45 45 45 44 44 44
63 62 61 61 61 60 60 60 59 59 58 58 57 56 56 55 56 53 50 50 49 48 48 47 48 48 47 46 46 46 46 46 46 49 46 45 44 43 43 43 42 42
63 62 61 61 60 60 60 60 59 59 58 58 56 57 56 55 53 51 50 49 47 47 47 48 47 47 46 46 47 47 47 46 46 46 46 44 45 45 45 45 44 43
62 62 61 61 61 60 60 59 59 59 59 57 57 57 55 55 52 51 51 51 48 48 48 46 46 46 46 47 47 46 45 45 46 47 46 46 46 44 43 44 44 42
62 62 61 61 61 60 59 59 58 59 58 56 56 55 54 53 50 50 49 48 48 48 46 47 47 46 47 47 45 44 45 45 45 43 42 42 42 43 43 43 42 42
63 62 62 61 60 60 59 59 59 58 57 56 55 53 53 51 51 49 48 48 47 47 46 46 46 47 46 45 44 45 45 44 43 44 44 43 43 43 45 45 42 42
63 62 61 61 60 60 59 59 58 57 56 56 55 53 52 51 50 49 48 48 47 47 45 45 46 46 45 45 45 45 44 43 43 43 42 42 44 43 42 41 42 42
62 62 61 60 60 59 59 58 56 56 56 55 54 52 51 50 50 49 48 47 46 45 45 46 46 45 45 45 45 44 43 45 43 42 41 42 42 41 43 43 40 40
62 62 61 60 59 59 58 57 56 55 55 54 53 51 51 51 50 49 48 47 46 45 45 45 45 45 46 45 43 43 44 43 43 41 42 42 41 41 40 41 41 43
62 61 60 60 59 58 57 56 55 55 55 54 53 51 51 51 49 48 48 47 46 44 44 44 44 45 46 43 43 43 44 43 43 43 42 41 41 40 41 43 43 41
62 61 60 59 58 57 56 55 55 54 54 53 52 51 51 50 49 48 47 46 45 44 44 44 44 45 44 43 44 44 44 43 42 41 42 41 40 41 47 41 43 42
61 60 59 59 58 56 55 55 54 53 53 52 51 50 50 49 48 47 46 45 44 44 44 43 44 44 43 43 43 44 43 42 43 44 43 41 41 43 42 44 42 43
60 60 59 58 56 56 55 54 53 53 52 51 51 50 49 48 48 47 47 45 44 44 44 43 44 44 43 43 44 43 43 43 44 43 41 41 41 42 43 43 42 41
60 59 58 56 56 55 55 54 53 52 51 50 50 50 49 48 47 46 46 44 44 44 44 44 43 43 42 43 43 43 44 44 43 41 40 41 42 41 43 43 42 39
59 58 57 56 55 55 54 53 52 51 50 50 50 49 49 47 47 46 45 44 44 44 44 44 44 44 45 45 46 46 46 44 43 41 41 42 41 42 42 42 38 36
58 57 56 55 55 54 53 53 52 51 49 49 49 49 48 47 47 46 44 44 43 44 44 46 46 46 48 47 47 45 45 44 43 42 42 42 41 41 41 40 35 35
57 56 56 55 54 54 53 52 52 50 49 49 49 48 47 47 46 45 44 44 44 45 46 46 46 46 44 42 42 44 44 43 43 42 43 42 41 40 41 41 36 36
57 56 55 54 54 53 53 52 51 49 48 48 48 47 47 47 45 45 46 46 46 46 46 46 46 45 40 40 40 41 44 44 44 43 43 42 42 40 42 41 35 35
56 55 55 54 54 53 53 52 50 48 48 48 47 47 47 46 47 47 46 46 46 46 47 47 45 40 39 39 39 41 42 44 43 43 43 41 43 41 41 41 36 36
55 55 54 54 53 53 53 51 49 47 47 48 48 47 46 47 47 46 46 46 46 46 46 45 43 40 38 39 39 39 40 42 43 42 44 42 43 42 41 41 39 36
55 54 54 54 53 53 52 51 49 47 47 47 47 46 46 46 46 46 45 46 46 45 44 45 44 39 38 38 38 38 39 41 43 44 43 43 42 43 43 42 42 41
55 54 53 53 53 53 52 51 49 47 47 46 46 46 46 46 45 45 45 45 46 46 45 46 45 38 37 37 37 37 39 43 42 42 42 42 42 43 42 43 42 42
55 54 53 53 53 53 52 51 47 47 46 46 45 45 45 44 44 44 44 45 46 45 45 46 43 38 37 37 37 37 39 41 41 41 42 42 42 42 42 42 43 42
55 54 53 53 53 52 52 50 47 47 46 46 45 45 45 44 44 44 44 45 45 44 45 45 43 40 37 37 37 37 40 40 41 40 41 42 42 42 41 41 44 48
54 54 53 53 53 52 51 48 47 47 47 46 46 45 44 44 44 44 43 44 44 44 49 46 43 40 37 36 36 37 40 40 40 39 41 41 41 40 40 40 42 47
54 53 53 52 52 51 49 48 47 47 47 46 45 44 43 43 42 43 43 42 44 44 47 45 43 41 40 37 37 37 39 40 40 43 41 39 38 39 40 39 41 40

ECMWFNIL_sfc_dewp_120.txt.gz
Dewpoint
63 63 62 61 61 60 59 59 58 58 57 56 55 54 53 53 53 51 49 48 48 48 48 49 49 49 50 49 50 49 49 48 47 46 45 46 44 44 44 43 43 43
63 63 62 61 61 60 60 59 59 58 57 56 55 55 54 54 52 49 48 48 48 47 48 48 48 48 48 48 48 48 47 46 46 48 44 44 43 43 43 43 42 42
63 62 61 61 60 60 59 59 59 58 57 56 56 55 55 53 51 49 48 47 46 47 47 47 47 48 47 47 47 47 46 46 45 45 44 42 43 42 42 42 41 40
63 62 61 60 60 60 59 59 58 58 57 56 55 55 55 53 50 49 48 49 46 47 47 47 46 46 46 46 46 46 46 45 45 45 45 44 44 43 42 42 43 42
62 62 61 60 60 60 59 59 58 57 57 56 56 56 54 51 49 48 47 46 46 46 46 46 45 46 46 46 45 45 45 45 45 44 43 42 43 43 43 43 42 41
62 61 61 60 60 60 59 59 58 58 57 56 56 55 52 50 49 48 46 46 46 46 45 45 45 46 46 45 44 45 45 44 43 42 42 42 43 43 44 43 42 42
62 61 61 61 60 60 59 58 58 58 56 56 55 53 51 49 48 47 46 46 46 46 45 45 45 46 45 44 45 44 43 43 43 43 42 42 44 43 42 41 42 41
62 61 61 61 60 59 59 58 58 57 56 55 53 51 50 49 48 47 47 46 45 45 45 45 45 45 44 44 44 43 43 44 43 42 42 42 42 41 42 42 40 39
62 61 61 60 60 59 59 58 58 56 55 54 52 51 50 48 48 47 46 45 45 45 45 45 45 44 44 44 44 42 43 43 43 42 42 41 41 41 40 40 40 42
62 61 61 60 59 59 58 58 57 56 55 53 52 51 50 49 48 47 46 45 44 44 45 44 44 44 44 44 43 43 42 42 41 42 42 41 41 40 40 40 41 41
62 61 60 60 59 59 58 57 56 55 54 52 51 51 50 49 48 47 46 45 44 44 44 44 44 44 44 43 43 43 42 41 42 42 41 40 40 41 46 41 42 41
62 61 60 60 59 59 57 56 56 55 53 52 51 51 50 49 48 47 46 44 44 44 44 43 44 44 43 42 43 43 42 42 42 41 41 40 41 43 42 42 43 43
62 61 60 60 59 58 57 56 55 54 53 51 51 50 49 48 48 47 47 45 44 44 44 44 44 44 42 42 43 42 42 41 42 41 41 42 42 42 42 43 42 40
62 61 60 59 59 57 56 56 55 54 53 51 51 50 49 48 47 47 46 45 44 44 44 44 44 43 42 43 43 42 42 42 42 41 41 42 42 42 42 40 39 37
62 61 60 59 58 57 56 55 54 54 53 51 51 50 50 48 48 47 46 44 44 44 44 44 44 43 43 43 43 42 44 44 42 41 41 41 41 41 41 38 37 36
61 60 59 58 57 56 55 55 54 53 52 51 51 50 49 48 47 47 45 44 44 44 43 44 44 44 46 46 46 44 44 42 41 40 41 40 41 41 38 36 36 36
61 60 58 57 57 56 55 54 53 53 52 51 50 49 49 48 47 46 45 44 44 43 43 44 44 45 44 42 42 44 43 41 40 41 41 41 41 39 36 35 35 37
60 59 58 57 56 55 54 54 53 52 51 50 49 49 48 48 46 45 44 44 44 43 44 44 44 46 41 41 41 42 44 42 41 42 42 40 40 39 37 35 35 37
59 58 57 56 56 55 54 53 52 51 50 50 49 48 48 47 46 45 44 44 44 44 44 45 44 42 40 41 41 41 41 43 41 42 41 40 40 40 38 36 36 36
59 58 57 56 55 55 54 53 52 50 50 49 49 48 47 47 45 44 45 44 44 44 44 44 43 42 40 40 40 40 40 41 42 42 42 41 40 40 40 36 35 35
59 58 57 56 56 55 54 54 53 50 49 49 48 47 47 46 45 45 45 45 45 45 44 42 42 41 39 39 39 40 39 41 42 42 42 41 41 41 41 38 35 35
58 58 57 56 55 54 54 53 51 49 49 48 47 47 47 46 46 45 45 45 45 44 44 42 42 39 38 39 39 39 40 43 42 42 42 41 41 42 41 40 37 36
58 57 56 55 55 54 53 52 50 49 48 48 47 46 46 46 45 45 45 45 45 44 43 43 41 39 38 38 39 39 41 42 42 42 42 42 41 42 42 42 41 39
57 57 56 55 54 54 53 52 50 48 47 47 46 46 46 45 45 45 45 45 44 43 43 43 41 40 38 38 38 39 41 42 42 42 42 42 42 42 42 42 43 46
57 56 56 55 54 54 53 51 49 47 47 47 46 46 45 45 45 44 44 45 44 44 48 44 43 40 38 37 38 38 42 43 44 43 43 43 43 41 41 42 43 48
57 56 56 55 53 53 53 50 48 48 46 46 46 46 46 45 45 44 44 44 45 45 46 44 43 41 39 37 38 38 40 45 44 44 43 43 41 40 40 38 39 42

ECMWFNIL_sfc_dewp_123.txt.gz
Dewpoint
63 63 63 62 62 62 61 61 60 59 58 57 56 55 53 52 53 51 51 50 50 49 49 50 50 50 51 49 49 49 48 47 47 45 45 45 44 43 43 42 42 42
63 63 63 62 62 61 61 61 60 59 58 56 55 54 53 52 51 50 49 49 50 48 49 49 49 49 49 49 48 47 47 46 46 47 44 43 43 43 42 42 42 42
63 63 62 62 62 61 60 60 60 59 57 56 55 53 53 52 50 48 48 48 48 48 48 48 49 49 49 48 47 47 45 45 44 44 44 43 43 42 42 42 41 41
63 63 62 62 62 60 60 60 59 59 57 55 54 53 53 52 49 48 48 50 47 47 48 48 48 48 48 47 46 45 45 44 44 44 43 43 43 42 41 41 42 41
63 62 62 62 61 61 60 59 59 58 56 55 54 54 53 51 48 47 47 47 47 47 47 47 47 47 47 46 45 45 45 44 44 43 42 42 42 42 42 41 40 39
63 62 62 61 61 60 59 59 59 58 56 55 54 54 52 50 48 47 47 46 46 46 46 46 46 46 46 45 45 45 44 44 43 42 42 41 42 42 42 41 40 39
62 62 62 61 61 60 60 59 58 58 57 55 55 54 51 49 48 47 46 46 46 46 45 45 46 46 45 45 45 44 44 43 42 42 41 42 43 42 42 41 41 41
62 62 62 61 60 60 59 59 58 57 57 56 54 53 51 49 48 47 46 46 45 45 45 45 45 45 45 45 44 43 43 43 42 41 41 42 42 41 41 42 41 40
62 62 61 61 60 60 59 59 58 57 57 56 54 52 51 49 48 47 46 45 45 45 45 45 45 44 44 44 44 43 42 42 43 41 41 42 41 41 41 40 40 41
62 62 61 61 60 60 59 59 58 57 56 56 54 52 50 50 48 47 46 45 45 45 45 45 45 44 44 44 43 42 42 42 42 42 42 41 41 40 40 39 40 40
62 62 61 61 60 60 59 59 58 57 56 55 53 52 50 49 48 47 46 45 45 44 44 44 44 44 44 43 43 43 42 42 42 42 41 41 41 40 44 40 41 40
62 61 61 61 60 60 59 59 58 57 56 55 53 51 50 49 48 47 46 45 44 44 44 44 44 44 43 43 43 43 42 42 42 42 41 41 40 41 42 42 41 40
62 61 61 61 60 60 59 59 58 57 55 54 53 51 49 48 48 46 46 45 44 44 44 44 44 44 43 43 43 42 41 41 42 41 41 41 41 42 42 42 41 40
62 62 61 61 60 60 59 58 58 56 55 54 52 51 49 48 47 46 46 44 44 44 44 44 44 43 43 43 43 42 42 41 41 41 40 41 42 42 42 42 41 39
62 62 61 61 60 59 59 58 57 56 55 53 52 51 50 48 47 47 46 44 44 44 44 44 44 43 43 43 43 42 42 42 41 41 40 41 41 41 41 40 39 37
62 62 61 60 60 59 58 58 57 56 54 53 52 51 50 49 47 47 45 44 44 44 44 44 44 44 45 45 45 42 42 42 42 41 41 41 42 41 39 38 37 36
62 61 61 60 60 59 58 58 57 55 54 53 52 51 50 49 48 47 45 44 44 43 43 44 44 44 44 41 41 43 43 42 41 41 41 41 41 39 37 37 36 36
62 61 61 60 59 58 58 57 57 55 53 52 52 51 50 49 48 47 46 44 44 43 43 44 44 45 41 41 40 41 43 42 41 41 41 41 41 39 37 37 36 37
62 61 60 59 59 58 57 57 56 55 54 52 51 51 50 49 48 49 46 45 44 43 43 44 44 43 40 40 40 40 41 42 41 43 43 44 42 38 36 36 36 39
62 61 60 59 58 58 57 56 55 55 54 53 51 50 49 49 49 47 46 44 44 43 43 44 43 43 40 40 40 40 39 41 43 43 42 41 40 37 36 35 36 37
61 60 59 58 58 57 57 56 56 55 53 52 51 50 49 48 49 47 46 45 44 44 43 43 44 42 40 40 40 39 39 41 42 42 41 40 40 39 37 36 36 36
61 60 59 58 58 57 56 56 55 54 53 52 51 50 51 49 48 47 45 45 44 44 43 43 44 40 39 39 39 39 39 42 41 41 41 41 40 40 38 37 37 36
61 60 59 58 57 57 56 55 55 54 53 52 51 50 50 50 47 46 45 45 44 44 43 43 43 40 39 39 39 39 40 42 41 41 41 40 40 42 42 39 38 36
61 59 58 58 57 56 56 55 54 54 53 51 50 49 49 49 48 47 45 45 44 44 43 43 42 41 39 39 39 39 43 44 42 41 41 42 42 43 42 42 41 43
60 59 58 58 57 57 56 55 54 53 52 51 52 51 50 49 49 47 45 45 44 44 47 45 43 42 39 39 39 39 42 43 43 42 42 43 43 44 44 43 42 45
60 59 58 57 57 56 55 55 54 52 51 51 50 50 49 49 49 46 45 44 45 44 45 44 43 42 40 39 39 39 41 43 43 43 43 43 43 42 42 41 42 43

ECMWFNIL_sfc_dewp_129.txt.gz
Dewpoint
66 66 66 65 65 66 66 65 66 65 65 64 64 64 64 66 63 63 63 62 62 62 62 61 60 60 59 59 59 57 57 58 58 57 57 58 59 60 59 58 58 57
66 67 66 66 65 66 66 66 66 65 65 65 64 64 66 65 62 62 62 61 61 61 61 60 60 59 58 57 57 57 56 56 56 54 56 56 56 56 57 58 57 56
67 67 67 66 65 66 66 66 66 66 66 65 66 65 65 63 62 62 62 61 60 60 60 59 59 58 57 57 57 57 56 55 55 54 54 54 54 54 55 55 54 54
67 67 66 66 66 66 65 65 66 67 67 66 65 64 64 62 61 61 61 60 60 59 59 58 58 57 55 56 56 55 55 54 54 54 53 53 52 52 52 52 52 50
67 66 66 65 65 65 65 65 66 66 66 65 65 64 62 61 60 59 60 59 59 58 58 57 57 57 56 55 55 55 54 53 53 52 51 51 52 52 51 50 50 50
67 66 66 65 65 65 65 64 64 65 65 65 64 62 62 60 59 58 58 58 57 57 56 56 55 55 55 55 55 54 53 51 51 51 49 50 50 50 49 49 48 47
65 66 66 65 65 65 65 64 65 65 64 64 63 62 61 59 58 57 57 57 56 55 55 55 55 55 54 54 53 53 52 52 50 49 48 49 49 48 47 48 46 44
66 66 65 65 65 65 64 64 64 65 64 63 62 61 59 58 57 57 57 55 54 54 54 53 54 53 53 53 51 52 52 52 50 48 47 48 48 45 46 47 48 44
65 65 65 65 65 65 65 64 64 64 63 63 62 61 59 58 57 57 56 54 54 54 53 53 52 52 52 52 51 50 49 50 50 48 48 48 47 46 43 46 46 46
65 65 65 65 65 64 64 65 64 64 63 62 61 60 58 58 57 55 54 54 54 52 52 52 51 52 51 50 49 49 49 48 48 49 48 48 46 44 44 44 44 45
65 65 65 65 65 64 64 64 64 64 63 61 61 60 58 57 55 54 53 53 54 52 51 51 51 50 49 49 50 50 49 49 47 46 48 47 47 45 45 44 45 45
65 65 64 64 64 64 64 64 64 63 62 62 60 59 58 56 55 53 52 52 52 51 50 50 49 49 48 48 48 49 50 49 48 48 47 46 46 45 44 45 45 44
64 64 64 64 64 64 64 64 63 63 62 61 60 59 57 56 54 53 53 52 51 51 50 50 49 49 49 49 48 48 48 48 48 48 47 47 46 44 44 45 45 44
64 64 64 64 64 64 63 63 63 63 62 61 60 58 57 55 54 53 53 52 52 51 50 50 49 48 49 49 48 48 48 48 48 48 46 47 47 45 45 45 45 45
64 64 64 64 64 63 63 63 63 63 62 61 60 59 57 55 54 53 53 52 51 51 50 50 49 49 50 49 49 47 48 48 47 46 46 45 45 45 45 45 44 45
64 64 64 63 63 63 62 62 62 62 62 61 59 58 57 55 54 54 52 52 51 50 50 50 50 50 49 47 47 48 48 47 47 47 45 45 45 45 45 45 44 45
64 64 63 63 63 62 62 62 61 62 62 60 60 58 56 55 55 53 52 51 50 50 50 50 50 50 45 42 42 44 47 48 47 47 46 45 45 45 45 46 45 43
63 63 63 63 62 62 62 61 61 61 61 60 59 58 56 55 55 53 52 52 51 50 50 50 50 47 41 41 41 42 45 47 47 47 47 46 45 44 45 45 45 45
63 63 63 62 62 62 62 61 60 60 60 59 59 59 56 55 54 53 53 52 51 50 50 50 50 42 41 41 40 40 42 45 45 46 46 46 46 44 43 44 44 44
63 63 62 62 62 62 61 61 60 60 60 60 59 59 56 54 54 54 53 52 51 50 50 50 50 43 40 40 40 40 40 42 45 47 47 46 45 44 45 45 45 44
64 63 62 62 62 62 61 60 60 60 60 59 59 58 56 54 54 54 53 52 51 51 51 50 50 41 40 40 39 39 39 42 47 48 47 47 46 47 46 46 45 44
64 63 63 62 62 62 61 60 60 60 60 60 59 57 57 56 55 54 53 52 52 52 51 49 49 40 39 39 39 39 39 46 47 47 47 46 47 47 46 46 45 45
64 63 63 62 62 62 61 60 60 60 60 59 58 57 56 55 54 54 54 52 52 51 51 50 47 40 39 39 39 38 41 46 47 45 46 46 47 46 45 45 45 44
64 63 62 62 62 61 61 60 60 60 60 59 58 57 56 55 55 54 54 53 51 52 51 49 47 42 39 39 39 38 42 46 45 45 45 45 46 46 45 44 44 47
64 63 62 62 62 61 61 60 60 60 59 59 59 57 56 56 55 54 54 54 53 51 49 50 49 43 39 39 39 39 42 47 45 44 45 45 44 45 45 43 43 45
63 63 62 62 61 61 61 61 60 60 60 59 59 58 57 57 57 54 52 52 52 50 50 51 49 46 42 39 39 39 41 46 45 44 44 45 44 43 43 43 43 44

ECMWFNIL_sfc_dewp_132.txt.gz
Dewpoint
68 68 67 66 66 65 66 66 66 66 67 67 66 66 64 66 65 66 66 67 68 68 67 67 66 65 64 64 64 63 62 62 61 61 61 61 62 61 61 62 62 61
68 69 68 67 66 66 65 67 67 65 67 67 66 65 65 65 66 66 66 66 67 67 67 66 65 65 64 63 64 63 61 61 61 60 61 60 59 60 61 62 62 61
68 68 68 68 67 67 67 67 68 67 66 66 66 65 65 66 65 66 66 67 67 66 66 66 66 65 64 63 63 62 61 61 61 60 60 60 60 59 59 59 59 59
68 68 68 68 68 67 67 67 67 67 67 66 65 65 66 66 65 66 66 66 67 65 66 66 65 64 62 62 62 60 61 60 59 60 59 59 59 58 59 59 59 58
67 68 68 68 68 68 67 66 66 66 66 66 65 66 66 67 65 64 66 66 65 65 65 65 64 63 63 62 61 60 60 59 59 59 57 57 57 57 58 57 57 56
68 67 67 67 66 67 67 65 65 66 66 66 67 66 67 67 65 64 65 65 64 64 64 64 63 63 62 61 60 60 59 58 58 57 55 55 55 55 55 55 54 53
67 67 67 67 66 67 67 65 65 65 66 66 66 66 66 66 65 65 65 65 64 64 63 63 62 62 61 60 59 59 58 57 56 55 53 53 54 54 52 53 52 50
67 67 68 67 68 68 67 65 65 66 66 66 67 66 65 64 65 65 65 65 64 63 62 62 61 60 60 59 58 58 58 57 56 53 52 52 53 51 51 51 52 48
67 67 67 67 68 68 67 65 65 66 65 66 66 66 65 65 65 65 64 64 63 63 62 61 60 59 59 58 58 57 55 56 55 53 53 52 51 50 48 49 50 49
66 67 67 67 67 67 67 66 65 66 66 66 66 65 65 66 65 64 63 63 63 62 61 60 60 59 58 57 56 56 54 53 53 53 52 52 50 47 46 48 49 48
67 67 67 67 68 67 66 66 66 66 66 65 66 65 65 65 64 63 63 62 62 61 60 59 59 58 57 56 56 56 53 53 53 52 52 51 49 48 49 48 48 48
66 66 67 67 67 67 66 66 66 66 66 65 64 64 65 64 64 63 62 61 61 60 59 58 57 57 56 55 54 53 53 54 54 52 51 49 48 48 47 47 48 47
65 66 66 67 67 67 67 66 66 66 65 64 64 64 64 64 63 62 62 61 60 60 59 59 57 56 56 54 53 52 52 53 53 52 51 49 48 47 46 46 47 45
65 65 65 66 67 67 66 66 66 66 65 64 65 64 64 63 62 62 62 61 61 59 59 58 57 56 55 53 52 53 53 53 53 52 49 48 49 46 46 46 46 46
64 65 66 66 66 66 66 66 65 66 65 64 64 64 64 63 62 61 61 60 59 59 58 57 57 56 55 54 53 52 53 53 52 50 49 48 47 46 46 46 45 46
63 65 65 65 65 65 66 66 65 65 65 64 64 64 64 63 62 61 60 60 59 58 58 57 56 56 53 49 50 52 53 53 52 51 48 47 46 46 47 45 45 45
63 64 64 64 65 65 65 65 65 65 65 64 64 63 64 63 62 60 60 60 58 57 57 57 57 55 47 44 44 47 52 54 52 50 48 47 47 47 46 46 45 43
63 64 64 64 65 65 65 65 65 64 64 64 63 64 63 63 62 61 60 60 59 57 57 57 57 50 43 43 43 44 48 53 53 50 48 47 46 46 45 45 44 45
63 63 63 64 64 65 65 65 64 64 64 63 63 63 64 62 62 61 60 59 58 57 56 56 57 44 43 43 42 43 44 49 50 50 48 46 46 44 43 44 45 44
63 63 63 64 64 65 64 64 64 63 63 64 63 63 63 62 62 61 61 59 58 57 57 56 57 44 42 42 42 42 42 45 50 49 48 45 45 42 44 45 45 45
62 63 63 64 64 64 64 63 63 63 63 63 63 63 62 62 62 61 60 59 58 56 56 56 57 42 41 41 41 41 41 43 50 49 47 46 45 45 45 46 44 44
62 62 64 64 63 64 63 63 63 63 63 64 64 63 62 62 62 61 59 58 57 56 56 56 56 41 40 40 40 40 41 48 49 49 47 45 46 45 45 45 44 45
62 62 63 64 63 63 63 62 62 63 64 63 63 63 62 61 61 60 59 58 57 56 56 56 53 43 40 40 40 39 42 47 49 48 46 46 47 46 45 45 46 44
62 63 63 63 63 63 62 63 63 63 63 62 62 62 62 60 60 59 59 58 57 57 56 56 54 45 40 39 39 39 44 48 49 47 46 46 46 47 46 45 44 47
62 63 63 63 63 63 62 62 62 62 63 62 62 62 61 60 59 59 59 58 57 57 54 56 55 45 40 39 39 39 44 49 48 44 46 46 45 46 45 43 44 47
64 64 64 63 63 63 63 62 62 63 62 62 62 61 60 60 59 58 58 57 57 57 57 57 55 48 43 39 39 39 41 48 48 44 45 45 45 44 43 44 45 46